[[{"header":{"parameterUnit":"m.s-1","parameterCategory":1,"la1":30.6,"la2":29.2853,"lo1":-89.7004,"lo2":-87.6739,"dy":0.0162,"dx":0.0183,"nx":112,"ny":82,"refTime":"2024-03-17T12:00:00:Z","depth":0,"parameterNumber":2,"parameterNumberName":"U-component_of_WINDS"},"data":[0.0,0.0,0.0,0.0,0.0,0.0,0.0,0.0,0.0,0.0,0.0,0.0,0.0,0.0,0.0,0.0,0.0,0.0,0.0,0.0,0.0,0.0,0.0,0.0,0.0,0.0,0.0,0.0,0.0,0.0,0.0,0.0,0.0,0.0,0.0,0.0,0.0,0.0,0.0,0.0,0.0,0.0,0.0,0.0,0.0,0.0,0.0,0.0,0.0,0.0,0.0,0.0,0.0,0.0,0.0,0.0,0.0,0.0,0.0,0.0,0.0,0.0,0.0,0.0,0.0,0.0,0.0,0.0,0.0,0.0,0.0,0.0,0.0,0.0,0.0,0.0,0.0,0.0,0.0,0.0,0.0,0.0,0.0,0.0,0.0,0.0,0.0,0.0,0.0,0.0,-1.0154,-0.9951,-0.9072,-0.8457,-0.8342,-0.8328,-0.9277,-1.152,0.0,0.0,0.0,0.0,0.0,0.0,0.0,0.0,0.0,0.0,0.0,0.0,0.0,0.0,0.0,0.0,0.0,0.0,0.0,0.0,0.0,0.0,0.0,0.0,0.0,0.0,0.0,0.0,0.0,0.0,0.0,0.0,0.0,0.0,0.0,0.0,0.0,0.0,0.0,0.0,0.0,0.0,0.0,0.0,0.0,0.0,0.0,0.0,0.0,0.0,0.0,0.0,0.0,0.0,0.0,0.0,0.0,0.0,0.0,0.0,0.0,0.0,0.0,0.0,0.0,0.0,0.0,0.0,0.0,0.0,0.0,0.0,0.0,0.0,0.0,0.0,0.0,0.0,0.0,0.0,0.0,0.0,0.0,0.0,0.0,0.0,0.0,0.0,0.0,0.0,0.0,0.0,0.0,0.0,0.0,0.0,0.0,0.0,0.0,0.0,0.0,0.0,0.0,0.0,-0.9966,-0.8889,-0.8596,-0.8498,-0.8478,-0.8478,-0.9083,-1.0544,0.0,0.0,0.0,0.0,0.0,0.0,0.0,0.0,0.0,0.0,0.0,0.0,0.0,0.0,0.0,0.0,0.0,0.0,0.0,0.0,0.0,0.0,0.0,0.0,0.0,0.0,0.0,0.0,0.0,0.0,0.0,0.0,0.0,0.0,0.0,0.0,0.0,0.0,0.0,0.0,0.0,0.0,0.0,0.0,0.0,0.0,0.0,0.0,0.0,0.0,0.0,0.0,0.0,0.0,0.0,0.0,0.0,0.0,0.0,0.0,0.0,0.0,0.0,0.0,0.0,0.0,0.0,0.0,0.0,0.0,0.0,0.0,0.0,0.0,0.0,0.0,0.0,0.0,0.0,0.0,0.0,0.0,0.0,0.0,0.0,0.0,0.0,0.0,0.0,0.0,0.0,0.0,0.0,0.0,0.0,0.0,0.0,0.0,0.0,0.0,0.0,0.0,0.0,-1.0774,-0.9295,-0.877,-0.873,-0.8696,-0.8615,-0.8608,-0.9459,-1.1475,-1.2026,0.0,0.0,0.0,0.0,0.0,0.0,0.0,0.0,0.0,0.0,0.0,0.0,0.0,0.0,0.0,0.0,0.0,0.0,0.0,0.0,0.0,0.0,0.0,0.0,0.0,0.0,0.0,0.0,0.0,0.0,0.0,0.0,0.0,0.0,0.0,0.0,0.0,0.0,0.0,0.0,0.0,0.0,0.0,0.0,0.0,0.0,0.0,0.0,0.0,0.0,0.0,0.0,0.0,0.0,0.0,0.0,0.0,0.0,0.0,0.0,0.0,0.0,0.0,0.0,0.0,0.0,0.0,0.0,0.0,0.0,0.0,0.0,0.0,0.0,0.0,0.0,0.0,0.0,0.0,0.0,0.0,0.0,0.0,0.0,0.0,0.0,0.0,0.0,0.0,0.0,0.0,0.0,0.0,0.0,0.0,0.0,0.0,0.0,0.0,0.0,0.0,0.0,-0.946,-0.8784,-0.8899,-0.8912,-0.8865,-0.8743,-0.8737,-0.959,-1.1596,-1.1697,0.0,0.0,0.0,0.0,0.0,0.0,0.0,0.0,0.0,0.0,0.0,0.0,0.0,0.0,0.0,0.0,0.0,0.0,0.0,0.0,0.0,0.0,0.0,0.0,0.0,0.0,0.0,0.0,0.0,0.0,0.0,0.0,0.0,0.0,0.0,0.0,0.0,0.0,0.0,0.0,0.0,0.0,0.0,0.0,0.0,0.0,0.0,0.0,0.0,0.0,0.0,0.0,0.0,0.0,0.0,0.0,0.0,0.0,0.0,0.0,0.0,0.0,0.0,0.0,0.0,0.0,0.0,0.0,0.0,0.0,0.0,0.0,0.0,0.0,0.0,0.0,0.0,0.0,0.0,0.0,0.0,0.0,0.0,0.0,0.0,0.0,0.0,0.0,0.0,0.0,0.0,0.0,0.0,0.0,0.0,0.0,0.0,0.0,0.0,0.0,0.0,0.0,-0.8947,-0.8899,-0.8912,-0.8912,-0.8906,-0.8892,-0.8892,-0.8975,-0.9154,-0.9042,0.0,0.0,0.0,0.0,0.0,0.0,0.0,0.0,0.0,0.0,0.0,0.0,0.0,0.0,0.0,0.0,0.0,0.0,0.0,0.0,0.0,0.0,0.0,0.0,0.0,0.0,0.0,0.0,0.0,0.0,0.0,0.0,0.0,0.0,0.0,0.0,0.0,0.0,0.0,0.0,0.0,0.0,0.0,0.0,0.0,0.0,0.0,0.0,0.0,0.0,0.0,0.0,0.0,0.0,0.0,0.0,0.0,0.0,0.0,0.0,0.0,0.0,0.0,0.0,0.0,0.0,0.0,0.0,0.0,0.0,0.0,0.0,0.0,0.0,0.0,0.0,0.0,0.0,0.0,0.0,0.0,0.0,0.0,0.0,0.0,0.0,0.0,0.0,0.0,0.0,0.0,0.0,0.0,0.0,0.0,0.0,0.0,0.0,0.0,0.0,0.0,0.0,-0.9709,-0.9211,-0.9211,-0.9211,-0.9211,-0.9211,-0.9211,-0.9575,-1.0468,0.0,0.0,0.0,0.0,0.0,0.0,0.0,0.0,0.0,0.0,0.0,0.0,0.0,0.0,0.0,0.0,0.0,0.0,0.0,0.0,0.0,0.0,0.0,0.0,0.0,0.0,0.0,0.0,0.0,0.0,0.0,0.0,0.0,0.0,0.0,0.0,0.0,0.0,0.0,0.0,0.0,0.0,0.0,0.0,0.0,0.0,0.0,0.0,0.0,0.0,0.0,0.0,0.0,0.0,0.0,0.0,0.0,0.0,0.0,0.0,0.0,0.0,0.0,0.0,0.0,0.0,0.0,0.0,0.0,0.0,0.0,0.0,0.0,0.0,0.0,0.0,0.0,0.0,0.0,0.0,0.0,0.0,0.0,0.0,0.0,0.0,0.0,0.0,0.0,0.0,0.0,0.0,0.0,0.0,0.0,0.0,0.0,0.0,0.0,0.0,0.0,0.0,-1.0568,-0.9939,-0.941,-0.941,-0.941,-0.941,-0.941,-0.941,-0.9809,-1.0776,0.0,0.0,0.0,0.0,0.0,0.0,0.0,0.0,0.0,0.0,0.0,0.0,0.0,0.0,0.0,0.0,0.0,0.0,0.0,0.0,0.0,0.0,0.0,0.0,0.0,0.0,0.0,0.0,0.0,0.0,0.0,0.0,0.0,0.0,0.0,0.0,0.0,0.0,0.0,0.0,0.0,0.0,0.0,0.0,0.0,0.0,0.0,0.0,0.0,0.0,0.0,0.0,0.0,0.0,0.0,0.0,0.0,0.0,0.0,0.0,0.0,0.0,0.0,0.0,0.0,0.0,0.0,0.0,0.0,0.0,0.0,0.0,0.0,0.0,0.0,0.0,0.0,0.0,0.0,0.0,0.0,0.0,0.0,0.0,0.0,0.0,0.0,0.0,0.0,0.0,0.0,0.0,0.0,0.0,0.0,0.0,0.0,0.0,0.0,0.0,0.0,0.0,-0.941,-0.9417,-0.9417,-0.9417,-0.9417,-0.9417,-0.9417,-0.9417,-0.9417,0.0,0.0,0.0,0.0,0.0,0.0,0.0,0.0,0.0,0.0,0.0,0.0,0.0,0.0,0.0,0.0,0.0,0.0,0.0,0.0,0.0,0.0,0.0,0.0,0.0,0.0,0.0,0.0,0.0,0.0,0.0,0.0,0.0,0.0,0.0,0.0,0.0,0.0,0.0,0.0,0.0,0.0,0.0,0.0,0.0,0.0,0.0,0.0,0.0,0.0,0.0,0.0,0.0,0.0,0.0,0.0,0.0,0.0,0.0,0.0,0.0,0.0,0.0,0.0,0.0,0.0,0.0,0.0,0.0,0.0,0.0,0.0,0.0,0.0,0.0,0.0,0.0,0.0,0.0,0.0,0.0,0.0,0.0,0.0,0.0,0.0,0.0,0.0,0.0,0.0,0.0,0.0,0.0,0.0,0.0,0.0,0.0,0.0,0.0,0.0,0.0,0.0,0.0,-0.9544,-0.9632,-0.9693,-0.9693,-0.9693,-0.9693,-0.9693,-0.9693,-0.9693,-0.9693,0.0,0.0,0.0,0.0,0.0,0.0,0.0,0.0,0.0,0.0,0.0,0.0,0.0,0.0,0.0,0.0,0.0,0.0,0.0,0.0,0.0,0.0,0.0,0.0,0.0,0.0,0.0,0.0,0.0,0.0,0.0,0.0,0.0,0.0,0.0,0.0,0.0,0.0,0.0,0.0,0.0,0.0,0.0,0.0,0.0,0.0,0.0,0.0,0.0,0.0,0.0,0.0,0.0,0.0,0.0,0.0,0.0,0.0,0.0,0.0,0.0,0.0,0.0,0.0,0.0,0.0,0.0,0.0,0.0,0.0,0.0,0.0,0.0,0.0,0.0,0.0,0.0,0.0,0.0,0.0,0.0,0.0,0.0,0.0,0.0,0.0,0.0,0.0,0.0,0.0,0.0,0.0,0.0,0.0,0.0,0.0,0.0,0.0,0.0,0.0,0.0,0.0,-0.9693,-0.9737,-0.9792,-0.9792,-0.9792,-0.9792,-0.9792,-0.9792,-0.9792,-0.9792,0.0,0.0,0.0,0.0,0.0,0.0,0.0,0.0,0.0,0.0,0.0,0.0,0.0,0.0,0.0,0.0,0.0,0.0,0.0,0.0,0.0,0.0,0.0,0.0,0.0,0.0,0.0,0.0,0.0,0.0,0.0,0.0,0.0,0.0,0.0,0.0,0.0,0.0,0.0,0.0,0.0,0.0,0.0,0.0,0.0,0.0,0.0,0.0,0.0,0.0,0.0,0.0,0.0,0.0,0.0,0.0,0.0,0.0,0.0,0.0,0.0,0.0,0.0,0.0,0.0,0.0,0.0,0.0,0.0,0.0,0.0,0.0,0.0,0.0,0.0,0.0,0.0,0.0,0.0,0.0,0.0,0.0,0.0,0.0,0.0,0.0,0.0,0.0,0.0,0.0,0.0,0.0,0.0,0.0,0.0,0.0,0.0,0.0,0.0,0.0,0.0,0.0,-0.9792,-0.9792,-0.9792,-0.9792,-0.9792,-0.9792,-0.9792,-0.9792,-0.9792,-0.9792,0.0,0.0,0.0,0.0,0.0,0.0,0.0,0.0,0.0,0.0,0.0,0.0,0.0,0.0,0.0,0.0,0.0,0.0,0.0,0.0,0.0,0.0,0.0,0.0,0.0,0.0,0.0,0.0,0.0,0.0,0.0,0.0,0.0,0.0,0.0,0.0,0.0,0.0,0.0,0.0,0.0,0.0,0.0,0.0,0.0,0.0,0.0,0.0,0.0,0.0,0.0,0.0,0.0,0.0,0.0,0.0,0.0,0.0,0.0,0.0,-0.9158,-0.9036,0.0,0.0,0.0,0.0,0.0,0.0,0.0,0.0,0.0,0.0,0.0,0.0,0.0,0.0,0.0,0.0,0.0,0.0,0.0,0.0,0.0,0.0,0.0,0.0,0.0,0.0,0.0,0.0,0.0,0.0,0.0,0.0,0.0,0.0,0.0,0.0,0.0,0.0,0.0,0.0,-0.9792,-0.9792,-0.9792,-0.9792,-0.9792,-0.9792,-0.9792,-0.9792,-0.9792,-0.9792,-0.9792,0.0,0.0,0.0,0.0,0.0,0.0,0.0,0.0,0.0,0.0,0.0,0.0,0.0,0.0,0.0,0.0,0.0,0.0,0.0,0.0,0.0,0.0,0.0,0.0,0.0,0.0,0.0,0.0,0.0,0.0,0.0,0.0,0.0,0.0,0.0,0.0,0.0,0.0,0.0,0.0,0.0,0.0,0.0,0.0,0.0,0.0,0.0,0.0,0.0,0.0,0.0,0.0,0.0,0.0,0.0,0.0,0.0,0.0,0.0,-0.939,-0.9288,0.0,0.0,0.0,0.0,0.0,0.0,0.0,0.0,0.0,0.0,0.0,0.0,0.0,0.0,0.0,0.0,0.0,0.0,0.0,0.0,0.0,0.0,0.0,0.0,0.0,0.0,0.0,0.0,0.0,0.0,0.0,0.0,0.0,0.0,0.0,0.0,0.0,0.0,0.0,0.0,-0.9893,-0.99,-0.9927,-1.0032,-1.0039,-1.0039,-1.0039,-0.994,-0.99,-0.99,-0.9832,0.0,0.0,0.0,0.0,0.0,0.0,0.0,0.0,0.0,0.0,0.0,0.0,0.0,0.0,0.0,0.0,0.0,0.0,0.0,0.0,0.0,0.0,0.0,0.0,0.0,0.0,0.0,0.0,0.0,0.0,0.0,0.0,0.0,0.0,0.0,0.0,0.0,0.0,0.0,0.0,0.0,0.0,0.0,0.0,0.0,0.0,0.0,0.0,0.0,0.0,0.0,0.0,0.0,-0.9456,-0.9456,-0.9456,-0.9456,-0.953,-0.9639,-0.951,-0.9442,-0.9422,-0.9422,0.0,0.0,0.0,0.0,0.0,0.0,0.0,0.0,0.0,0.0,0.0,0.0,0.0,0.0,0.0,0.0,0.0,0.0,0.0,0.0,0.0,0.0,-0.968,-0.9765,-0.9792,-0.9765,-0.9677,0.0,0.0,0.0,0.0,0.0,0.0,0.0,0.0,0.0,0.0,0.0,-1.0042,-1.0062,-1.0109,-1.0263,-1.0315,-1.0315,-1.0315,-1.0161,-1.0062,-1.0062,-0.9913,-0.9832,0.0,0.0,0.0,0.0,0.0,0.0,0.0,0.0,0.0,0.0,0.0,0.0,0.0,0.0,0.0,0.0,0.0,0.0,0.0,0.0,0.0,0.0,0.0,0.0,0.0,0.0,0.0,0.0,0.0,0.0,0.0,0.0,-0.9731,-0.9731,0.0,0.0,0.0,0.0,0.0,0.0,0.0,0.0,0.0,0.0,0.0,0.0,0.0,-0.9731,-0.9731,-0.9731,-0.9731,-0.9731,-0.9731,-0.9731,-0.9731,-0.9731,-0.9744,-0.9765,-0.9744,0.0,-0.9578,-0.9578,0.0,0.0,0.0,0.0,0.0,0.0,0.0,0.0,0.0,0.0,0.0,0.0,0.0,0.0,0.0,0.0,0.0,0.0,0.0,0.0,0.0,0.0,-0.9765,-0.9785,-0.9792,-0.9819,-0.9934,-0.9859,-0.9765,-0.9785,-0.9792,-0.9792,0.0,0.0,0.0,0.0,0.0,0.0,-1.0249,-1.0249,-1.0256,-1.0308,-1.0315,-1.0315,-1.0315,-1.0295,-1.0249,-1.0249,-1.0076,-0.9988,-0.9988,-0.9859,0.0,0.0,0.0,0.0,0.0,0.0,0.0,0.0,0.0,0.0,0.0,0.0,0.0,0.0,0.0,0.0,0.0,0.0,0.0,0.0,0.0,0.0,0.0,0.0,0.0,0.0,0.0,0.0,0.0,-0.9792,-0.9792,-0.9792,-0.9792,-0.9792,0.0,0.0,0.0,0.0,0.0,0.0,0.0,0.0,0.0,-0.9913,-0.992,-0.9961,-1.008,-1.008,-1.008,-1.008,-1.008,-1.008,-1.008,-1.008,-1.008,-1.008,-1.008,-1.0046,-0.9971,-0.9802,-0.9686,-0.9632,0.0,0.0,0.0,0.0,-0.9632,-0.9632,-0.9632,-0.9632,-0.9632,-0.9632,0.0,0.0,0.0,0.0,0.0,0.0,0.0,-0.994,-1.0053,-1.008,-1.008,-1.008,-1.008,-1.01,-1.0168,-1.0127,-1.008,-1.008,-1.008,-1.008,-1.008,-1.0134,0.0,0.0,0.0,-1.0337,-1.0507,-1.0527,-1.0595,-1.0791,-1.0812,-1.0744,-1.0663,-1.0575,-1.0493,-1.0405,-1.0263,-1.0181,-1.0181,-1.0001,-0.992,0.0,0.0,0.0,0.0,0.0,0.0,0.0,0.0,0.0,0.0,0.0,0.0,0.0,0.0,0.0,0.0,0.0,0.0,0.0,0.0,0.0,0.0,0.0,0.0,0.0,0.0,0.0,0.0,-0.9792,-0.9792,-0.9792,-0.9792,-0.9792,0.0,0.0,0.0,0.0,0.0,0.0,-0.9937,-0.9937,-0.9974,-1.0123,-1.013,-1.0204,-1.0392,-1.0392,-1.0392,-1.0392,-1.0392,-1.0392,-1.0392,-1.0392,-1.0392,-1.0392,-1.0392,-1.0392,-1.0371,-1.0066,-0.9937,-0.9937,-0.9937,-0.9937,-0.9937,-0.9937,-0.9937,-0.9937,-0.9937,-0.9937,-0.9937,-0.9937,-0.9937,-0.9937,-0.9937,0.0,0.0,0.0,0.0,-1.0109,-1.0297,-1.0337,-1.0376,-1.0385,-1.0392,-1.0405,-1.0439,-1.0453,-1.0419,-1.0335,-1.0315,-1.0322,-1.0363,-1.0365,0.0,-1.0446,-1.0512,-1.0588,-1.0806,-1.0833,-1.0921,-1.1172,-1.12,-1.1152,-1.0982,-1.09,-1.0785,-1.0703,-1.0493,-1.0392,-1.0392,-1.0177,-1.0076,-1.0076,0.0,0.0,0.0,0.0,0.0,0.0,0.0,0.0,0.0,0.0,0.0,0.0,0.0,0.0,0.0,0.0,0.0,0.0,0.0,0.0,0.0,0.0,0.0,0.0,0.0,0.0,0.0,0.0,0.0,-0.9792,-0.9792,0.0,0.0,0.0,0.0,-0.9994,-0.9977,-1.0069,-1.0249,-1.0256,-1.0356,-1.0466,-1.0466,-1.0541,-1.0664,-1.0664,-1.0664,-1.0664,-1.0664,-1.0664,-1.0664,-1.0664,-1.0664,-1.0664,-1.0664,-1.0664,-1.0677,-1.0378,-1.0256,-1.0256,-1.0256,-1.0256,-1.0256,-1.0256,-1.0256,-1.0256,-1.0256,-1.0256,-1.0256,-1.0256,-1.0256,-1.0256,-1.0256,-1.0256,0.0,0.0,-1.027,-1.0335,-1.0446,-1.048,-1.0521,-1.0663,-1.0664,-1.0704,-1.0846,-1.088,-1.0752,-1.0365,-1.0315,-1.0356,-1.046,0.0,-1.0718,-1.086,-1.1029,-1.1159,-1.1172,-1.1172,-1.1179,-1.1193,-1.12,-1.1193,-1.1186,-1.1179,-1.1172,-1.1166,-1.086,-1.0664,-1.0664,-1.0419,-1.027,-1.027,-1.0082,0.0,0.0,0.0,0.0,0.0,0.0,0.0,0.0,0.0,0.0,0.0,0.0,0.0,0.0,0.0,0.0,0.0,0.0,0.0,0.0,0.0,0.0,0.0,0.0,0.0,0.0,0.0,0.0,-0.9792,-0.9879,0.0,-0.994,-1.0059,-1.0141,-1.0195,-1.0283,-1.0358,-1.0412,-1.0507,-1.0629,-1.0745,-1.0873,-1.0995,-1.1151,-1.1246,-1.1266,-1.1266,-1.1266,-1.1266,-1.1266,-1.1266,-1.1246,-1.1151,-1.1151,-1.1097,-1.0995,-1.0927,-1.071,-1.0419,-1.0419,-1.0397,-1.0315,-1.0315,-1.0337,-1.0419,-1.0419,-1.048,-1.0561,-1.0561,-1.0561,-1.0561,-1.0561,-1.0561,-1.0582,-1.065,-1.0677,-1.0744,-1.0887,-1.0961,-1.0968,-1.1023,-1.1002,-1.105,-1.1199,-1.1233,-1.1212,-1.1151,-1.0982,-1.09,-1.0948,-1.1002,-1.1057,-1.1077,-1.1166,-1.1234,-1.1329,-1.1342,-1.1348,-1.1443,-1.1457,-1.1416,-1.1349,-1.1342,-1.1302,-1.1206,-1.1097,-1.1002,-1.1002,-1.0819,-1.0663,-1.0568,-1.0412,-1.029,0.0,0.0,0.0,0.0,0.0,0.0,0.0,0.0,0.0,0.0,0.0,0.0,0.0,0.0,0.0,0.0,0.0,0.0,0.0,0.0,0.0,0.0,0.0,0.0,0.0,-0.9832,-0.9866,-0.9866,-1.0042,-1.0163,-1.0163,-1.0337,-1.0453,-1.05,-1.0636,-1.0771,-1.0792,-1.0941,-1.1056,-1.1205,-1.1335,-1.1499,-1.1613,-1.1714,-1.1769,-1.1769,-1.1769,-1.1769,-1.1769,-1.1769,-1.1714,-1.1655,-1.1655,-1.1594,-1.1499,-1.1499,-1.1295,-1.0928,-1.0778,-1.0696,-1.0614,-1.0614,-1.0669,-1.075,-1.075,-1.0785,-1.0867,-1.0867,-1.0867,-1.0867,-1.0867,-1.0907,-1.0934,-1.1036,-1.1103,-1.1171,-1.1348,-1.1389,-1.1438,-1.1492,-1.1499,-1.1533,-1.1635,-1.1655,-1.1647,-1.1748,-1.1525,-1.137,-1.1382,-1.1389,-1.1438,-1.1492,-1.1499,-1.154,-1.1606,-1.1655,-1.1653,-1.1755,-1.1769,-1.1728,-1.1626,-1.1655,-1.1587,-1.1396,-1.1341,-1.1294,-1.1274,-1.1097,-1.0975,-1.0873,-1.067,-1.0493,-1.0383,0.0,0.0,0.0,0.0,0.0,0.0,0.0,0.0,0.0,0.0,0.0,0.0,0.0,0.0,0.0,0.0,0.0,0.0,0.0,0.0,0.0,0.0,0.0,-0.9819,-0.9934,-1.0035,-1.0035,-1.0324,-1.0507,-1.0514,-1.0649,-1.0772,-1.0921,-1.1104,-1.1281,-1.1396,-1.1552,-1.1665,-1.1807,-1.1813,-1.1932,-1.2118,-1.2125,-1.2125,-1.2125,-1.2125,-1.2125,-1.2125,-1.2125,-1.2125,-1.2111,-1.2111,-1.2111,-1.2098,-1.2098,-1.1972,-1.1759,-1.1355,-1.1213,-1.1213,-1.1213,-1.1213,-1.122,-1.1227,-1.1227,-1.1227,-1.1227,-1.1227,-1.1227,-1.1227,-1.1329,-1.1409,-1.1409,-1.1518,-1.1667,-1.1766,-1.18,-1.1877,-1.2064,-1.2098,-1.2098,-1.2104,-1.2104,-1.2111,-1.2111,-1.1843,-1.1651,-1.178,-1.18,-1.1891,-1.2077,-1.2098,0.0,-1.2098,-1.2098,-1.2098,-1.2098,-1.2098,-1.2098,-1.2098,-1.2098,-1.2036,-1.1807,-1.1671,-1.1565,-1.1416,-1.1302,-1.1213,-1.1206,-1.088,-1.0663,-1.0514,0.0,0.0,0.0,0.0,0.0,0.0,0.0,0.0,0.0,0.0,0.0,0.0,0.0,0.0,0.0,0.0,0.0,0.0,0.0,0.0,0.0,-1.0188,-1.0161,-0.9981,-1.0177,-1.0371,-1.0371,-1.0603,-1.086,-1.1002,-1.1118,-1.1274,-1.1387,-1.1565,-1.1667,-1.1708,-1.1959,-1.2121,-1.2162,-1.2334,-1.2463,-1.2542,-1.2696,-1.2751,-1.2751,-1.2751,-1.2751,-1.2751,-1.2751,-1.2628,-1.2379,-1.2379,-1.2295,-1.2098,-1.2098,-1.2077,-1.1972,-1.1742,-1.1586,-1.1497,-1.1497,-1.1558,-1.1667,-1.1812,-1.1853,-1.1853,-1.1853,-1.1853,-1.1853,-1.1853,-1.188,-1.1914,-1.1914,-1.1948,-1.1989,-1.2023,-1.2036,-1.2043,-1.2091,-1.2098,-1.2132,-1.2203,-1.2268,-1.2257,-1.2359,-1.2318,-1.2203,-1.2026,-1.2036,-1.205,-1.2091,-1.2098,-1.2098,-1.2098,-1.2098,-1.2098,-1.2098,-1.2098,-1.2098,-1.2098,-1.2098,-1.2084,-1.2036,-1.1965,-1.1962,-1.1914,-1.1728,-1.1545,-1.1335,-1.1172,-1.1057,0.0,0.0,0.0,0.0,0.0,0.0,0.0,0.0,0.0,0.0,0.0,0.0,0.0,0.0,0.0,0.0,0.0,0.0,0.0,0.0,0.0,0.0,-1.0426,-1.0453,-1.04,-1.0488,-1.0636,-1.0791,-1.1043,-1.1252,-1.143,-1.1615,-1.1735,-1.1891,-1.2033,-1.2104,-1.2165,-1.244,-1.2569,-1.2569,-1.2739,-1.2827,-1.2827,-1.2955,-1.3003,-1.3003,-1.3003,-1.3003,-1.3003,-1.3003,-1.2901,-1.2691,-1.2691,-1.2635,-1.2479,-1.2479,-1.2479,-1.2445,0.0,0.0,0.0,0.0,-1.1857,-1.1938,-1.207,-1.2098,-1.2098,-1.2098,-1.2098,-1.2098,-1.2098,-1.2145,-1.2207,-1.2268,-1.2291,-1.2359,-1.2458,-1.2479,-1.2479,-1.2479,-1.2479,-1.2499,-1.2588,-1.2569,-1.2635,-1.2678,-1.2691,0.0,-1.2506,-1.2424,-1.2366,-1.2465,-1.2479,-1.2479,-1.2479,-1.2479,-1.2479,-1.2479,-1.2417,-1.2338,-1.2338,-1.2284,0.0,0.0,0.0,-1.2166,-1.2104,-1.1972,0.0,0.0,0.0,-1.1355,-1.1355,-1.1145,0.0,0.0,-0.9531,-0.9546,0.0,0.0,0.0,0.0,0.0,0.0,0.0,0.0,0.0,0.0,0.0,0.0,0.0,0.0,0.0,0.0,-1.0683,-1.0813,-1.0968,-1.0887,-1.0934,-1.122,-1.1484,-1.1698,-1.1854,-1.2033,-1.222,-1.2352,-1.2481,-1.261,-1.2752,-1.2901,0.0,0.0,0.0,-1.305,-1.305,-1.305,-1.305,-1.305,-1.305,-1.305,-1.305,-1.305,-1.3043,-1.3023,-1.3023,-1.3016,-1.3003,-1.3003,-1.3003,-1.2948,-1.2411,-1.22,-1.22,-1.22,-1.22,-1.22,-1.22,0.0,0.0,-1.22,-1.22,-1.22,-1.22,-1.2295,-1.2393,-1.2515,-1.2651,-1.2786,-1.2969,-1.3003,-1.3003,-1.3003,-1.3003,-1.3003,-1.3003,-1.3003,-1.3003,-1.3003,-1.3003,-1.3009,-1.3023,-1.2861,-1.28,-1.2982,-1.3003,-1.3003,-1.3003,-1.3003,-1.3003,-1.3003,-1.284,0.0,-1.272,-1.263,-1.2501,-1.2372,-1.2352,-1.2264,-1.2132,-1.2125,-1.2118,-1.2098,-1.1803,-1.1667,-1.1667,-1.1431,-1.1302,-1.1288,-1.0921,-1.0772,0.0,0.0,0.0,0.0,0.0,0.0,0.0,0.0,0.0,0.0,0.0,0.0,0.0,0.0,0.0,-1.0819,-1.1084,-1.1314,-1.1435,-1.1529,-1.1556,-1.1538,-1.1796,-1.2118,-1.2345,-1.24,-1.2535,-1.2853,-1.2894,-1.2928,-1.2955,-1.3091,-1.3173,-1.3173,-1.3254,-1.3315,-1.3315,-1.3315,-1.3315,-1.3315,-1.3315,0.0,-1.3315,-1.3315,-1.3247,-1.3173,-1.3173,-1.3105,-1.3003,-1.3003,-1.3003,-1.2989,-1.2873,-1.2826,-1.2826,-1.2826,-1.2826,-1.2826,-1.2826,-1.2826,-1.2826,-1.2826,-1.2826,-1.2826,-1.2826,-1.2846,0.0,-1.2901,-1.2935,-1.2962,-1.2996,-1.3003,-1.3003,-1.3003,-1.3003,-1.3003,-1.3003,-1.3003,-1.3003,-1.3003,-1.3003,-1.3037,-1.3152,-1.305,-1.2969,-1.2996,-1.3003,-1.3003,-1.3003,-1.3003,-1.3003,-1.3003,-1.2975,-1.2955,-1.2955,-1.2928,-1.2901,-1.2873,-1.2712,-1.2522,-1.2257,-1.2244,-1.2227,-1.2098,-1.2043,-1.2016,-1.2016,-1.1955,-1.1928,-1.1914,-1.1363,-1.1111,0.0,0.0,0.0,0.0,0.0,0.0,0.0,0.0,0.0,0.0,0.0,-1.0799,-1.0799,0.0,-1.1104,-1.1225,-1.1374,-1.1586,-1.1809,-1.1965,-1.2033,-1.1965,-1.2149,-1.2372,-1.2596,-1.2684,-1.2867,-1.3091,-1.3105,-1.3139,-1.322,-1.3247,-1.3288,-1.3288,-1.3363,-1.3403,-1.3403,-1.3403,-1.3403,-1.3403,-1.3403,-1.3403,-1.3403,-1.3403,-1.3356,-1.3288,-1.3288,-1.3247,-1.318,-1.318,-1.318,-1.318,-1.318,-1.3132,-1.3003,-1.3003,-1.3003,-1.3003,-1.3003,-1.3003,-1.3003,-1.3003,-1.3003,-1.3003,-1.3003,-1.3003,-1.3016,-1.3091,-1.3105,-1.3125,-1.3159,-1.318,-1.318,-1.318,-1.318,-1.318,-1.318,-1.318,-1.318,-1.318,-1.318,-1.3207,-1.3275,-1.3227,-1.318,-1.318,-1.318,-1.318,-1.318,-1.318,-1.318,-1.318,-1.3152,-1.3105,-1.3105,-1.3043,-1.3003,-1.3003,-1.2928,-1.2779,-1.2669,-1.2549,-1.2474,-1.24,-1.225,-1.2213,-1.2213,-1.2139,-1.2098,-1.2091,-1.1791,-1.1649,0.0,0.0,0.0,0.0,0.0,0.0,0.0,-1.0684,-1.0698,-1.0725,-1.0826,-1.0934,-1.0988,-1.1151,-1.1376,-1.1613,-1.1671,-1.1837,-1.2111,-1.2264,-1.2379,-1.2379,-1.2474,-1.2617,-1.28,-1.2929,-1.3105,-1.3248,-1.3254,-1.3268,-1.3397,-1.3403,-1.3403,-1.3403,-1.3403,-1.3403,-1.3403,-1.3403,-1.3403,-1.3403,-1.3403,-1.3403,-1.3403,-1.3403,-1.3403,-1.3403,-1.3403,-1.3403,-1.3403,-1.3403,-1.3403,-1.3403,-1.3403,-1.3254,-1.3091,-1.3091,-1.3091,-1.3091,-1.3091,-1.3091,-1.3091,-1.3091,-1.3091,-1.3091,-1.3091,-1.3091,-1.3111,-1.3227,-1.3254,-1.3247,-1.337,-1.3403,-1.3403,-1.3403,-1.3403,-1.3403,-1.3403,-1.3403,-1.3403,-1.3403,-1.3403,-1.3403,-1.3403,-1.3403,-1.3403,-1.3403,-1.3403,-1.3403,-1.3403,-1.3403,-1.3403,-1.3403,-1.3288,-1.3254,-1.3254,-1.3152,-1.3071,-1.3043,-1.3043,-1.303,-1.3003,-1.284,-1.2773,-1.2773,-1.2542,-1.242,-1.242,-1.2302,-1.2227,-1.2227,-1.22,-1.2152,-1.4907,-1.4199,-1.2643,-1.1082,-1.0684,-1.0684,0.0,-1.0684,-1.0725,-1.086,-1.0901,-1.0995,-1.1294,-1.1463,-1.1584,-1.1746,-1.2033,-1.223,-1.2257,-1.2508,-1.2638,-1.2638,-1.2659,-1.2813,-1.3098,-1.318,-1.3214,-1.3363,-1.3376,-1.3383,-1.3397,-1.3403,-1.3403,-1.3403,-1.3403,-1.3403,-1.3403,-1.3403,-1.3403,-1.3403,-1.3403,-1.3403,-1.3403,-1.3403,-1.3403,-1.3403,-1.3403,-1.3403,-1.3403,-1.3403,-1.3403,-1.3403,-1.3403,-1.3383,-1.3349,-1.3349,-1.3349,-1.3349,-1.3349,-1.3349,-1.3349,-1.3349,-1.3349,-1.3349,-1.3349,-1.3349,-1.3356,-1.337,-1.3376,-1.3376,-1.3397,-1.3403,-1.3403,-1.3403,-1.3403,-1.3403,-1.3403,-1.3403,-1.3403,-1.3403,-1.3403,-1.3403,-1.3403,-1.3403,-1.3403,-1.3403,-1.3403,-1.3403,-1.3403,-1.3403,-1.3403,-1.3403,-1.3383,-1.3376,-1.3376,-1.3363,-1.3295,-1.32,-1.3193,-1.3132,-1.3009,-1.2982,-1.2975,-1.2975,-1.2941,-1.2928,-1.2928,-1.2732,-1.2618,-1.2611,-1.2515,-1.2311,-1.4199,-1.384,-1.2865,-1.1141,-1.0684,-1.0711,-1.0799,-1.0819,-1.086,-1.1043,-1.1212,-1.134,-1.1504,-1.1714,-1.1925,-1.2074,-1.2277,-1.2447,-1.2535,-1.2732,-1.2895,-1.2976,-1.299,-1.3037,-1.32,-1.3254,-1.3336,-1.3397,-1.3403,-1.3403,-1.3403,-1.3403,-1.3403,-1.3403,-1.3403,-1.3403,-1.3403,-1.3403,-1.3403,-1.3403,-1.3403,-1.3403,-1.3403,-1.3403,-1.3403,-1.3403,-1.3403,-1.3403,-1.3403,-1.3403,-1.3403,-1.3403,-1.3403,-1.3403,-1.3403,-1.3403,-1.3403,-1.3403,-1.3403,-1.3403,-1.3403,-1.3403,-1.3403,-1.3403,-1.3403,-1.3403,-1.3403,-1.3403,-1.3403,-1.3403,-1.3403,-1.3403,-1.3403,-1.3403,-1.3403,-1.3403,-1.3403,-1.3403,-1.3403,-1.3403,-1.3403,-1.3403,-1.3403,-1.3403,-1.3403,-1.3403,-1.3403,-1.3403,-1.3403,-1.3403,-1.3403,-1.3403,-1.3403,-1.3403,-1.3403,-1.3403,-1.337,-1.3308,-1.3308,-1.3281,-1.322,-1.3173,-1.3125,-1.3125,-1.3043,-1.3003,-1.3003,-1.2935,-1.2868,-1.2861,-1.2839,-1.2744,-1.443,-1.4194,-1.3658,-1.1319,-1.0812,-1.0873,-1.0948,-1.0975,-1.1063,-1.1288,-1.1463,-1.1653,-1.1782,-1.1979,-1.2227,-1.2379,-1.2494,-1.2617,-1.2773,-1.2922,-1.3098,-1.32,-1.3248,-1.3275,-1.3275,-1.3336,-1.3403,-1.3403,-1.3403,-1.3403,-1.3403,-1.3403,-1.3403,-1.3403,-1.3403,-1.3403,-1.3403,-1.3403,-1.3403,-1.3403,-1.3403,-1.3403,-1.3403,-1.3403,-1.3403,-1.3403,-1.3403,-1.3403,-1.3403,-1.3403,-1.3403,-1.3403,-1.3403,-1.3403,-1.3403,-1.3403,-1.3403,-1.3403,-1.3403,-1.3403,-1.3403,-1.3403,-1.3403,-1.3403,-1.3403,-1.3403,-1.3403,-1.3403,-1.3403,-1.3403,-1.3403,-1.3403,-1.3403,-1.3403,-1.3403,-1.3403,-1.3403,-1.3403,-1.3403,-1.3403,-1.3403,-1.3403,-1.3403,-1.3403,-1.3403,-1.3403,-1.3403,-1.3403,-1.3403,-1.3403,-1.3403,-1.3403,-1.3403,-1.3403,-1.3403,-1.3403,-1.3403,-1.3403,-1.3403,-1.3403,-1.3403,-1.3295,-1.3275,-1.3275,-1.3173,-1.3125,-1.3125,-1.3077,-1.3057,-1.3057,-1.3016,-1.3003,-1.729,-1.6399,-1.561,-1.1842,-1.105,-1.1186,-1.1193,-1.1193,-1.1274,-1.1545,-1.1577,-1.1755,-1.2189,-1.2277,-1.2379,-1.2632,-1.2679,-1.2779,-1.2975,-1.3118,-1.3207,-1.3214,-1.3302,-1.3397,-1.3397,-1.3397,-1.3403,-1.3403,-1.3403,-1.3403,-1.3403,-1.3403,-1.3403,-1.3403,-1.3403,-1.3403,-1.3403,-1.3403,-1.3403,-1.3403,-1.3403,-1.3403,-1.3403,-1.3403,-1.3403,-1.3403,-1.3403,-1.3403,-1.3403,-1.3403,-1.3403,-1.3403,-1.3403,-1.3403,-1.3403,-1.3403,-1.3403,-1.3403,-1.3403,-1.3403,-1.3403,-1.3403,-1.3403,-1.3403,-1.3403,-1.3403,-1.3403,-1.3403,-1.3403,-1.3403,-1.3403,-1.3403,-1.3403,-1.3403,-1.3403,-1.3403,-1.3403,-1.3403,-1.3403,-1.3403,-1.3403,-1.3403,-1.3403,-1.3403,-1.3403,-1.3403,-1.3403,-1.3403,-1.3403,-1.3403,-1.3403,-1.3403,-1.3403,-1.3403,-1.3403,-1.3403,-1.3403,-1.3403,-1.3403,-1.3403,-1.3403,-1.3397,-1.3397,-1.3397,-1.339,-1.339,-1.339,-1.3282,-1.3207,-1.32,-1.3064,-1.3003,-1.7204,-1.5654,-1.4164,-1.1714,-1.1159,-1.1227,-1.1329,-1.1314,-1.1396,-1.1665,-1.2882,-1.3995,-1.4243,-1.4356,-1.4514,-1.4704,-1.3717,-1.2935,-1.3118,-1.3227,-1.3322,-1.3322,-1.337,-1.3403,-1.3403,-1.3403,-1.3403,-1.3403,-1.3403,-1.3403,-1.3403,-1.3403,-1.3403,-1.3403,-1.3403,-1.3403,-1.3403,-1.3403,-1.3403,-1.3403,-1.3403,-1.3403,-1.3403,-1.3403,-1.3403,-1.3403,-1.3403,-1.3403,-1.3403,-1.3403,-1.3403,-1.3403,-1.3403,-1.3403,-1.3403,-1.3403,-1.3403,-1.3403,-1.3403,-1.3403,-1.3403,-1.3403,-1.3403,-1.3403,-1.3403,-1.3403,-1.3403,-1.3403,-1.3403,-1.3403,-1.3403,-1.3403,-1.3403,-1.3403,-1.3403,-1.3403,-1.3403,-1.3403,-1.3403,-1.3403,-1.3403,-1.3403,-1.3403,-1.3403,-1.3403,-1.3403,-1.3403,-1.3403,-1.3403,-1.3403,-1.3403,-1.3403,-1.3403,-1.3403,-1.3403,-1.3403,-1.3403,-1.3403,-1.3403,-1.3403,-1.3403,-1.3403,-1.3403,-1.3403,-1.3403,-1.3403,-1.3403,-1.3349,-1.3322,-1.3322,-1.3275,-1.3254,-1.6416,-1.4913,-1.3575,-1.174,-1.1322,-1.1355,-1.145,-1.1511,-1.1828,-1.2765,-1.4154,-1.544,-1.6336,-1.5949,-1.5816,-1.6853,-1.5398,-1.4216,-1.439,-1.4474,-1.4259,-1.348,-1.3403,-1.3403,-1.3403,-1.3403,-1.3403,-1.3403,-1.3403,-1.3403,-1.3403,-1.3403,-1.3403,-1.3403,-1.3403,-1.3403,-1.3403,-1.3403,-1.3403,-1.3403,-1.3403,-1.3403,-1.3403,-1.3403,-1.3403,-1.3403,-1.3403,-1.3403,-1.3403,-1.3403,-1.3403,-1.3403,-1.3403,-1.3403,-1.3403,-1.3403,-1.3403,-1.3403,-1.3403,-1.3403,-1.3403,-1.3403,-1.3403,-1.3403,-1.3403,-1.3403,-1.3403,-1.3403,-1.3403,-1.3403,-1.3403,-1.3403,-1.3403,-1.3403,-1.3403,-1.3403,-1.3403,-1.3403,-1.3403,-1.3403,-1.3403,-1.3403,-1.3403,-1.3403,-1.3403,-1.3403,-1.3403,-1.3403,-1.3403,-1.3403,-1.3403,-1.3403,-1.3403,-1.3403,-1.3403,-1.3403,-1.3403,-1.3403,-1.3403,-1.3403,-1.3403,-1.3403,-1.3403,-1.3403,-1.3403,-1.3403,-1.3403,-1.3403,-1.3403,-1.3403,-1.3403,-1.3403,-1.5215,-1.4226,-1.3795,-1.1889,-1.1582,-1.1727,-1.1727,-1.1939,-1.2699,-1.4809,-1.5423,-1.6234,-1.8371,-1.7056,-1.6428,-1.8807,-1.7432,-1.6153,-1.6392,-1.6442,-1.5679,-1.3645,-1.3403,-1.3403,-1.3403,-1.3403,-1.3403,-1.3403,-1.3403,-1.3403,-1.3403,-1.3403,-1.3403,-1.3403,-1.3403,-1.3403,-1.3403,-1.3403,-1.3403,-1.3403,-1.3403,-1.3403,-1.3403,-1.3403,-1.3403,-1.3403,-1.3403,-1.3403,-1.3403,-1.3403,-1.3403,-1.3403,-1.3403,-1.3403,-1.3403,-1.3403,-1.3403,-1.3403,-1.3403,-1.3403,-1.3403,-1.3403,-1.3403,-1.3403,-1.3403,-1.3403,-1.3403,-1.3403,-1.3403,-1.3403,-1.3403,-1.3403,-1.3403,-1.3403,-1.3403,-1.3403,-1.3403,-1.3403,-1.3403,-1.3403,-1.3403,-1.3403,-1.3403,-1.341,-1.341,-1.341,-1.3417,-1.3417,-1.3403,-1.3403,-1.3403,-1.3403,-1.3403,-1.3403,-1.3403,-1.3403,-1.3403,-1.3403,-1.3403,-1.3403,-1.3403,-1.3403,-1.3403,-1.3403,-1.3403,-1.3403,-1.3403,-1.3403,-1.3403,-1.3403,-1.3403,-1.3403,-1.462,-1.3342,-1.2173,-1.1679,-1.2644,-1.3694,-1.3694,-1.4786,-1.6087,-1.6988,-1.842,-1.976,-2.0687,-1.9176,-1.8065,-1.8925,-1.6106,-1.3898,-1.4167,-1.4217,-1.4011,-1.348,-1.3403,-1.3403,-1.3403,-1.3403,-1.3403,-1.3403,-1.3403,-1.3403,-1.3403,-1.3403,-1.3403,-1.3403,-1.3403,-1.3403,-1.3403,-1.3403,-1.3403,-1.3403,-1.3403,-1.3403,-1.3403,-1.3403,-1.3403,-1.3403,-1.3403,-1.3403,-1.3403,-1.3403,-1.3403,-1.3403,-1.3403,-1.3403,-1.3403,-1.3403,-1.3403,-1.3403,-1.3403,-1.3403,-1.3403,-1.3403,-1.3403,-1.3403,-1.3403,-1.3403,-1.3403,-1.3403,-1.3403,-1.3403,-1.3403,-1.3403,-1.3403,-1.3403,-1.3403,-1.3403,-1.3403,-1.3403,-1.3403,-1.3403,-1.3403,-1.3403,-1.3403,-1.3498,-1.3531,-1.3531,-1.3619,-1.3648,-1.3431,-1.3403,-1.3403,-1.3403,-1.3403,-1.3403,-1.3403,-1.3403,-1.3403,-1.3403,-1.3403,-1.3403,-1.3403,-1.3403,-1.3403,-1.3403,-1.3403,-1.3403,-1.3403,-1.3403,-1.3403,-1.3403,-1.3403,-1.3403,-1.3381,-1.2446,-1.1678,-1.1678,-1.3138,-1.4523,-1.4523,-1.5979,-1.7673,-1.8781,-2.0104,-2.1376,-2.2534,-2.0463,-1.9018,-2.0248,-1.7047,-1.4494,-1.4777,-1.4781,-1.4458,-1.3521,-1.3403,-1.3403,-1.3403,-1.3403,-1.3403,-1.3403,-1.3403,-1.3403,-1.3403,-1.3403,-1.3403,-1.3403,-1.3403,-1.3403,-1.3403,-1.3403,-1.3403,-1.3403,-1.3403,-1.3403,-1.3403,-1.3403,-1.3403,-1.3403,-1.3403,-1.3403,-1.3403,-1.3403,-1.3403,-1.3403,-1.3403,-1.3403,-1.3403,-1.3403,-1.3403,-1.3403,-1.3403,-1.3444,-1.3492,-1.3424,-1.3403,-1.3403,-1.3403,-1.3403,-1.3403,-1.3403,-1.3403,-1.3403,-1.3403,-1.3403,-1.3403,-1.3403,-1.3403,-1.3403,-1.3403,-1.3403,-1.3417,-1.3492,-1.3553,-1.3593,-1.3593,-1.3619,-1.368,-1.368,-1.3747,-1.3741,-1.3572,-1.3593,-1.3593,-1.3593,-1.3593,-1.3566,-1.3505,-1.3498,-1.3471,-1.3403,-1.3403,-1.3403,-1.3403,-1.3403,-1.3403,-1.3403,-1.3403,-1.3403,-1.3403,-1.3403,-1.3403,-1.3403,-1.3403,-1.3403,-1.2043,-1.1685,-1.1793,-1.1793,-1.3275,-1.4756,-1.5,-1.6522,-1.8432,-2.0462,-2.1234,-2.2068,-2.3855,-2.1351,-1.9637,-2.1549,-1.8651,-1.6185,-1.6188,-1.6164,-1.5473,-1.3604,-1.3403,-1.3403,-1.3403,-1.3403,-1.3403,-1.3403,-1.3403,-1.3403,-1.3403,-1.3403,-1.3403,-1.3403,-1.3403,-1.3403,-1.3403,-1.3403,-1.3403,-1.3403,-1.3403,-1.3403,-1.3403,-1.3403,-1.3403,-1.3403,-1.3403,-1.3403,-1.3403,-1.3403,-1.3403,-1.3403,-1.3424,-1.3431,-1.3437,-1.3451,-1.3458,-1.3458,-1.3458,-1.3546,-1.3592,-1.3478,-1.3444,-1.3458,-1.3458,-1.3458,-1.3458,-1.3458,-1.3458,-1.3458,-1.3458,-1.3458,-1.3458,-1.3458,-1.3458,-1.3458,-1.3458,-1.3458,-1.3498,-1.3592,-1.3714,-1.3795,-1.3795,-1.3815,-1.3829,-1.3829,-1.3842,-1.3862,-1.3862,-1.3822,-1.3795,-1.3795,-1.3795,-1.3747,-1.3626,-1.3612,-1.3551,-1.3444,-1.3431,-1.3424,-1.3403,-1.3403,-1.3403,-1.3403,-1.3403,-1.3403,-1.3403,-1.3403,-1.3403,-1.3403,-1.3403,-1.3403,-1.1691,-1.1685,-1.1793,-1.1793,-1.3275,-1.5109,-1.6649,-1.8396,-2.025,-2.2374,-2.3085,-2.3507,-2.4083,-2.2485,-2.0736,-1.9743,-1.7581,-1.5553,-1.4167,-1.3969,-1.3804,-1.3445,-1.3403,-1.3403,-1.3403,-1.3403,-1.3403,-1.3403,-1.3403,-1.3403,-1.3403,-1.3403,-1.3403,-1.3403,-1.3403,-1.3403,-1.3403,-1.3403,-1.3403,-1.3403,-1.3403,-1.3403,-1.3403,-1.3403,-1.3403,-1.3403,-1.3403,-1.3403,-1.3403,-1.3403,-1.3403,-1.341,-1.3539,-1.3587,-1.3565,-1.368,-1.372,-1.372,-1.372,-1.3741,-1.3741,-1.3592,-1.3626,-1.372,-1.372,-1.372,-1.372,-1.372,-1.372,-1.372,-1.372,-1.372,-1.372,-1.372,-1.372,-1.372,-1.372,-1.372,-1.3727,-1.3754,-1.3781,-1.3795,-1.3795,-1.3946,-1.4034,-1.4034,-1.4143,-1.4217,-1.4217,-1.3957,-1.3795,-1.3795,-1.3795,-1.3788,-1.3761,-1.3761,-1.37,-1.3558,-1.3587,-1.3532,-1.3403,-1.3403,-1.3403,-1.3403,-1.3403,-1.3403,-1.3403,-1.3403,-1.3403,-1.3403,-1.3403,-1.3403,-1.1584,-1.1685,-1.1793,-1.1793,-1.3275,-1.5181,-1.707,-1.8858,-2.0653,-2.2666,-2.3327,-2.3634,-2.3928,-2.2568,-2.1193,-2.0577,-1.7938,-1.5712,-1.4942,-1.4002,-1.3403,-1.3403,-1.3403,-1.3403,-1.3403,-1.3403,-1.3403,-1.3403,-1.3403,-1.3403,-1.3403,-1.3403,-1.3403,-1.3403,-1.3403,-1.3403,-1.3403,-1.3403,-1.3403,-1.3403,-1.3403,-1.3403,-1.3403,-1.3403,-1.3403,-1.3403,-1.3403,-1.3403,-1.341,-1.3485,-1.3519,-1.3532,-1.3639,-1.3693,-1.3707,-1.3774,-1.3795,-1.3795,-1.3795,-1.3849,-1.3946,-1.3885,-1.3808,-1.3795,-1.3795,-1.3795,-1.3795,-1.3795,-1.3795,-1.3795,-1.3795,-1.3795,-1.3795,-1.3795,-1.3795,-1.3795,-1.3795,-1.3862,-1.396,-1.396,-1.4027,-1.4082,-1.4082,-1.4143,-1.419,-1.419,-1.4251,-1.4299,-1.4299,-1.417,-1.4082,-1.4082,-1.4082,-1.4048,-1.3966,-1.396,-1.3899,-1.3707,-1.3693,-1.3632,-1.3526,-1.3519,-1.3485,-1.3403,-1.3403,-1.3403,-1.3403,-1.3403,-1.3403,-1.3403,-1.3403,-1.3403,-1.1584,-1.1685,-1.1793,-1.1793,-1.2947,-1.4675,-1.6963,-1.8541,-2.0132,-2.2435,-2.3113,-2.3385,-2.375,-2.2743,-2.1834,-2.1793,-1.9282,-1.7061,-1.6311,-1.4962,-1.3928,-1.3438,-1.3403,-1.3403,-1.3403,-1.3403,-1.3403,-1.3403,-1.3403,-1.3403,-1.3403,-1.3403,-1.3403,-1.3403,-1.3403,-1.3403,-1.3403,-1.3403,-1.3403,-1.3403,-1.3403,-1.3403,-1.3403,-1.3403,-1.3403,-1.3403,-1.3403,-1.3417,-1.3458,-1.358,-1.3605,-1.3646,-1.3788,-1.3849,-1.3849,-1.3883,-1.3896,-1.3896,-1.3896,-1.4021,-1.4122,-1.4122,-1.4041,-1.3896,-1.3896,-1.3896,-1.3896,-1.3896,-1.3896,-1.3896,-1.3896,-1.3896,-1.3896,-1.3896,-1.3896,-1.3896,-1.3896,-1.4034,-1.4122,-1.4122,-1.4217,-1.4299,-1.4299,-1.4299,-1.4299,-1.4299,-1.4299,-1.4299,-1.4299,-1.4299,-1.4299,-1.4299,-1.4299,-1.4251,-1.4129,-1.4122,-1.4055,-1.3899,-1.3849,-1.3781,-1.3639,-1.3605,-1.3531,-1.3451,-1.3417,-1.3403,-1.3403,-1.3403,-1.3403,-1.3403,-1.3403,-1.3403,-1.1584,-1.1685,-1.1793,-1.1793,-1.194,-1.302,-1.6676,-1.748,-1.8508,-2.216,-2.3113,-2.3385,-2.375,-2.3864,-2.3454,-2.202,-2.1739,-2.0419,-1.6705,-1.6252,-1.5597,-1.3645,-1.3403,-1.3403,-1.3403,-1.3403,-1.3403,-1.3403,-1.3403,-1.3403,-1.3403,-1.3403,-1.3403,-1.3403,-1.3403,-1.3403,-1.3403,-1.3403,-1.3403,-1.3403,-1.3403,-1.3403,-1.3403,-1.3403,-1.3403,-1.3403,-1.3403,-1.3478,-1.3565,-1.3578,-1.366,-1.3795,-1.3987,-1.4048,-1.4112,-1.4204,-1.4258,-1.4258,-1.4258,-1.4265,-1.4278,-1.4278,-1.4272,-1.4258,-1.4258,-1.4258,-1.4258,-1.4258,-1.4258,-1.4258,-1.4258,-1.4258,-1.4258,-1.4258,-1.4258,-1.4258,-1.4258,-1.4272,-1.4278,-1.4278,-1.4292,-1.4299,-1.4299,-1.4299,-1.4299,-1.4299,-1.4299,-1.4299,-1.4299,-1.4299,-1.4299,-1.4299,-1.4299,-1.4292,-1.4278,-1.4278,-1.4211,-1.4061,-1.4048,-1.398,-1.3788,-1.3653,-1.3578,-1.3565,-1.3471,-1.3403,-1.3403,-1.3403,-1.3403,-1.3403,-1.3403,-1.3403,-1.1584,-1.1624,-1.1665,-1.1665,-1.2518,-1.4049,-1.6706,-1.8153,-1.9704,-2.2366,-2.3,-2.3193,-2.371,-2.3897,-2.3875,-2.3539,-2.2806,-2.1741,-2.0109,-1.9113,-1.7792,-1.5597,-1.5309,-1.4822,-1.3521,-1.3403,-1.3403,-1.3403,-1.3403,-1.3403,-1.3403,-1.3403,-1.3403,-1.3403,-1.3403,-1.3403,-1.3403,-1.3403,-1.3403,-1.3403,-1.3403,-1.3403,-1.3403,-1.3403,-1.3403,-1.3403,-1.3498,-1.3531,-1.3599,-1.3824,-1.3926,-1.3994,-1.415,-1.4211,-1.4217,-1.4278,-1.4299,-1.4299,-1.4299,-1.4299,-1.4299,-1.4299,-1.4299,-1.4299,-1.4299,-1.4299,-1.4299,-1.4299,-1.4299,-1.4299,-1.4299,-1.4299,-1.4299,-1.4299,-1.4299,-1.4299,-1.4299,-1.4299,-1.4299,-1.4299,-1.4299,-1.4299,-1.4299,-1.4299,-1.4299,-1.4299,-1.4299,-1.4299,-1.4299,-1.4299,-1.4299,-1.4299,-1.4299,-1.4299,-1.4299,-1.4299,-1.4272,-1.4211,-1.4211,-1.4143,-1.3987,-1.3926,-1.3851,-1.3714,-1.3572,-1.3539,-1.3539,-1.3444,-1.3403,-1.3403,-1.3403,-1.3403,-1.1584,-1.1584,-1.1584,-1.1584,-1.2996,-1.4893,-1.6756,-1.8694,-2.0617,-2.2503,-2.2893,-2.3054,-2.3541,-2.375,-2.3928,-2.4422,-2.3795,-2.3007,-2.2377,-2.1466,-2.0028,-1.7833,-1.7588,-1.6729,-1.4541,-1.3769,-1.3403,-1.3403,-1.3403,-1.3403,-1.3403,-1.3403,-1.3403,-1.3403,-1.3403,-1.3403,-1.3403,-1.3403,-1.3403,-1.3403,-1.3403,-1.3403,-1.3403,-1.3403,-1.3424,-1.3471,-1.3538,-1.3682,-1.3777,-1.3987,-1.4139,-1.415,-1.4258,-1.4299,-1.4299,-1.4299,-1.4299,-1.4299,-1.4299,-1.4299,-1.4299,-1.4299,-1.4299,-1.4299,-1.4299,-1.4299,-1.4299,-1.4299,-1.4299,-1.4299,-1.4299,-1.4299,-1.4299,-1.4299,-1.4299,-1.4299,-1.4299,-1.4299,-1.4299,-1.4299,-1.4299,-1.4299,-1.4299,-1.4299,-1.4299,-1.4299,-1.4299,-1.4299,-1.4299,-1.4299,-1.4299,-1.4299,-1.4299,-1.4299,-1.4299,-1.4299,-1.4299,-1.4299,-1.4299,-1.4251,-1.4143,-1.4139,-1.4021,-1.3869,-1.372,-1.3646,-1.3646,-1.3497,-1.3464,-1.3464,-1.3424,-1.3403,-1.1584,-1.1584,-1.1584,-1.1584,-1.2996,-1.4893,-1.6756,-1.8694,-2.0617,-2.2503,-2.2893,-2.2987,-2.3273,-2.3567,-2.391,-2.4155,-2.4906,-2.4726,-2.2621,-2.2732,-2.2287,-2.0109,-1.9866,-1.9014,-1.677,-1.4664,-1.3403,-1.3403,-1.3403,-1.3403,-1.3403,-1.3403,-1.3403,-1.3403,-1.3403,-1.3403,-1.3403,-1.3403,-1.3403,-1.3403,-1.3403,-1.3403,-1.3403,-1.3403,-1.3485,-1.3585,-1.3585,-1.3797,-1.4112,-1.4112,-1.4163,-1.4299,-1.4299,-1.4299,-1.4299,-1.4299,-1.4299,-1.4299,-1.4299,-1.4299,-1.4299,-1.4299,-1.4299,-1.4299,-1.4299,-1.4299,-1.4299,-1.4299,-1.4299,-1.4299,-1.4299,-1.4299,-1.4299,-1.4299,-1.4299,-1.4299,-1.4299,-1.4299,-1.4299,-1.4299,-1.4299,-1.4299,-1.4299,-1.4299,-1.4299,-1.4299,-1.4299,-1.4299,-1.4299,-1.4299,-1.4299,-1.4299,-1.4299,-1.4299,-1.4299,-1.4299,-1.4299,-1.4299,-1.4299,-1.4299,-1.4299,-1.415,-1.4119,-1.4112,-1.3919,-1.3795,-1.3795,-1.3653,-1.3585,-1.3578,-1.3471,-1.3403,-1.1584,-1.2538,-1.3515,-1.3515,-1.591,-1.8438,-1.9043,-2.0652,-2.2194,-2.2791,-2.2893,-2.2987,-2.3238,-2.3567,-2.3897,-2.4155,-2.4943,-2.5275,-2.4572,-2.3702,-2.2287,-2.015,-1.727,-1.5193,-1.4499,-1.3811,-1.3403,-1.3403,-1.3403,-1.3403,-1.3403,-1.3403,-1.3403,-1.3403,-1.3403,-1.3403,-1.3403,-1.3403,-1.3403,-1.3403,-1.3403,-1.3403,-1.3403,-1.3512,-1.3545,-1.3599,-1.3844,-1.3987,-1.4125,-1.4183,-1.4258,-1.4299,-1.4299,-1.4299,-1.4299,-1.4299,-1.4299,-1.4299,-1.4299,-1.4299,-1.4299,-1.4299,-1.4299,-1.4299,-1.4299,-1.4299,-1.4299,-1.4299,-1.4299,-1.4299,-1.4299,-1.4299,-1.4299,-1.4299,-1.4299,-1.4299,-1.4299,-1.4299,-1.4299,-1.4299,-1.4299,-1.4299,-1.4299,-1.4299,-1.4299,-1.4299,-1.4299,-1.4299,-1.4299,-1.4299,-1.4299,-1.4299,-1.4299,-1.4299,-1.4299,-1.4299,-1.4299,-1.4299,-1.4299,-1.4299,-1.4299,-1.4251,-1.4231,-1.4231,-1.4075,-1.4,-1.4,-1.3802,-1.3734,-1.3727,-1.3585,-1.3559,-1.1584,-1.2466,-1.3515,-1.4219,-1.6721,-1.9217,-1.9912,-2.1562,-2.2893,-2.2893,-2.2893,-2.2987,-2.3238,-2.3567,-2.3897,-2.4155,-2.4943,-2.5237,-2.4419,-2.3611,-2.2287,-2.015,-1.6779,-1.4623,-1.4623,-1.3894,-1.3403,-1.3403,-1.3403,-1.3403,-1.3403,-1.3403,-1.3403,-1.3403,-1.3403,-1.3403,-1.3403,-1.3403,-1.3403,-1.3403,-1.3403,-1.3431,-1.3492,-1.3545,-1.3688,-1.3804,-1.3994,-1.4146,0.0,-1.4265,-1.4299,-1.4299,-1.4299,-1.4299,-1.4299,-1.4299,-1.4299,-1.4299,-1.4299,-1.4299,-1.4299,-1.4299,-1.4299,-1.4299,-1.4299,-1.4299,-1.4299,-1.4299,-1.4299,-1.4299,-1.4299,-1.4299,-1.4299,-1.4299,-1.4299,-1.4299,-1.4299,-1.4299,-1.4299,-1.4299,-1.4299,-1.4299,-1.4299,-1.4299,-1.4299,-1.4299,-1.4299,-1.4299,-1.4299,-1.4299,-1.4299,-1.4299,-1.4299,-1.4299,-1.4299,-1.4299,-1.4299,-1.4299,-1.4299,-1.4299,-1.4299,-1.4299,-1.4299,-1.4299,-1.4204,-1.42,-1.42,-1.4,-1.3856,-1.3795,-1.28,-1.2331,0.0,-1.1691,-1.2216,-1.397,-1.591,-1.7879,-1.9704,-2.1459,0.0,-2.2859,-2.2791,-2.2815,-2.3238,-2.3461,-2.3718,-2.4119,-2.4668,-2.4419,-2.257,-2.2495,-2.1845,-1.9704,-1.7629,-1.636,-1.636,-1.4582,-1.3403,-1.3403,-1.3403,-1.3403,-1.3403,-1.3403,-1.3403,-1.3403,-1.3403,-1.3403,-1.3403,-1.3403,-1.3403,-1.3403,-1.341,-1.3492,-1.3585,-1.3605,-1.381,-1.4119,-1.4125,-1.417,-1.4299,-1.4299,-1.4299,-1.4299,-1.4299,-1.4299,-1.4299,-1.4299,-1.4299,-1.4299,-1.4299,-1.4299,-1.4299,-1.4299,-1.4299,-1.4299,-1.4299,-1.4299,-1.4299,-1.4299,-1.4299,-1.4299,-1.4299,-1.4299,-1.4299,-1.4299,-1.4299,-1.4299,-1.4299,-1.4299,-1.4299,-1.4299,-1.4299,-1.4299,-1.4299,-1.4299,-1.4299,-1.4299,-1.4299,-1.4299,-1.4299,-1.4299,-1.4299,-1.4299,-1.4299,-1.4299,-1.4299,-1.4299,-1.4299,-1.4299,-1.4299,-1.4299,-1.4299,-1.4299,-1.4299,-1.4299,-1.4299,-1.4299,-1.4299,-1.4156,-1.3927,-1.3528,-1.1515,-1.0386,-1.1584,0.0,-1.3836,-1.429,-1.6932,-1.953,0.0,-2.0444,-2.1183,-2.2619,-2.1769,-2.1269,-2.2981,-2.2254,-2.2051,-2.3902,-2.2212,-2.1074,-2.2144,-1.9893,-1.7343,-1.5193,-1.4458,-1.4135,-1.4135,-1.3687,-1.3403,-1.3403,-1.3403,-1.3403,-1.3403,-1.3403,-1.3403,-1.3403,-1.3403,-1.3403,-1.3403,-1.3403,-1.3403,-1.3403,-1.3519,-1.3551,-1.3592,-1.3865,-1.405,-1.4125,-1.4197,-1.4265,-1.4299,-1.4299,-1.4299,-1.4299,-1.4299,-1.4299,-1.4299,-1.4299,-1.4299,-1.4299,-1.4299,-1.4299,-1.4299,-1.4299,-1.4299,-1.4299,-1.4299,-1.4299,-1.4299,-1.4299,-1.4299,-1.4299,-1.4299,-1.4299,-1.4299,-1.4299,-1.4299,-1.4299,-1.4299,-1.4299,-1.4299,-1.4299,-1.4299,-1.4299,-1.4299,-1.4299,-1.4299,-1.4299,-1.4299,-1.4299,-1.4299,-1.4299,-1.4299,-1.4299,-1.4299,-1.4299,-1.4299,-1.4299,-1.4299,-1.4299,-1.4299,-1.4299,-1.4299,-1.4299,-1.4299,-1.4299,-1.4299,-1.4299,-1.4299,-1.4265,-1.3287,-1.1478,-1.2661,-1.1248,-1.1584,-1.2323,-1.3309,-1.4183,-1.5945,-1.7949,-1.9704,-1.9426,-1.9321,-2.1217,-2.0922,-2.038,-2.0746,-2.0874,-2.1095,-2.1619,-2.0282,-1.931,-1.9632,-1.7048,-1.4698,-1.3521,-1.3403,-1.3403,-1.3403,-1.3403,-1.3403,-1.3403,-1.3403,-1.3403,-1.3403,-1.3403,-1.3403,-1.3403,-1.3403,-1.3403,-1.3403,-1.3403,-1.3437,-1.3505,-1.3587,-1.3702,-1.3838,-1.4,-1.4109,-1.4183,-1.4265,-1.4299,-1.4299,-1.4299,-1.4299,-1.4299,-1.4299,-1.4299,-1.4299,-1.4299,-1.4299,-1.4299,-1.4299,-1.434,-1.4394,-1.4394,-1.4441,-1.4502,-1.4502,-1.4502,-1.4475,-1.434,-1.4299,-1.4299,-1.4299,-1.4299,-1.4299,-1.4299,-1.4299,-1.4299,-1.4299,-1.4299,-1.4299,-1.4299,-1.4299,-1.4299,-1.4299,-1.4299,-1.4299,-1.4299,-1.4299,-1.4299,-1.4299,-1.4299,-1.4299,-1.4299,-1.4299,-1.4299,-1.4299,-1.4299,-1.4299,-1.4299,-1.4299,-1.4299,-1.4299,-1.4299,-1.4299,-1.4299,-1.4299,-1.4299,-1.4299,-1.3179,-1.1971,-1.0668,-0.9719,-0.7883,-1.1584,-1.1584,-1.1972,-1.3587,-1.4183,-1.5239,-1.8508,-1.7949,-1.7328,-1.9297,-1.9642,-1.9264,-1.8124,-1.9221,-1.9958,-1.895,-1.8768,-1.8123,-1.636,-1.4541,-1.3403,-1.3403,-1.3403,-1.3403,-1.3403,-1.3403,-1.3403,-1.3403,-1.3403,-1.3403,-1.3403,-1.3403,-1.3403,-1.3403,-1.3403,-1.3403,-1.3403,-1.3403,-1.3478,-1.3585,-1.3605,-1.3804,-1.4119,-1.4139,-1.4177,-1.4299,-1.4299,-1.4299,-1.4299,-1.4299,-1.4299,-1.4299,-1.4299,-1.4299,-1.4299,-1.4299,-1.4299,-1.4306,-1.4326,-1.4428,-1.455,-1.455,-1.4586,-1.4694,-1.4694,-1.4694,-1.464,-1.4434,-1.4367,-1.4367,-1.4367,-1.4367,-1.436,-1.434,-1.4333,-1.4326,-1.4306,-1.4299,-1.4299,-1.4299,-1.4299,-1.4299,-1.4299,-1.4299,-1.4299,-1.4299,-1.4299,-1.4299,-1.4299,-1.4299,-1.4299,-1.4299,-1.4299,-1.4299,-1.4299,-1.4299,-1.4299,-1.4299,-1.4299,-1.4299,-1.4299,-1.4299,-1.4122,-1.3761,-1.3761,-1.3584,-1.3224,-1.1161,-0.9957,-0.9513,-0.5856,-0.3759,-1.1584,-1.1584,-1.1655,-1.1972,-1.3202,-1.4539,-1.5132,-1.5026,-1.539,-1.748,-1.6656,-1.6085,-1.7775,-1.6954,-1.6625,-1.849,-1.7599,-1.6007,-1.4147,-1.3604,-1.3403,-1.3403,-1.3403,-1.3403,-1.3403,-1.3403,-1.3403,-1.3403,-1.3403,-1.3403,-1.3403,-1.3403,-1.3403,-1.3403,-1.3403,-1.3403,-1.3403,-1.3403,-1.3478,-1.3592,-1.3707,-1.3899,-1.4119,-1.4204,-1.4278,-1.4299,-1.4299,-1.4299,-1.4299,-1.4299,-1.4299,-1.4299,-1.4299,-1.4299,-1.4299,-1.4299,-1.4299,-1.4319,-1.4434,-1.4577,-1.466,-1.466,-1.4674,-1.4694,-1.4694,-1.4694,-1.4687,-1.464,-1.4626,-1.4626,-1.4626,-1.4626,-1.4593,-1.4509,-1.4482,-1.4448,-1.4326,-1.4299,-1.4299,-1.4299,-1.4299,-1.4299,-1.4299,-1.4299,-1.4299,-1.4299,-1.4299,-1.4299,-1.4299,-1.4299,-1.4299,-1.4299,-1.4299,-1.4299,-1.4299,-1.4299,-1.4299,-1.4299,-1.4299,-1.4299,-1.4299,-1.4299,-1.3356,-1.13,-1.125,-1.0268,-0.8219,-0.7818,-0.6611,-0.474,-0.599,-0.4383,-1.1584,-1.1584,-1.1584,-1.1584,-1.2252,-1.319,-1.4316,-1.3766,-1.3597,-1.5686,-1.5518,-1.5029,-1.4981,-1.5248,-1.5537,-1.5748,-1.515,-1.4377,-1.3514,-1.3403,-1.3403,-1.3403,-1.3403,-1.3403,-1.3403,-1.3403,-1.3403,-1.3403,-1.3403,-1.3403,-1.3403,-1.3403,-1.3403,-1.3403,-1.3403,-1.3403,-1.3403,-1.3485,-1.36,-1.37,-1.3892,-1.4048,-1.4197,-1.4272,-1.4299,-1.4299,-1.4299,-1.4299,-1.4299,-1.4299,-1.4299,-1.4299,-1.4299,-1.4299,-1.4306,-1.4387,-1.4468,-1.4498,-1.4611,-1.4733,-1.4862,-1.4862,-1.4916,-1.4977,-1.4977,-1.4977,-1.4977,-1.4977,-1.4816,-1.4694,-1.4694,-1.4694,-1.4674,-1.4606,-1.457,-1.4496,-1.4428,-1.4353,-1.4299,-1.4299,-1.4299,-1.4299,-1.4299,-1.4299,-1.4299,-1.4299,-1.4299,-1.4299,-1.4299,-1.4299,-1.4299,-1.4299,-1.4299,-1.4299,-1.4299,-1.4299,-1.4299,-1.4299,-1.4299,-1.4299,-1.4299,-1.304,-1.1832,-1.0717,-0.9424,-0.8219,-0.7102,-0.5811,-0.4651,-0.358,-0.3356,-0.2106,-1.1584,-1.1584,-1.159,-1.1624,-1.1631,-1.2056,-1.3644,-1.2912,-1.233,-1.395,-1.449,-1.4181,-1.2685,-1.3941,-1.4757,-1.3416,-1.3302,-1.3403,-1.3403,-1.3403,-1.3403,-1.3403,-1.3403,-1.3403,-1.3403,-1.3403,-1.3403,-1.3403,-1.3403,-1.3403,-1.3403,-1.3403,-1.3403,-1.3403,-1.3403,-1.3403,-1.3403,-1.3545,-1.3693,-1.3802,-1.3994,-1.415,-1.4299,-1.4299,-1.4299,-1.4299,-1.4299,-1.4299,-1.4299,-1.4299,-1.4299,-1.4299,-1.4299,-1.4319,-1.4367,-1.4509,-1.4665,-1.4748,-1.4748,-1.4896,-1.5064,-1.5064,-1.5139,-1.5181,-1.5181,-1.5181,-1.5181,-1.5181,-1.5018,-1.4796,-1.4796,-1.4796,-1.4789,-1.4801,-1.4706,-1.4611,-1.457,-1.4448,-1.4346,-1.4346,-1.4326,-1.4299,-1.4299,-1.4299,-1.4299,-1.4299,-1.4299,-1.4299,-1.4299,-1.4299,-1.4299,-1.4299,-1.4299,-1.4299,-1.4299,-1.4299,-1.4299,-1.4299,-1.4299,-1.4299,-1.4299,-1.1971,-1.0446,-0.9869,-0.7506,-0.5987,-0.5454,-0.3625,-0.2776,-0.2731,-0.0852,0.0,-1.1584,-1.1584,-1.1617,-1.1746,-1.178,-1.1816,-1.1969,-1.2049,-1.2162,-1.2426,-1.2616,-1.2683,-1.2671,-1.3062,-1.3349,-1.3207,-1.3302,-1.3403,-1.3403,-1.3403,-1.3403,-1.3403,-1.3403,-1.3403,-1.3403,-1.3403,-1.3403,-1.3403,-1.3403,-1.3403,-1.3403,-1.3403,-1.3403,-1.3403,-1.3403,-1.3403,-1.3403,-1.3639,-1.3788,-1.3802,-1.3994,-1.415,-1.4299,-1.4299,-1.4299,-1.4299,-1.4299,-1.4299,-1.4299,-1.4299,-1.4299,-1.4299,-1.4299,-1.438,-1.4516,-1.462,-1.4821,-1.5003,-1.5003,-1.5052,-1.5167,-1.5167,-1.5174,-1.5181,-1.5181,-1.5181,-1.5181,-1.5181,-1.5167,-1.5153,-1.5153,-1.5153,-1.512,-1.503,-1.4989,-1.4896,-1.4708,-1.4559,-1.4496,-1.4496,-1.4387,-1.4299,-1.4299,-1.4299,-1.4299,-1.4299,-1.4299,-1.4299,-1.4299,-1.4299,-1.4299,-1.4299,-1.4299,-1.4299,-1.4299,-1.4299,-1.4299,-1.4299,-1.4299,-1.4299,-1.4299,-1.1971,-0.9646,-0.7413,-0.5053,-0.2731,-0.0494,-0.0359,-0.0269,-0.0269,-0.009,0.0,-1.1584,-1.1584,-1.1617,-1.1759,-1.1904,-1.1999,-1.2094,-1.2162,-1.2271,-1.2515,-1.261,-1.2718,-1.2963,-1.3098,-1.3248,-1.3302,-1.3363,-1.3403,-1.3403,-1.3403,-1.3403,-1.3403,-1.3403,-1.3403,-1.3403,-1.3403,-1.3403,-1.3403,-1.3403,-1.3403,-1.3403,-1.3403,-1.3403,-1.3403,-1.3403,-1.3444,-1.3497,-1.37,-1.3842,-1.3987,-1.4143,-1.4245,-1.4299,-1.4299,-1.4299,-1.4299,-1.4299,-1.4299,-1.4299,-1.4299,-1.4299,-1.4306,-1.4394,-1.4584,-1.4808,-1.4862,-1.4977,-1.5106,-1.5106,-1.514,-1.5181,-1.5181,-1.5181,-1.5181,-1.5181,-1.5181,-1.5181,-1.5181,-1.5181,-1.5181,-1.5181,-1.5181,-1.5167,-1.516,-1.5078,-1.5003,-1.4896,-1.476,-1.4606,-1.4606,-1.4536,-1.4434,-1.4434,-1.436,-1.4299,-1.4299,-1.4299,-1.4299,-1.4299,-1.4299,-1.4299,-1.4299,-1.4299,-1.4299,-1.4299,-1.4299,-1.4299,-1.4299,-1.4299,-1.4299,-1.4299,-1.0535,-0.804,-0.7102,-0.3312,-0.0897,0.0,0.0,0.0,0.0,0.0,0.0,-1.1584,-1.1617,-1.1685,-1.1864,-1.202,-1.2227,-1.2386,-1.2427,-1.2488,-1.2645,-1.2767,-1.2949,-1.32,-1.3247,-1.3281,-1.3383,-1.3403,-1.3403,-1.3403,-1.3403,-1.3403,-1.3403,-1.3403,-1.3403,-1.3403,-1.3403,-1.3403,-1.3403,-1.3403,-1.3403,-1.3403,-1.3403,-1.3403,-1.3403,-1.3403,-1.3471,-1.3585,-1.3727,-1.3919,-1.4119,-1.4224,-1.4299,-1.4299,-1.4299,-1.4299,-1.4299,-1.4299,-1.4299,-1.4299,-1.4299,-1.4326,-1.4387,-1.4584,-1.4787,-1.5023,-1.5071,-1.5099,-1.5181,-1.5181,-1.5181,-1.5181,-1.5181,-1.5181,-1.5181,-1.5181,-1.5181,-1.5181,-1.5181,-1.5181,-1.5181,-1.5181,-1.5181,-1.5181,-1.5181,-1.5106,-1.5038,-1.5038,-1.4916,-1.4814,-1.4814,-1.4692,-1.4539,-1.4539,-1.4462,-1.4367,-1.4367,-1.4326,-1.4299,-1.4299,-1.4299,-1.4299,-1.4299,-1.4299,-1.4299,-1.4299,-1.4299,-1.4299,-1.4299,-1.3584,-1.3496,-1.4255,-0.9646,-0.7102,-0.7102,-0.2419,0.0,0.0,-0.0762,-0.0762,0.0,-0.0762,-0.1121,-1.1584,-1.1685,-1.187,-1.2064,-1.222,-1.2372,-1.2625,-1.2693,-1.2693,-1.2693,-1.2969,-1.322,-1.337,-1.3403,-1.3403,-1.3403,-1.3403,-1.3403,-1.3403,-1.3403,-1.3403,-1.3403,-1.3403,-1.3403,-1.3403,-1.3403,-1.3403,-1.3403,-1.3403,-1.3403,-1.3403,-1.3403,-1.3403,-1.3403,-1.3403,-1.3471,-1.3585,-1.3727,-1.3919,-1.4119,-1.4231,-1.4299,-1.4299,-1.4299,-1.4299,-1.4299,-1.4299,-1.4299,-1.4299,-1.4299,-1.4387,-1.455,-1.4855,-1.5017,-1.5037,-1.5133,-1.5181,-1.5181,-1.5181,-1.5181,-1.5181,-1.5181,-1.5181,-1.5181,-1.5181,-1.5181,-1.5181,-1.5181,-1.5181,-1.5181,-1.5181,-1.5181,-1.5181,-1.5181,-1.5181,-1.5181,-1.5181,-1.5119,-1.5017,-1.5017,-1.4848,-1.4694,-1.4694,-1.4572,-1.4516,-1.4516,-1.4394,-1.4299,-1.4299,-1.4299,-1.4299,-1.4299,-1.4299,-1.4299,-1.4299,-1.4299,-1.4255,-1.4255,-1.2015,-1.1743,-1.421,-0.9646,-0.7057,-0.7102,-0.2419,0.0,0.0,-0.2419,-0.2374,-0.009,-0.2507,-0.3625,-1.1705,-1.1759,-1.1861,-1.2155,-1.2332,-1.2488,-1.2645,-1.2693,-1.2786,-1.2996,-1.32,-1.3349,-1.339,-1.3403,-1.3403,-1.3403,-1.3403,-1.3403,-1.3403,-1.3403,-1.3403,-1.3403,-1.3403,-1.3403,-1.3403,-1.3403,-1.3403,-1.3403,-1.3403,-1.3403,-1.3403,-1.3403,-1.3403,-1.3403,-1.3403,-1.3519,-1.3734,-1.3774,-1.393,-1.4231,-1.4278,-1.4299,-1.4299,-1.4299,-1.4299,-1.4299,-1.4299,-1.4299,-1.4306,-1.4407,-1.4604,-1.4841,-1.4983,-1.5078,-1.5173,-1.5167,-1.5181,-1.5181,-1.5181,-1.5181,-1.5181,-1.5181,-1.5181,-1.5181,-1.5181,-1.5181,-1.5181,-1.5181,-1.5181,-1.5181,-1.5181,-1.5181,-1.5181,-1.5181,-1.5181,-1.5181,-1.5181,-1.5147,-1.512,-1.512,-1.5004,-1.4903,-1.4903,-1.4774,-1.4626,-1.4626,-1.4543,-1.4414,-1.4312,-1.4299,-1.4299,-1.4299,-1.4299,-1.4299,-1.4299,-1.273,-1.1788,-1.1788,-0.9513,-1.0002,-1.4122,-0.8085,-0.541,-0.7057,-0.2419,0.0,0.0,-0.2419,-0.3224,-0.2597,-0.4963,-0.6079,-1.1884,-1.1965,-1.206,-1.2244,-1.244,-1.2651,-1.2861,-1.2908,-1.2976,-1.3214,-1.3336,-1.3403,-1.3403,-1.3403,-1.3403,-1.3403,-1.3403,-1.3403,-1.3403,-1.3403,-1.3403,-1.3403,-1.3403,-1.3403,-1.3403,-1.3403,-1.3403,-1.3403,-1.3403,-1.3403,-1.3403,-1.3403,-1.3403,-1.3403,-1.3458,-1.3558,-1.3795,-1.3899,-1.4055,-1.4299,-1.4299,-1.4299,-1.4299,-1.4299,-1.4299,-1.4299,-1.4299,-1.4333,-1.4394,-1.4543,-1.4746,-1.5023,-1.5078,-1.5106,-1.5181,-1.5181,-1.5181,-1.5181,-1.5181,-1.5181,-1.5181,-1.5181,-1.5181,-1.5181,-1.5181,-1.5181,-1.5181,-1.5181,-1.5181,-1.5181,-1.5181,-1.5181,-1.5181,-1.5181,-1.5181,-1.5181,-1.5181,-1.5181,-1.5181,-1.5181,-1.5113,-1.5105,-1.5105,-1.493,-1.4835,-1.4835,-1.4699,-1.455,-1.4401,-1.4387,-1.436,-1.4306,-1.4299,-1.4299,-1.4299,-1.2952,-1.2148,-1.2148,-0.8975,-0.9242,-1.4122,-0.7417,-0.4695,-0.7057,-0.2419,-0.0942,-0.2821,-0.4295,-0.5008,-0.5053,-0.7413,-0.853,-1.2077,-1.222,-1.2291,-1.2305,-1.2528,-1.2827,-1.3125,-1.3234,-1.3234,-1.337,-1.3403,-1.3403,-1.3403,-1.3403,-1.3403,-1.3403,-1.3403,-1.3403,-1.3403,-1.3403,-1.3403,-1.3403,-1.3403,-1.3403,-1.3403,-1.3403,-1.3403,-1.3403,-1.3403,-1.3403,-1.3403,-1.3403,-1.3403,-1.3403,-1.3553,-1.3653,-1.3795,-1.3994,-1.415,-1.4299,-1.4299,-1.4299,-1.4299,-1.4299,-1.4299,-1.4299,-1.4312,-1.4401,-1.4543,-1.4654,-1.4848,-1.5051,-1.5133,-1.5181,-1.5181,-1.5181,-1.5181,-1.5181,-1.5181,-1.5181,-1.5181,-1.5181,-1.5181,-1.5181,-1.5181,-1.5181,-1.5181,-1.5181,-1.5181,-1.5181,-1.5181,-1.5181,-1.5181,-1.5181,-1.5181,-1.5181,-1.5181,-1.5181,-1.5181,-1.5181,-1.5181,-1.5181,-1.5181,-1.5119,-1.503,-1.5017,-1.4848,-1.466,-1.455,-1.4529,-1.4482,-1.4353,-1.434,-1.434,-1.434,-1.4162,-1.3934,-1.3712,-0.9585,-0.8911,-1.2855,-0.6755,-0.4472,-0.7057,-0.2644,-0.2378,-0.6442,-0.7118,-0.7345,-0.7211,-0.9852,-1.1054,-1.2234,-1.2264,-1.2318,-1.2427,-1.2684,-1.303,-1.3281,-1.3349,-1.3363,-1.3397,-1.3403,-1.3403,-1.3403,-1.3403,-1.3403,-1.3403,-1.3403,-1.3403,-1.3403,-1.3403,-1.3403,-1.3403,-1.3403,-1.3403,-1.3403,-1.3403,-1.3403,-1.3403,-1.3403,-1.3403,-1.3403,-1.3403,-1.3403,-1.3403,-1.3553,-1.3653,-1.3795,-1.3994,-1.415,-1.4299,-1.4299,-1.4299,-1.4299,-1.4299,-1.4299,-1.4306,-1.4421,-1.455,-1.466,-1.4855,-1.5004,-1.514,-1.5167,-1.5181,-1.5181,-1.5181,-1.5181,-1.5181,-1.5181,-1.5181,-1.5181,-1.5181,-1.5181,-1.5181,-1.5181,-1.5181,-1.5181,-1.5181,-1.5181,-1.5181,-1.5181,-1.5181,-1.5181,-1.5181,-1.5181,-1.5181,-1.5181,-1.5181,-1.5181,-1.5181,-1.5181,-1.5181,-1.5181,-1.516,-1.5099,-1.5037,-1.4943,-1.4869,-1.4667,-1.4647,-1.4633,-1.4606,-1.4599,-1.4599,-1.4599,-1.2948,-1.1023,-0.9011,-0.8004,-0.6181,-0.3212,-0.1582,-0.2776,-0.7012,-0.4375,-0.2494,-0.1543,-0.7429,-0.9284,-0.7457,-1.1801,-1.3803,-1.2352,-1.2393,-1.2447,-1.2664,-1.288,-1.3077,-1.3336,-1.3403,-1.3403,-1.3403,-1.3403,-1.3403,-1.3403,-1.3403,-1.3403,-1.3403,-1.3403,-1.3403,-1.3403,-1.3403,-1.3403,-1.3403,-1.3403,-1.3403,-1.3403,-1.3403,-1.3403,-1.3403,-1.3403,-1.3403,-1.3403,-1.3403,-1.3437,-1.3505,-1.3612,-1.3761,-1.3946,-1.4102,-1.4224,-1.4299,-1.4299,-1.4299,-1.4299,-1.4299,-1.434,-1.4407,-1.4482,-1.4638,-1.4855,-1.4936,-1.5098,-1.5181,-1.5181,-1.5181,-1.5181,-1.5181,-1.5181,-1.5181,-1.5181,-1.5181,-1.5181,-1.5181,-1.5181,-1.5181,-1.5181,-1.5181,-1.5181,-1.5181,-1.5181,-1.5181,-1.5181,-1.5181,-1.5181,-1.5181,-1.5181,-1.5181,-1.5181,-1.5181,-1.5181,-1.5181,-1.5181,-1.5181,-1.5181,-1.5181,-1.516,-1.5132,-1.5119,-1.5018,-1.4869,-1.4848,-1.4821,-1.4701,-1.4694,-1.4694,-1.4694,-1.3586,-1.2289,-1.0998,-0.9894,-0.8656,-0.7095,-0.4839,-0.4765,-0.7206,-0.6155,-0.6081,-0.7039,-0.9826,-1.1095,-1.0952,-1.3489,-1.4654,-1.2467,-1.2501,-1.2576,-1.2921,-1.3003,-1.3077,-1.3336,-1.3403,-1.3403,-1.3403,-1.3403,-1.3403,-1.3403,-1.3403,-1.3403,-1.3403,-1.3403,-1.3403,-1.3403,-1.3403,-1.3403,-1.3403,-1.3403,-1.3403,-1.3403,-1.3403,-1.3403,-1.3403,-1.3403,-1.3403,-1.3403,-1.3403,-1.3471,-1.3585,-1.3727,-1.3912,-1.4112,-1.4224,-1.4299,-1.4299,-1.4299,-1.4299,-1.4299,-1.4326,-1.4401,-1.4516,-1.4536,-1.4713,-1.5017,-1.4997,-1.5126,-1.5181,-1.5181,-1.5181,-1.5181,-1.5181,-1.5181,-1.5181,-1.5181,-1.5181,-1.5181,-1.5181,-1.5181,-1.5181,-1.5181,-1.5181,-1.5181,-1.5181,-1.5181,-1.5181,-1.5181,-1.5181,-1.5181,-1.5181,-1.5181,-1.5181,-1.5181,-1.5181,-1.5181,-1.5181,-1.5181,-1.5181,-1.5181,-1.5181,-1.5181,-1.5181,-1.5181,-1.514,-1.5071,-1.5011,-1.4957,-1.4782,-1.4769,-1.4769,-1.4769,-1.4769,-1.4585,-1.4166,-1.2725,-1.2357,-1.3425,-1.0548,-0.8654,-0.8101,-0.8178,-0.9968,-1.348,-1.2392,-1.2679,-1.412,-1.4585,-1.4755,-1.2494,-1.2501,-1.2576,-1.2921,-1.3003,-1.3077,-1.3336,-1.3403,-1.3403,-1.3403,-1.3403,-1.3403,-1.3403,-1.3403,-1.3403,-1.3403,-1.3403,-1.3403,-1.3403,-1.3403,-1.3403,-1.3403,-1.3403,-1.3403,-1.3403,-1.3403,-1.3403,-1.3403,-1.3403,-1.3403,-1.3403,-1.3403,-1.3471,-1.3585,-1.3727,-1.3912,-1.4112,-1.4224,-1.4299,-1.4299,-1.4299,-1.4299,-1.4306,-1.4428,-1.4496,-1.4516,-1.4606,-1.4808,-1.5023,-1.5153,-1.5167,-1.5181,-1.5181,-1.5181,-1.5181,-1.5181,-1.5181,-1.5181,-1.5181,-1.5181,-1.5181,-1.5181,-1.5181,-1.5181,-1.5181,-1.5181,-1.5181,-1.5181,-1.5181,-1.5181,-1.5181,-1.5181,-1.5181,-1.5181,-1.5181,-1.5181,-1.5181,-1.5181,-1.5181,-1.5181,-1.5181,-1.5181,-1.5181,-1.5181,-1.5181,-1.5181,-1.5181,-1.5174,-1.52,-1.5153,-1.5147,-1.5126,-1.5126,-1.5126,-1.5126,-1.5126,-1.4177,-1.1955,-1.3609,-1.2847,-0.8696,-1.2184,-1.3134,-1.0917,-1.087,-1.0124,-0.8536,-1.2655,-1.3702,-1.1908,-1.4083,-1.5059,-1.2501,-1.2501,-1.2576,-1.2921,-1.3003,-1.3077,-1.3336,-1.3403,-1.3403,-1.3403,-1.3403,-1.3403,-1.3403,-1.3403,-1.3403,-1.3403,-1.3403,-1.3403,-1.3403,-1.3403,-1.3403,-1.3403,-1.3403,-1.3403,-1.3403,-1.3403,-1.3403,-1.3403,-1.3403,-1.3403,-1.3403,-1.3403,-1.3505,-1.37,-1.3768,-1.391,-1.4197,-1.4265,-1.4299,-1.4299,-1.4299,-1.434,-1.4421,-1.4482,-1.4557,-1.4606,-1.4801,-1.495,-1.5139,-1.52,-1.5181,-1.5181,-1.5181,-1.5181,-1.5181,-1.5181,-1.5181,-1.5181,-1.5181,-1.5181,-1.5181,-1.5181,-1.5181,-1.5181,-1.5181,-1.5181,-1.5181,-1.5181,-1.5181,-1.5181,-1.5181,-1.5181,-1.5181,-1.5181,-1.5181,-1.5181,-1.5181,-1.5181,-1.5181,-1.5181,-1.5181,-1.5181,-1.5181,-1.5181,-1.5181,-1.5181,-1.5181,-1.5181,-1.5181,-1.5181,-1.5181,-1.5181,-1.5181,-1.5181,-1.5181,-1.5181,-1.4704,-1.3616,-1.4563,-1.4181,-1.1951,-1.3993,-1.4657,-1.3569,-1.3509,-1.2958,-1.1871,-1.4102,-1.461,-1.3569,-1.4657,-1.5147,-1.2501,-1.2501,-1.2569,-1.2834,-1.2975,-1.3071,-1.3288,-1.337,-1.3403,-1.3403,-1.3403,-1.3403,-1.3403,-1.3403,-1.3403,-1.3403,-1.3403,-1.3403,-1.3403,-1.3403,-1.3403,-1.3403,-1.3403,-1.3403,-1.3403,-1.3403,-1.3403,-1.3403,-1.3403,-1.3403,-1.3403,-1.3437,-1.358,-1.3788,-1.3835,-1.4027,-1.4299,-1.4299,-1.4299,-1.4299,-1.4299,-1.4373,-1.4516,-1.455,-1.4606,-1.4762,-1.4923,-1.5098,-1.5181,-1.5181,-1.5181,-1.5181,-1.5181,-1.5181,-1.5181,-1.5181,-1.5181,-1.5181,-1.5181,-1.5181,-1.5181,-1.5181,-1.5181,-1.5181,-1.5181,-1.5181,-1.5181,-1.5181,-1.5181,-1.5181,-1.5181,-1.5181,-1.5181,-1.5181,-1.5181,-1.5181,-1.5181,-1.5181,-1.5181,-1.5181,-1.5181,-1.5181,-1.5181,-1.5181,-1.5181,-1.5181,-1.5181,-1.5181,-1.5181,-1.5181,-1.5181,-1.5181,-1.5181,-1.5181,-1.5181,-1.5181,-1.5181,-1.5181,-1.5181,-1.5181,-1.5181,-1.5181,-1.5181,-1.5181,-1.5181,-1.5181,-1.5181,-1.5181,-1.5181,-1.5181,-1.5181,-1.5181,-1.2501,-1.2501,-1.2542,-1.2665,-1.2854,-1.3043,-1.3193,-1.3295,-1.3403,-1.3403,-1.3403,-1.3403,-1.3403,-1.3403,-1.3403,-1.3403,-1.3403,-1.3403,-1.3403,-1.3403,-1.3403,-1.3403,-1.3403,-1.3403,-1.3403,-1.3403,-1.3403,-1.3403,-1.3403,-1.3403,-1.3403,-1.3539,-1.3646,-1.3795,-1.398,-1.4136,-1.4299,-1.4299,-1.4299,-1.4299,-1.4299,-1.4373,-1.4516,-1.462,-1.4814,-1.4957,-1.5017,-1.5098,-1.5181,-1.5181,-1.5181,-1.5181,-1.5181,-1.5181,-1.5181,-1.5181,-1.5181,-1.5181,-1.5181,-1.5181,-1.5181,-1.5181,-1.5181,-1.5181,-1.5181,-1.5181,-1.5181,-1.5181,-1.5181,-1.5181,-1.5181,-1.5181,-1.5181,-1.5181,-1.5181,-1.5181,-1.5181,-1.5181,-1.5181,-1.5181,-1.5181,-1.5181,-1.5181,-1.5181,-1.5181,-1.5181,-1.5181,-1.5181,-1.5181,-1.5181,-1.5181,-1.5181,-1.5181,-1.5181,-1.5181,-1.5181,-1.5181,-1.5181,-1.5181,-1.5181,-1.5181,-1.5181,-1.5181,-1.5181,-1.5181,-1.5181,-1.5181,-1.5181,-1.5181,-1.5181,-1.5181,-1.5181,-1.2501,-1.2501,-1.2535,-1.2652,-1.2733,-1.2874,-1.3159,-1.3254,-1.3281,-1.3376,-1.3403,-1.3403,-1.3403,-1.3403,-1.3403,-1.3403,-1.3403,-1.3403,-1.3403,-1.3403,-1.3403,-1.3403,-1.3403,-1.3403,-1.3403,-1.3403,-1.3403,-1.3403,-1.3403,-1.3403,-1.3403,-1.3546,-1.3653,-1.3795,-1.3994,-1.4143,-1.4299,-1.4299,-1.4299,-1.4299,-1.4299,-1.4428,-1.4613,-1.4667,-1.4875,-1.5106,-1.5106,-1.518,-1.5181,-1.5181,-1.5181,-1.5181,-1.5181,-1.5181,-1.5181,-1.5181,-1.5181,-1.5181,-1.5181,-1.5181,-1.5181,-1.5181,-1.5181,-1.5181,-1.5181,-1.5181,-1.5181,-1.5181,-1.5181,-1.5181,-1.5181,-1.5181,-1.5181,-1.5181,-1.5181,-1.5181,-1.5181,-1.5181,-1.5181,-1.5181,-1.5181,-1.5181,-1.5181,-1.5181,-1.5181,-1.5181,-1.5181,-1.5181,-1.5181,-1.5181,-1.5181,-1.5181,-1.5181,-1.4516,-1.2904,-1.4281,-1.4516,-1.2857,-1.4281,-1.5181,-1.5181,-1.5181,-1.5181,-1.5181,-1.5181,-1.5181,-1.5181,-1.5181,-1.4375,-1.281,-1.4422,-1.3469,-1.2501,-1.2501,-1.2528,-1.263,-1.2652,-1.2793,-1.3084,-1.318,-1.3254,-1.337,-1.3403,-1.3403,-1.3403,-1.3403,-1.3403,-1.3403,-1.3403,-1.3403,-1.3403,-1.3403,-1.3403,-1.3403,-1.3403,-1.3403,-1.3403,-1.3403,-1.3403,-1.3403,-1.3403,-1.3403,-1.3403,-1.3593,-1.3747,-1.3944,-1.4095,-1.4197,-1.4299,-1.4299,-1.4299,-1.4299,-1.4346,-1.4502,-1.4694,-1.4748,-1.495,-1.5181,-1.5181,-1.5181,-1.5181,-1.5181,-1.5181,-1.5181,-1.5181,-1.5181,-1.5181,-1.5181,-1.5181,-1.5181,-1.5181,-1.5181,-1.5181,-1.5181,-1.5181,-1.5181,-1.5181,-1.5181,-1.5181,-1.5181,-1.5181,-1.5181,-1.5181,-1.5181,-1.5181,-1.5181,-1.5181,-1.5181,-1.5181,-1.5181,-1.5181,-1.5181,-1.5181,-1.5181,-1.5181,-1.5181,-1.5181,-1.5181,-1.5181,-1.5181,-1.5181,-1.5181,-1.5181,-1.5181,-1.5181,-1.4516,-1.281,-1.4234,-1.4469,-1.2763,-1.4281,-1.5181,-1.5181,-1.5181,-1.5181,-1.5181,-1.5181,-1.4798,-1.3946,-1.4798,-1.3899,-1.1438,-1.314,-1.1192,0.0,0.0,0.0,-1.2501,-1.2617,-1.2766,-1.2962,-1.3105,-1.3248,-1.3363,-1.3397,-1.3403,-1.3403,-1.3403,-1.3403,-1.3403,-1.3403,-1.3403,-1.3403,-1.3403,-1.3403,-1.3403,-1.3403,-1.3403,-1.3403,-1.3403,-1.3403,-1.3403,-1.3403,-1.3403,-1.3403,-1.3639,-1.3937,-1.4292,-1.4299,-1.4299,-1.4299,-1.4299,-1.4299,-1.4299,-1.4441,-1.459,-1.4701,-1.4903,-1.5052,-1.5181,-1.5181,-1.5181,-1.5181,-1.5181,-1.5181,-1.5181,-1.5181,-1.5181,-1.5181,-1.5181,-1.5181,-1.5181,-1.5181,-1.5181,-1.5181,-1.5181,-1.5181,-1.5181,-1.5181,-1.5181,-1.5181,-1.5181,-1.5181,-1.5181,-1.5181,-1.5181,-1.5181,-1.5181,-1.5181,-1.5181,-1.5181,-1.5181,-1.5181,-1.5181,-1.5181,-1.5181,-1.5181,-1.5181,-1.5181,-1.5181,-1.5181,-1.5181,-1.5181,-1.5181,-1.5181,-1.5181,-1.5181,-1.5181,-1.5087,-1.5181,-1.5181,-1.5087,-1.5181,-1.5181,-1.5181,-1.5181,-1.5181,-1.5181,-1.5181,-1.3946,-1.139,-1.3899,-1.3758,-1.1149,-1.1102,-0.8447,-1.2501,0.0,0.0,0.0,0.0,0.0,-1.2759,-1.2908,-1.3105,-1.3248,-1.3322,-1.3403,-1.3403,-1.3403,-1.3403,-1.3403,-1.3403,-1.3403,-1.3403,-1.3403,-1.3403,-1.3403,-1.3403,-1.3403,-1.3403,-1.3403,-1.3403,-1.3403,-1.3403,-1.3403,-1.3403,-1.3639,-1.3937,-1.4292,-1.4299,-1.4299,-1.4299,-1.4299,-1.4299,-1.4299,-1.4441,-1.459,-1.4701,-1.4903,-1.5052,-1.5181,-1.5181,-1.5181,-1.5181,-1.5181,-1.5181,-1.5181,-1.5181,-1.5181,-1.5181,-1.5181,-1.5181,-1.5181,-1.5181,-1.5181,-1.5181,-1.5181,-1.5181,-1.5181,-1.5181,-1.5181,-1.5181,-1.5181,-1.5181,-1.5181,-1.5181,-1.5181,-1.5181,-1.5181,-1.5181,-1.5181,-1.5181,-1.5181,-1.5181,-1.5181,-1.5181,-1.5181,-1.5181,-1.5181,-1.5181,-1.5181,-1.5181,-1.5181,-1.5181,-1.5181,-1.5181,-1.5181,-1.5181,-1.4469,-1.2622,-1.4134,-1.4422,-1.2575,-1.4187,-1.5181,-1.5181,-1.5181,-1.5181,-1.5181,-1.5181,-1.3946,-1.139,-1.2098,-1.0201,-0.5842,-0.3995,-0.3377,0.0,0.0,0.0,-1.2501,0.0,0.0,-1.2659,-1.28,-1.2922,-1.3173,-1.3241,-1.3322,-1.339,-1.3403,-1.3403,-1.3403,-1.3403,-1.3403,-1.3403,-1.3403,-1.3403,-1.3403,-1.3403,-1.3403,-1.3403,-1.3403,-1.3403,-1.3403,-1.3403,-1.3458,-1.358,-1.3707,-1.3937,-1.4292,-1.4299,-1.4299,-1.4299,-1.4299,-1.4299,-1.4299,-1.4509,-1.4606,-1.4701,-1.4964,-1.5153,-1.5181,-1.5181,-1.5181,-1.5181,-1.5181,-1.5181,-1.5181,-1.5181,-1.5181,-1.5181,-1.5181,-1.5181,-1.5181,-1.5181,-1.5181,-1.5181,-1.5181,-1.5181,-1.5181,-1.5181,-1.5181,-1.5181,-1.5181,-1.5181,-1.5181,-1.5181,-1.5181,-1.5181,-1.5181,-1.5181,-1.5181,-1.5181,-1.5181,-1.5181,-1.5181,-1.5181,-1.5181,-1.5181,-1.5181,-1.5181,-1.5181,-1.5181,-1.5181,-1.5181,-1.5181,-1.5181,-1.5181,-1.5181,-1.461,-1.3093,-1.4328,-1.4563,-1.3093,-1.4375,-1.5181,-1.5181,-1.5181,-1.5181,-1.5181,-1.414,-1.1857,-0.8258,-1.0342,-0.8779,-0.3756,-0.1191,-0.0811,0.0,0.0,0.0,0.0,-1.2501,0.0,-1.2632,-1.2679,-1.2767,-1.3071,-1.3193,-1.3254,-1.3349,-1.339,-1.3403,-1.3403,-1.3403,-1.3403,-1.3403,-1.3403,-1.3403,-1.3403,-1.3403,-1.3403,-1.3403,-1.3403,-1.3403,-1.3403,-1.3403,-1.3532,-1.3781,-1.3795,-1.3937,-1.4292,-1.4299,-1.4299,-1.4299,-1.4299,-1.4299,-1.4306,-1.4552,-1.4694,-1.4708,-1.5045,-1.5181,-1.5181,-1.5181,-1.5181,-1.5181,-1.5181,-1.5181,-1.5181,-1.5181,-1.5181,-1.5181,-1.5181,-1.5181,-1.5181,-1.5181,-1.5181,-1.5181,-1.5181,-1.5181,-1.5181,-1.5181,-1.5181,-1.5181,-1.5181,-1.5181,-1.5181,-1.5181,-1.5181,-1.5181,-1.5181,-1.5181,-1.5181,-1.5181,-1.5181,-1.5181,-1.5181,-1.5181,-1.5181,-1.5181,-1.5181,-1.5181,-1.5181,-1.5181,-1.5181,-1.5181,-1.5181,-1.5181,-1.5181,-1.5181,-1.5181,-1.5181,-1.5181,-1.5181,-1.5181,-1.5181,-1.5181,-1.5181,-1.5181,-1.5181,-1.5181,-1.2428,-0.8589,-0.3803,-0.8069,-0.7785,-0.3329,-0.1048,0.0,0.0,0.0,0.0,-1.2535,-1.2501,0.0,-1.2535,-1.2605,-1.2706,-1.2767,-1.3003,-1.322,-1.3214,-1.3315,-1.3403,-1.3403,-1.3403,-1.3403,-1.3403,-1.3403,-1.3403,-1.3403,-1.3403,-1.3403,-1.3403,-1.3403,-1.3403,-1.3403,-1.3403,-1.3532,-1.3781,-1.3795,-1.3937,-1.4292,-1.4299,-1.4299,-1.4299,-1.4299,-1.4299,-1.4306,-1.4552,-1.4694,-1.4708,-1.5045,-1.5181,-1.5181,-1.5181,-1.5181,-1.5181,-1.5181,-1.5181,-1.5181,-1.5181,-1.5181,-1.5181,-1.5181,-1.5181,-1.5181,-1.5181,-1.5181,-1.5181,-1.5181,-1.5181,-1.5181,-1.5181,-1.5181,-1.5181,-1.5181,-1.5181,-1.5181,-1.5181,-1.5181,-1.5181,-1.5181,-1.5181,-1.5181,-1.5181,-1.5181,-1.5181,-1.5181,-1.5181,-1.5181,-1.5181,-1.5181,-1.5181,-1.5181,-1.5181,-1.5181,-1.5181,-1.5181,-1.5181,-1.5181,-1.5181,-1.5181,-1.5181,-1.5181,-1.5181,-1.5181,-1.5181,-1.5181,-1.5181,-1.5181,-1.5181,-1.5181,-1.0673,-0.6838,-0.3803,-0.276,-0.1716,-0.0715,-0.0239,0.0,-1.2277,-1.2786,-1.2672,-1.2637,-1.2556,0.0,0.0,-1.2562,-1.2637,-1.2672,-1.2908,-1.3125,-1.32,-1.3295,-1.3403,-1.3403,-1.3403,-1.3403,-1.3403,-1.3403,-1.3403,-1.3403,-1.3403,-1.3403,-1.3403,-1.3403,-1.3403,-1.3403,-1.3403,-1.3532,-1.3781,-1.3795,-1.3937,-1.4292,-1.4299,-1.4299,-1.4299,-1.4299,-1.4333,-1.4407,-1.4586,-1.4735,-1.4862,-1.5079,-1.5181,-1.5181,-1.5181,-1.5181,-1.5181,-1.5181,-1.5181,-1.5181,-1.5181,-1.5181,-1.5181,-1.5181,-1.5181,-1.5181,-1.5181,-1.5181,-1.5181,-1.5181,-1.5181,-1.5181,-1.5181,-1.5181,-1.5181,-1.5181,-1.5181,-1.5181,-1.5181,-1.5181,-1.5181,-1.5181,-1.5181,-1.5181,-1.5181,-1.5181,-1.4805,-1.3569,-1.3281,-1.3711,-1.4993,-1.5181,-1.5181,-1.5181,-1.5181,-1.5181,-1.5181,-1.4093,-1.3805,-1.504,-1.404,-1.3805,-1.5087,-1.404,-1.3852,-1.5134,-1.2804,-1.1998,-1.3234,-1.2092,-1.0814,-0.9531,-0.7024,-0.4468,-0.1905,-0.062,0.0,0.0,0.0,0.0,-1.2345,-1.2908,-1.2807,-1.274,-1.2657,-1.2549,0.0,0.0,0.0,-1.2659,-1.2854,-1.3043,-1.3186,-1.3295,-1.337,-1.3288,-1.3342,-1.337,-1.3281,-1.3349,-1.3403,-1.3403,-1.3403,-1.3403,-1.3403,-1.3403,-1.3403,-1.3403,-1.3403,-1.3532,-1.3781,-1.3795,-1.3937,-1.4292,-1.4299,-1.4299,-1.4299,-1.4299,-1.4373,-1.4516,-1.462,-1.4821,-1.5023,-1.512,-1.5181,-1.5181,-1.5181,-1.5181,-1.5181,-1.5181,-1.5181,-1.5181,-1.5181,-1.5181,-1.5181,-1.5181,-1.5181,-1.5181,-1.5181,-1.5181,-1.5181,-1.5181,-1.5181,-1.5181,-1.5181,-1.5181,-1.5181,-1.5181,-1.5181,-1.5181,-1.5181,-1.5181,-1.5181,-1.5181,-1.5181,-1.5181,-1.5181,-1.4805,-1.3852,-1.1815,-1.1008,-1.148,-1.404,-1.4469,-1.4469,-1.4469,-1.4469,-1.4469,-1.4469,-1.2669,-1.2192,-1.4234,-1.3093,-1.2763,-1.4328,-1.3046,-1.2999,-1.5087,-1.1333,-0.9775,-1.1338,-0.8968,-0.6408,-0.3851,-0.3803,-0.2522,0.0,0.0,0.0,0.0,0.0,0.0,-1.2071,-1.3173,-1.3091,-1.3009,-1.282,-1.2665,-1.2665,0.0,-1.2549,-1.2659,0.0,-1.3043,-1.3186,0.0,0.0,-1.2835,-1.3139,-1.3261,-1.2821,-1.3152,-1.3403,-1.3403,-1.3403,-1.3403,-1.3403,-1.3403,-1.3403,-1.3403,-1.3403,-1.3532,-1.3781,-1.3795,-1.3937,-1.4292,-1.4299,-1.4299,-1.4299,-1.4299,-1.4373,-1.4516,-1.462,-1.4821,-1.5023,-1.512,-1.5181,-1.5181,-1.5181,-1.5181,-1.5181,-1.5181,-1.5181,-1.5181,-1.5181,-1.5181,-1.5181,-1.5181,-1.5181,-1.5181,-1.5181,-1.5181,-1.5181,-1.5181,-1.5181,-1.5181,-1.5181,-1.5181,-1.5181,-1.5181,-1.5181,-1.5181,-1.5181,-1.5181,-1.5181,-1.5181,-1.5181,-1.5181,-1.5181,-1.3428,-1.1768,-1.148,-0.9582,-0.8826,-1.1385,-1.1815,-1.1815,-1.1815,-1.1815,-1.1815,-1.1815,-1.1579,-1.1532,-1.1815,-1.3569,-1.3946,-1.2004,-1.3664,-1.4899,-1.5181,-1.4657,-1.3469,-1.1485,-0.8968,-0.6408,-0.3851,-0.3803,-0.2522,0.0,0.0,0.0,0.0,0.0,0.0,-1.2484,-1.2285,-1.1545,-1.2808,-1.1999,-1.1249,-1.2582,-1.2813,-1.2826,-1.2854,0.0,0.0,0.0,0.0,0.0,0.0,-1.3275,-1.3336,-1.3146,-1.3281,-1.3403,-1.3403,-1.3403,-1.3403,-1.3403,-1.3403,-1.3403,-1.3403,-1.3403,-1.3492,-1.3666,-1.3754,-1.3939,-1.4163,-1.4251,-1.4299,-1.4299,-1.4299,-1.4414,-1.4599,-1.4667,-1.4862,-1.5146,-1.5153,-1.5181,-1.5181,-1.5181,-1.5181,-1.5181,-1.5181,-1.5181,-1.5181,-1.5181,-1.5181,-1.5181,-1.5181,-1.5181,-1.5181,-1.5181,-1.5181,-1.5181,-1.5181,-1.5181,-1.5181,-1.5181,-1.5181,-1.5181,-1.5181,-1.5181,-1.5181,-1.5181,-1.4093,-1.2999,-1.2999,-1.2999,-1.2999,-1.2999,-1.2145,-1.0961,-0.9488,-0.7122,-0.5747,-0.6787,-0.944,-1.0913,-0.9397,-1.0437,-1.0866,-0.9393,-0.7927,-0.7545,-0.9015,-0.8822,-0.8727,-0.9157,-0.8822,-0.92,-1.072,-0.9389,-0.745,-0.4898,-0.3757,-0.2666,-0.162,-0.1572,-0.1048,0.0,0.0,0.0,0.0,0.0,0.0,-1.1718,-1.1234,-1.0415,-1.2695,-1.1893,-1.1022,-1.2688,-1.303,-1.3009,-1.305,-1.3139,0.0,0.0,0.0,-1.3363,0.0,0.0,-1.3356,-1.3234,-1.3322,-1.3403,-1.3403,-1.3403,-1.3403,-1.3403,-1.3403,-1.3403,-1.3403,-1.3403,-1.3464,-1.3578,-1.372,-1.3869,-1.4112,-1.4224,-1.4299,-1.4299,-1.4299,-1.4448,-1.4694,-1.4694,-1.4896,-1.5181,-1.5181,-1.5181,-1.5181,-1.5181,-1.5181,-1.5181,-1.5181,-1.5181,-1.5181,-1.5181,-1.5181,-1.5181,-1.5181,-1.5181,-1.5087,-1.4422,-1.414,-1.4281,-1.4993,-1.5181,-1.5181,-1.5181,-1.5181,-1.504,-1.4328,-1.4657,-1.4899,-1.3469,-1.2239,-1.1197,-1.0531,-1.0342,-1.0342,-1.0342,-1.0342,-0.9586,-0.7071,-0.5083,-0.3566,-0.2903,-0.6411,-0.8684,-0.6835,-0.8116,-0.8637,-0.6787,-0.4941,-0.4514,-0.6364,-0.551,-0.532,-0.6458,-0.551,-0.5652,-0.7501,-0.5225,-0.2949,-0.1096,-0.0382,0.0,0.0,0.0,0.0,0.0,0.0,0.0,0.0,0.0,0.0,-0.8999,-1.0169,-1.0627,-1.2845,-1.324,-1.3085,-1.3166,-1.3098,-1.3043,-1.318,-1.3207,-1.3261,-1.3363,0.0,0.0,0.0,0.0,0.0,0.0,-1.3125,-1.3403,-1.3403,-1.3403,-1.3403,-1.3403,-1.3403,-1.3403,-1.3403,-1.3403,-1.3464,-1.3578,-1.372,-1.3869,-1.4112,-1.4224,-1.4299,-1.4299,-1.4299,-1.4448,-1.4694,-1.4694,-1.4896,-1.5181,-1.5181,-1.5181,-1.5181,-1.5181,-1.5181,-1.5181,-1.5181,-1.5181,-1.5181,-1.5181,-1.5181,-1.5181,-1.5181,-1.5181,-1.4852,-1.2381,-1.1532,-1.1909,-1.4422,-1.5181,-1.5181,-1.5181,-1.5181,-1.4704,-1.2239,-1.3281,-1.404,-0.9109,-0.9634,-1.0772,-0.8305,-0.7738,-0.7738,-0.7738,-0.7738,-0.698,-0.4419,-0.3851,-0.2997,-0.0525,-0.2285,-0.3993,-0.3946,-0.3993,-0.3993,-0.3946,-0.3851,-0.3851,-0.3898,-0.6079,-0.6506,-0.4134,-0.6127,-0.7501,-0.7595,-0.5225,-0.3756,-0.3661,-0.1287,0.0,0.0,0.0,0.0,0.0,0.0,0.0,0.0,0.0,0.0,-0.7414,-0.6745,-0.6495,-1.0211,-1.0014,-0.9699,-1.2656,-1.3288,-1.3268,-1.3315,-1.3322,-1.3342,-1.339,0.0,0.0,0.0,0.0,0.0,0.0,-1.3308,-1.3403,-1.3403,-1.3403,-1.3403,-1.3403,-1.3403,-1.3403,-1.3403,-1.3403,-1.3424,-1.3478,-1.3666,-1.3822,-1.3919,-1.4163,-1.4299,-1.4299,-1.4299,-1.4448,-1.4694,-1.4694,-1.4896,-1.5181,-1.5181,-1.5181,-1.5181,-1.5181,-1.5181,-1.5181,-1.5181,-1.5181,-1.5181,-1.5181,-1.5181,-1.5181,-1.5181,-1.4134,-1.2575,-1.1721,-1.139,-1.1532,-1.2428,-1.2716,-1.2381,-1.0673,-1.0149,-1.0007,-0.9109,-0.9488,-0.9771,-0.8069,-0.698,-0.6171,-0.5273,-0.5083,-0.5083,-0.5083,-0.5083,-0.4846,-0.3946,-0.2427,-0.1001,-0.0143,-0.0715,-0.1287,-0.1287,-0.2713,-0.3187,-0.1524,-0.1287,-0.1287,-0.1287,-0.2047,-0.2238,-0.1334,-0.2096,-0.2571,-0.2571,-0.1763,-0.1287,-0.1287,-0.0477,0.0,0.0,0.0,0.0,0.0,0.0,0.0,0.0,0.0,0.0,-0.5282,-0.4402,-0.4195,-0.7915,-0.7744,-0.7452,-1.0377,-1.1006,-1.1006,-1.1006,-1.1006,-1.1006,0.0,0.0,0.0,0.0,0.0,0.0,0.0,-1.3403,-1.3403,-1.3403,-1.3403,-1.3403,-1.3403,-1.3403,-1.3403,-1.3403,-1.3403,-1.3403,-1.3403,-1.3639,-1.3795,-1.3795,-1.4136,-1.4299,-1.4299,-1.4299,-1.4448,-1.4694,-1.4694,-1.4896,-1.5181,-1.5181,-1.5181,-1.5181,-1.5181,-1.5181,-1.5181,-1.5181,-1.5181,-1.5181,-1.5181,-1.4657,-1.3946,-1.4852,-1.3569,-1.139,-1.139,-1.139,-1.139,-1.139,-1.2004,-1.2286,-0.9728,-0.9582,-0.9904,-0.8127,-0.8236,-0.8345,-0.5582,-0.4361,-0.3566,-0.2665,-0.2427,-0.2427,-0.2427,-0.3139,-0.3518,-0.2617,-0.1857,-0.1048,-0.0143,0.0,0.0,0.0,-0.1381,-0.1857,-0.0191,0.0,0.0,0.0,0.0,0.0,0.0,0.0,0.0,0.0,0.0,0.0,0.0,0.0,0.0,0.0,0.0,0.0,0.0,0.0,0.0,0.0,0.0,0.0]},{"header":{"parameterUnit":"m.s-1","parameterCategory":1,"la1":30.6,"la2":29.2853,"lo1":-89.7004,"lo2":-87.6739,"dy":0.0162,"dx":0.0183,"nx":112,"ny":82,"refTime":"2024-03-17T12:00:00:Z","depth":0,"parameterNumber":3,"parameterNumberName":"V-component_of_WINDS"},"data":[0.0,0.0,0.0,0.0,0.0,0.0,0.0,0.0,0.0,0.0,0.0,0.0,0.0,0.0,0.0,0.0,0.0,0.0,0.0,0.0,0.0,0.0,0.0,0.0,0.0,0.0,0.0,0.0,0.0,0.0,0.0,0.0,0.0,0.0,0.0,0.0,0.0,0.0,0.0,0.0,0.0,0.0,0.0,0.0,0.0,0.0,0.0,0.0,0.0,0.0,0.0,0.0,0.0,0.0,0.0,0.0,0.0,0.0,0.0,0.0,0.0,0.0,0.0,0.0,0.0,0.0,0.0,0.0,0.0,0.0,0.0,0.0,0.0,0.0,0.0,0.0,0.0,0.0,0.0,0.0,0.0,0.0,0.0,0.0,0.0,0.0,0.0,0.0,0.0,0.0,4.6522,4.6566,4.7501,4.7812,4.7158,4.7081,4.6506,4.5155,0.0,0.0,0.0,0.0,0.0,0.0,0.0,0.0,0.0,0.0,0.0,0.0,0.0,0.0,0.0,0.0,0.0,0.0,0.0,0.0,0.0,0.0,0.0,0.0,0.0,0.0,0.0,0.0,0.0,0.0,0.0,0.0,0.0,0.0,0.0,0.0,0.0,0.0,0.0,0.0,0.0,0.0,0.0,0.0,0.0,0.0,0.0,0.0,0.0,0.0,0.0,0.0,0.0,0.0,0.0,0.0,0.0,0.0,0.0,0.0,0.0,0.0,0.0,0.0,0.0,0.0,0.0,0.0,0.0,0.0,0.0,0.0,0.0,0.0,0.0,0.0,0.0,0.0,0.0,0.0,0.0,0.0,0.0,0.0,0.0,0.0,0.0,0.0,0.0,0.0,0.0,0.0,0.0,0.0,0.0,0.0,0.0,0.0,0.0,0.0,0.0,0.0,0.0,0.0,4.7521,4.7813,4.7986,4.8043,4.7928,4.7928,4.7698,4.7196,0.0,0.0,0.0,0.0,0.0,0.0,0.0,0.0,0.0,0.0,0.0,0.0,0.0,0.0,0.0,0.0,0.0,0.0,0.0,0.0,0.0,0.0,0.0,0.0,0.0,0.0,0.0,0.0,0.0,0.0,0.0,0.0,0.0,0.0,0.0,0.0,0.0,0.0,0.0,0.0,0.0,0.0,0.0,0.0,0.0,0.0,0.0,0.0,0.0,0.0,0.0,0.0,0.0,0.0,0.0,0.0,0.0,0.0,0.0,0.0,0.0,0.0,0.0,0.0,0.0,0.0,0.0,0.0,0.0,0.0,0.0,0.0,0.0,0.0,0.0,0.0,0.0,0.0,0.0,0.0,0.0,0.0,0.0,0.0,0.0,0.0,0.0,0.0,0.0,0.0,0.0,0.0,0.0,0.0,0.0,0.0,0.0,0.0,0.0,0.0,0.0,0.0,0.0,4.8225,4.881,4.9423,4.951,4.9317,4.8856,4.8817,4.8381,4.734,4.6396,0.0,0.0,0.0,0.0,0.0,0.0,0.0,0.0,0.0,0.0,0.0,0.0,0.0,0.0,0.0,0.0,0.0,0.0,0.0,0.0,0.0,0.0,0.0,0.0,0.0,0.0,0.0,0.0,0.0,0.0,0.0,0.0,0.0,0.0,0.0,0.0,0.0,0.0,0.0,0.0,0.0,0.0,0.0,0.0,0.0,0.0,0.0,0.0,0.0,0.0,0.0,0.0,0.0,0.0,0.0,0.0,0.0,0.0,0.0,0.0,0.0,0.0,0.0,0.0,0.0,0.0,0.0,0.0,0.0,0.0,0.0,0.0,0.0,0.0,0.0,0.0,0.0,0.0,0.0,0.0,0.0,0.0,0.0,0.0,0.0,0.0,0.0,0.0,0.0,0.0,0.0,0.0,0.0,0.0,0.0,0.0,0.0,0.0,0.0,0.0,0.0,0.0,4.9534,4.9976,5.063,5.0707,5.0438,4.9745,4.9707,4.9191,4.7954,4.7688,0.0,0.0,0.0,0.0,0.0,0.0,0.0,0.0,0.0,0.0,0.0,0.0,0.0,0.0,0.0,0.0,0.0,0.0,0.0,0.0,0.0,0.0,0.0,0.0,0.0,0.0,0.0,0.0,0.0,0.0,0.0,0.0,0.0,0.0,0.0,0.0,0.0,0.0,0.0,0.0,0.0,0.0,0.0,0.0,0.0,0.0,0.0,0.0,0.0,0.0,0.0,0.0,0.0,0.0,0.0,0.0,0.0,0.0,0.0,0.0,0.0,0.0,0.0,0.0,0.0,0.0,0.0,0.0,0.0,0.0,0.0,0.0,0.0,0.0,0.0,0.0,0.0,0.0,0.0,0.0,0.0,0.0,0.0,0.0,0.0,0.0,0.0,0.0,0.0,0.0,0.0,0.0,0.0,0.0,0.0,0.0,0.0,0.0,0.0,0.0,0.0,0.0,5.0582,5.063,5.0707,5.0707,5.0668,5.0592,5.0592,5.0577,5.0465,4.9692,0.0,0.0,0.0,0.0,0.0,0.0,0.0,0.0,0.0,0.0,0.0,0.0,0.0,0.0,0.0,0.0,0.0,0.0,0.0,0.0,0.0,0.0,0.0,0.0,0.0,0.0,0.0,0.0,0.0,0.0,0.0,0.0,0.0,0.0,0.0,0.0,0.0,0.0,0.0,0.0,0.0,0.0,0.0,0.0,0.0,0.0,0.0,0.0,0.0,0.0,0.0,0.0,0.0,0.0,0.0,0.0,0.0,0.0,0.0,0.0,0.0,0.0,0.0,0.0,0.0,0.0,0.0,0.0,0.0,0.0,0.0,0.0,0.0,0.0,0.0,0.0,0.0,0.0,0.0,0.0,0.0,0.0,0.0,0.0,0.0,0.0,0.0,0.0,0.0,0.0,0.0,0.0,0.0,0.0,0.0,0.0,0.0,0.0,0.0,0.0,0.0,0.0,5.1753,5.2241,5.2241,5.2241,5.2241,5.2241,5.2241,5.2136,5.1884,0.0,0.0,0.0,0.0,0.0,0.0,0.0,0.0,0.0,0.0,0.0,0.0,0.0,0.0,0.0,0.0,0.0,0.0,0.0,0.0,0.0,0.0,0.0,0.0,0.0,0.0,0.0,0.0,0.0,0.0,0.0,0.0,0.0,0.0,0.0,0.0,0.0,0.0,0.0,0.0,0.0,0.0,0.0,0.0,0.0,0.0,0.0,0.0,0.0,0.0,0.0,0.0,0.0,0.0,0.0,0.0,0.0,0.0,0.0,0.0,0.0,0.0,0.0,0.0,0.0,0.0,0.0,0.0,0.0,0.0,0.0,0.0,0.0,0.0,0.0,0.0,0.0,0.0,0.0,0.0,0.0,0.0,0.0,0.0,0.0,0.0,0.0,0.0,0.0,0.0,0.0,0.0,0.0,0.0,0.0,0.0,0.0,0.0,0.0,0.0,0.0,0.0,5.1944,5.2664,5.3197,5.3197,5.3197,5.3197,5.3197,5.3197,5.3086,5.2818,0.0,0.0,0.0,0.0,0.0,0.0,0.0,0.0,0.0,0.0,0.0,0.0,0.0,0.0,0.0,0.0,0.0,0.0,0.0,0.0,0.0,0.0,0.0,0.0,0.0,0.0,0.0,0.0,0.0,0.0,0.0,0.0,0.0,0.0,0.0,0.0,0.0,0.0,0.0,0.0,0.0,0.0,0.0,0.0,0.0,0.0,0.0,0.0,0.0,0.0,0.0,0.0,0.0,0.0,0.0,0.0,0.0,0.0,0.0,0.0,0.0,0.0,0.0,0.0,0.0,0.0,0.0,0.0,0.0,0.0,0.0,0.0,0.0,0.0,0.0,0.0,0.0,0.0,0.0,0.0,0.0,0.0,0.0,0.0,0.0,0.0,0.0,0.0,0.0,0.0,0.0,0.0,0.0,0.0,0.0,0.0,0.0,0.0,0.0,0.0,0.0,0.0,5.3197,5.3236,5.3236,5.3236,5.3236,5.3236,5.3236,5.3236,5.3236,0.0,0.0,0.0,0.0,0.0,0.0,0.0,0.0,0.0,0.0,0.0,0.0,0.0,0.0,0.0,0.0,0.0,0.0,0.0,0.0,0.0,0.0,0.0,0.0,0.0,0.0,0.0,0.0,0.0,0.0,0.0,0.0,0.0,0.0,0.0,0.0,0.0,0.0,0.0,0.0,0.0,0.0,0.0,0.0,0.0,0.0,0.0,0.0,0.0,0.0,0.0,0.0,0.0,0.0,0.0,0.0,0.0,0.0,0.0,0.0,0.0,0.0,0.0,0.0,0.0,0.0,0.0,0.0,0.0,0.0,0.0,0.0,0.0,0.0,0.0,0.0,0.0,0.0,0.0,0.0,0.0,0.0,0.0,0.0,0.0,0.0,0.0,0.0,0.0,0.0,0.0,0.0,0.0,0.0,0.0,0.0,0.0,0.0,0.0,0.0,0.0,0.0,0.0,5.4126,5.4626,5.4972,5.4972,5.4972,5.4972,5.4972,5.4972,5.4972,5.4972,0.0,0.0,0.0,0.0,0.0,0.0,0.0,0.0,0.0,0.0,0.0,0.0,0.0,0.0,0.0,0.0,0.0,0.0,0.0,0.0,0.0,0.0,0.0,0.0,0.0,0.0,0.0,0.0,0.0,0.0,0.0,0.0,0.0,0.0,0.0,0.0,0.0,0.0,0.0,0.0,0.0,0.0,0.0,0.0,0.0,0.0,0.0,0.0,0.0,0.0,0.0,0.0,0.0,0.0,0.0,0.0,0.0,0.0,0.0,0.0,0.0,0.0,0.0,0.0,0.0,0.0,0.0,0.0,0.0,0.0,0.0,0.0,0.0,0.0,0.0,0.0,0.0,0.0,0.0,0.0,0.0,0.0,0.0,0.0,0.0,0.0,0.0,0.0,0.0,0.0,0.0,0.0,0.0,0.0,0.0,0.0,0.0,0.0,0.0,0.0,0.0,0.0,5.4972,5.5401,5.5708,5.5708,5.5708,5.5708,5.5708,5.5708,5.5708,5.5708,0.0,0.0,0.0,0.0,0.0,0.0,0.0,0.0,0.0,0.0,0.0,0.0,0.0,0.0,0.0,0.0,0.0,0.0,0.0,0.0,0.0,0.0,0.0,0.0,0.0,0.0,0.0,0.0,0.0,0.0,0.0,0.0,0.0,0.0,0.0,0.0,0.0,0.0,0.0,0.0,0.0,0.0,0.0,0.0,0.0,0.0,0.0,0.0,0.0,0.0,0.0,0.0,0.0,0.0,0.0,0.0,0.0,0.0,0.0,0.0,0.0,0.0,0.0,0.0,0.0,0.0,0.0,0.0,0.0,0.0,0.0,0.0,0.0,0.0,0.0,0.0,0.0,0.0,0.0,0.0,0.0,0.0,0.0,0.0,0.0,0.0,0.0,0.0,0.0,0.0,0.0,0.0,0.0,0.0,0.0,0.0,0.0,0.0,0.0,0.0,0.0,0.0,5.5708,5.5708,5.5708,5.5708,5.5708,5.5708,5.5708,5.5708,5.5708,5.5708,0.0,0.0,0.0,0.0,0.0,0.0,0.0,0.0,0.0,0.0,0.0,0.0,0.0,0.0,0.0,0.0,0.0,0.0,0.0,0.0,0.0,0.0,0.0,0.0,0.0,0.0,0.0,0.0,0.0,0.0,0.0,0.0,0.0,0.0,0.0,0.0,0.0,0.0,0.0,0.0,0.0,0.0,0.0,0.0,0.0,0.0,0.0,0.0,0.0,0.0,0.0,0.0,0.0,0.0,0.0,0.0,0.0,0.0,0.0,0.0,5.1774,5.1082,0.0,0.0,0.0,0.0,0.0,0.0,0.0,0.0,0.0,0.0,0.0,0.0,0.0,0.0,0.0,0.0,0.0,0.0,0.0,0.0,0.0,0.0,0.0,0.0,0.0,0.0,0.0,0.0,0.0,0.0,0.0,0.0,0.0,0.0,0.0,0.0,0.0,0.0,0.0,0.0,5.5708,5.5708,5.5708,5.5708,5.5708,5.5708,5.5708,5.5708,5.5708,5.5708,5.5708,0.0,0.0,0.0,0.0,0.0,0.0,0.0,0.0,0.0,0.0,0.0,0.0,0.0,0.0,0.0,0.0,0.0,0.0,0.0,0.0,0.0,0.0,0.0,0.0,0.0,0.0,0.0,0.0,0.0,0.0,0.0,0.0,0.0,0.0,0.0,0.0,0.0,0.0,0.0,0.0,0.0,0.0,0.0,0.0,0.0,0.0,0.0,0.0,0.0,0.0,0.0,0.0,0.0,0.0,0.0,0.0,0.0,0.0,0.0,5.3082,5.2505,0.0,0.0,0.0,0.0,0.0,0.0,0.0,0.0,0.0,0.0,0.0,0.0,0.0,0.0,0.0,0.0,0.0,0.0,0.0,0.0,0.0,0.0,0.0,0.0,0.0,0.0,0.0,0.0,0.0,0.0,0.0,0.0,0.0,0.0,0.0,0.0,0.0,0.0,0.0,0.0,5.6285,5.6324,5.6478,5.6896,5.6934,5.6934,5.6934,5.6555,5.6324,5.6324,5.5939,0.0,0.0,0.0,0.0,0.0,0.0,0.0,0.0,0.0,0.0,0.0,0.0,0.0,0.0,0.0,0.0,0.0,0.0,0.0,0.0,0.0,0.0,0.0,0.0,0.0,0.0,0.0,0.0,0.0,0.0,0.0,0.0,0.0,0.0,0.0,0.0,0.0,0.0,0.0,0.0,0.0,0.0,0.0,0.0,0.0,0.0,0.0,0.0,0.0,0.0,0.0,0.0,0.0,5.3626,5.3626,5.3626,5.3626,5.4049,5.4664,5.3933,5.3549,5.3433,5.3433,0.0,0.0,0.0,0.0,0.0,0.0,0.0,0.0,0.0,0.0,0.0,0.0,0.0,0.0,0.0,0.0,0.0,0.0,0.0,0.0,0.0,0.0,5.4895,5.5555,5.5708,5.5555,5.5054,0.0,0.0,0.0,0.0,0.0,0.0,0.0,0.0,0.0,0.0,0.0,5.7132,5.7247,5.7517,5.8204,5.8313,5.8313,5.8313,5.7627,5.7247,5.7247,5.6401,5.5939,0.0,0.0,0.0,0.0,0.0,0.0,0.0,0.0,0.0,0.0,0.0,0.0,0.0,0.0,0.0,0.0,0.0,0.0,0.0,0.0,0.0,0.0,0.0,0.0,0.0,0.0,0.0,0.0,0.0,0.0,0.0,0.0,5.5362,5.5362,0.0,0.0,0.0,0.0,0.0,0.0,0.0,0.0,0.0,0.0,0.0,0.0,0.0,5.5362,5.5362,5.5362,5.5362,5.5362,5.5362,5.5362,5.5362,5.5362,5.5439,5.5555,5.5439,0.0,5.4318,5.4318,0.0,0.0,0.0,0.0,0.0,0.0,0.0,0.0,0.0,0.0,0.0,0.0,0.0,0.0,0.0,0.0,0.0,0.0,0.0,0.0,0.0,0.0,5.5555,5.567,5.5708,5.5862,5.6516,5.6093,5.5555,5.567,5.5708,5.5708,0.0,0.0,0.0,0.0,0.0,0.0,5.8127,5.8127,5.8165,5.8275,5.8313,5.8313,5.8313,5.8198,5.8127,5.8127,5.7324,5.6824,5.6824,5.6093,0.0,0.0,0.0,0.0,0.0,0.0,0.0,0.0,0.0,0.0,0.0,0.0,0.0,0.0,0.0,0.0,0.0,0.0,0.0,0.0,0.0,0.0,0.0,0.0,0.0,0.0,0.0,0.0,0.0,5.5708,5.5708,5.5708,5.5708,5.5708,0.0,0.0,0.0,0.0,0.0,0.0,0.0,0.0,0.0,5.6401,5.6439,5.667,5.7165,5.7165,5.7165,5.7165,5.7165,5.7165,5.7165,5.7165,5.7165,5.7165,5.7165,5.6973,5.6549,5.5588,5.4934,5.4626,0.0,0.0,0.0,0.0,5.4626,5.4626,5.4626,5.4626,5.4626,5.4626,0.0,0.0,0.0,0.0,0.0,0.0,0.0,5.6555,5.7011,5.7165,5.7165,5.7165,5.7165,5.728,5.7665,5.7434,5.7165,5.7165,5.7165,5.7165,5.7165,5.7473,0.0,0.0,0.0,5.8627,5.9588,5.9704,6.0089,6.1006,6.1121,6.0935,6.0473,5.9973,5.9511,5.9011,5.8204,5.7742,5.7742,5.6901,5.6439,0.0,0.0,0.0,0.0,0.0,0.0,0.0,0.0,0.0,0.0,0.0,0.0,0.0,0.0,0.0,0.0,0.0,0.0,0.0,0.0,0.0,0.0,0.0,0.0,0.0,0.0,0.0,0.0,5.5708,5.5708,5.5708,5.5708,5.5708,0.0,0.0,0.0,0.0,0.0,0.0,5.6357,5.6357,5.6747,5.7594,5.7632,5.8055,5.8934,5.8934,5.8934,5.8934,5.8934,5.8934,5.8934,5.8934,5.8934,5.8934,5.8934,5.8934,5.8819,5.7088,5.6357,5.6357,5.6357,5.6357,5.6357,5.6357,5.6357,5.6357,5.6357,5.6357,5.6357,5.6357,5.6357,5.6357,5.6357,0.0,0.0,0.0,0.0,5.7517,5.8396,5.8627,5.866,5.8896,5.8934,5.9011,5.9204,5.9281,5.9088,5.8429,5.8313,5.8352,5.8583,5.8781,0.0,5.9242,5.9429,6.005,6.1281,6.1435,6.1935,6.316,6.3314,6.3045,6.248,6.182,6.1166,6.0506,5.9511,5.8934,5.8934,5.7901,5.7324,5.7324,0.0,0.0,0.0,0.0,0.0,0.0,0.0,0.0,0.0,0.0,0.0,0.0,0.0,0.0,0.0,0.0,0.0,0.0,0.0,0.0,0.0,0.0,0.0,0.0,0.0,0.0,0.0,0.0,0.0,5.5708,5.5708,0.0,0.0,0.0,0.0,5.6863,5.6945,5.7286,5.8127,5.8165,5.8544,5.9358,5.9358,5.9781,6.0671,6.0671,6.0671,6.0671,6.0671,6.0671,6.0671,6.0671,6.0671,6.0671,6.0671,6.0671,6.055,5.8858,5.8165,5.8165,5.8165,5.8165,5.8165,5.8165,5.8165,5.8165,5.8165,5.8165,5.8165,5.8165,5.8165,5.8165,5.8165,5.8165,0.0,0.0,5.8242,5.8429,5.9242,5.9435,5.9665,6.0473,6.0671,6.0902,6.171,6.1903,6.1172,5.8781,5.8313,5.8544,5.9319,0.0,6.0979,6.1787,6.2551,6.3083,6.316,6.316,6.3198,6.3275,6.3314,6.3275,6.3237,6.3198,6.316,6.3121,6.1589,6.0671,6.0671,5.9088,5.8242,5.8242,5.7363,0.0,0.0,0.0,0.0,0.0,0.0,0.0,0.0,0.0,0.0,0.0,0.0,0.0,0.0,0.0,0.0,0.0,0.0,0.0,0.0,0.0,0.0,0.0,0.0,0.0,0.0,0.0,0.0,5.5708,5.6209,0.0,5.6555,5.7049,5.7511,5.7819,5.8319,5.8742,5.905,5.9588,6.0281,6.1133,6.1666,6.2358,6.3243,6.3782,6.4095,6.4095,6.4095,6.4095,6.4095,6.4095,6.3782,6.3243,6.3243,6.2935,6.2358,6.1775,6.0544,5.9088,5.9088,5.8775,5.8313,5.8313,5.8627,5.9088,5.9088,5.9435,5.9896,5.9896,5.9896,5.9896,5.9896,5.9896,6.0012,6.0594,6.0748,6.0935,6.1743,6.1968,6.2006,6.2314,6.2397,6.2666,6.3512,6.3705,6.3589,6.3243,6.2281,6.1621,6.1891,6.2198,6.2506,6.282,6.3121,6.3506,6.4045,6.4122,6.4359,6.4897,6.4974,6.4743,6.416,6.4122,6.3891,6.3352,6.2737,6.2397,6.2397,6.1358,6.0473,5.9935,5.905,5.8357,0.0,0.0,0.0,0.0,0.0,0.0,0.0,0.0,0.0,0.0,0.0,0.0,0.0,0.0,0.0,0.0,0.0,0.0,0.0,0.0,0.0,0.0,0.0,0.0,0.0,5.5939,5.6132,5.6132,5.7132,5.7824,5.7824,5.8627,5.9281,5.955,6.0319,6.089,6.1204,6.205,6.2903,6.3749,6.4282,6.5006,6.5859,6.6436,6.6744,6.6744,6.6744,6.6744,6.6744,6.6744,6.6436,6.5891,6.5891,6.5545,6.5006,6.5006,6.3852,6.1973,6.1127,6.0467,6.0006,6.0006,6.0314,6.0775,6.0775,6.1166,6.1627,6.1627,6.1627,6.1627,6.1627,6.1858,6.221,6.2787,6.3172,6.3557,6.4359,6.4589,6.466,6.4968,6.5006,6.5199,6.5776,6.5891,6.6051,6.6628,6.5359,6.4275,6.4551,6.4589,6.466,6.4968,6.5006,6.5237,6.582,6.5891,6.609,6.6667,6.6744,6.6513,6.5936,6.5891,6.5506,6.4628,6.432,6.4051,6.3737,6.2935,6.2243,6.1666,6.0512,5.9511,5.8698,0.0,0.0,0.0,0.0,0.0,0.0,0.0,0.0,0.0,0.0,0.0,0.0,0.0,0.0,0.0,0.0,0.0,0.0,0.0,0.0,0.0,0.0,0.0,5.5862,5.6516,5.7093,5.7093,5.855,5.9588,5.9627,6.0396,6.1287,6.2133,6.2974,6.3775,6.4628,6.5513,6.6365,6.7173,6.7212,6.7667,6.8507,6.8545,6.8545,6.8545,6.8545,6.8545,6.8545,6.8545,6.8545,6.8468,6.8468,6.8468,6.8391,6.8391,6.7898,6.6904,6.4397,6.3391,6.3391,6.3391,6.3391,6.3429,6.3468,6.3468,6.3468,6.3468,6.3468,6.3468,6.3468,6.4045,6.4705,6.4705,6.532,6.6167,6.6942,6.7135,6.7359,6.8199,6.8391,6.8391,6.843,6.843,6.8468,6.8468,6.7167,6.6288,6.7019,6.7135,6.7436,6.8276,6.8391,0.0,6.8391,6.8391,6.8391,6.8391,6.8391,6.8391,6.8391,6.8391,6.8045,6.7173,6.6404,6.559,6.4743,6.3891,6.3391,6.3352,6.1704,6.0473,5.9627,0.0,0.0,0.0,0.0,0.0,0.0,0.0,0.0,0.0,0.0,0.0,0.0,0.0,0.0,0.0,0.0,0.0,0.0,0.0,0.0,0.0,5.778,5.7627,5.6786,5.7901,5.8819,5.8819,6.0325,6.1589,6.2198,6.3051,6.3935,6.4788,6.559,6.6167,6.6397,6.7821,6.8744,6.8975,7.0174,7.0905,7.1129,7.1776,7.2084,7.2084,7.2084,7.2084,7.2084,7.2084,7.1392,7.0206,7.0206,6.9507,6.8391,6.8391,6.8276,6.7898,6.659,6.5705,6.5205,6.5205,6.5551,6.6167,6.6776,6.7006,6.7006,6.7006,6.7006,6.7006,6.7006,6.716,6.7353,6.7353,6.7545,6.7776,6.7968,6.8045,6.8084,6.8353,6.8391,6.8584,6.9206,6.9353,6.9513,7.009,6.986,6.9206,6.8205,6.8045,6.8122,6.8353,6.8391,6.8391,6.8391,6.8391,6.8391,6.8391,6.8391,6.8391,6.8391,6.8391,6.8314,6.8045,6.7859,6.7622,6.7353,6.6513,6.5474,6.4282,6.316,6.2506,0.0,0.0,0.0,0.0,0.0,0.0,0.0,0.0,0.0,0.0,0.0,0.0,0.0,0.0,0.0,0.0,0.0,0.0,0.0,0.0,0.0,0.0,5.9127,5.9281,5.9171,5.9671,6.0319,6.1006,6.2627,6.4019,6.482,6.566,6.6551,6.7436,6.8244,6.8866,6.9212,7.0552,7.1283,7.1283,7.2245,7.2745,7.2745,7.3238,7.3507,7.3507,7.3507,7.3507,7.3507,7.3507,7.293,7.1975,7.1975,7.143,7.0545,7.0545,7.0545,7.0353,0.0,0.0,0.0,0.0,6.7244,6.7705,6.8237,6.8391,6.8391,6.8391,6.8391,6.8391,6.8391,6.866,6.9007,6.9353,6.9706,7.009,7.043,7.0545,7.0545,7.0545,7.0545,7.0661,7.1161,7.1283,7.143,7.1898,7.1975,0.0,7.0699,7.0238,7.0129,7.0468,7.0545,7.0545,7.0545,7.0545,7.0545,7.0545,7.0199,6.9975,6.9975,6.9667,0.0,0.0,0.0,6.8776,6.843,6.7898,0.0,0.0,0.0,6.4397,6.4397,6.3205,0.0,0.0,5.9752,5.9433,0.0,0.0,0.0,0.0,0.0,0.0,0.0,0.0,0.0,0.0,0.0,0.0,0.0,0.0,0.0,0.0,6.0589,6.1518,6.2403,6.1941,6.2012,6.3429,6.5128,6.6558,6.7443,6.8244,6.9084,7.0052,7.0783,7.1514,7.2322,7.3168,0.0,0.0,0.0,7.3776,7.3776,7.3776,7.3776,7.3776,7.3776,7.3776,7.3776,7.3776,7.3738,7.3623,7.3623,7.3584,7.3507,7.3507,7.3507,7.3199,7.0161,6.8968,6.8968,6.8968,6.8968,6.8968,6.8968,0.0,0.0,6.8968,6.8968,6.8968,6.8968,6.9507,7.0283,7.0975,7.1745,7.2514,7.3315,7.3507,7.3507,7.3507,7.3507,7.3507,7.3507,7.3507,7.3507,7.3507,7.3507,7.3546,7.3623,7.2937,7.2591,7.3392,7.3507,7.3507,7.3507,7.3507,7.3507,7.3507,7.2822,0.0,7.2367,7.1629,7.0898,7.0167,7.0052,6.9552,6.8584,6.8545,6.8507,6.8391,6.6936,6.6167,6.6167,6.4622,6.3891,6.3814,6.1935,6.1089,0.0,0.0,0.0,0.0,0.0,0.0,0.0,0.0,0.0,0.0,0.0,0.0,0.0,0.0,0.0,6.1556,6.2858,6.4166,6.5057,6.5596,6.575,6.5436,6.6898,6.8507,7.0014,7.0321,7.1091,7.2661,7.2892,7.3084,7.3238,7.4007,7.4469,7.4469,7.5168,7.5515,7.5515,7.5515,7.5515,7.5515,7.5515,0.0,7.5515,7.5515,7.513,7.4469,7.4469,7.4084,7.3507,7.3507,7.3507,7.343,7.2776,7.2507,7.2507,7.2507,7.2507,7.2507,7.2507,7.2507,7.2507,7.2507,7.2507,7.2507,7.2507,7.2622,0.0,7.293,7.3122,7.3276,7.3469,7.3507,7.3507,7.3507,7.3507,7.3507,7.3507,7.3507,7.3507,7.3507,7.3507,7.3699,7.4353,7.3776,7.3315,7.3469,7.3507,7.3507,7.3507,7.3507,7.3507,7.3507,7.3353,7.3238,7.3238,7.3084,7.293,7.2776,7.2091,7.1014,6.9513,6.9436,6.9122,6.8391,6.8084,6.793,6.793,6.7583,6.743,6.7353,6.4237,6.2814,0.0,0.0,0.0,0.0,0.0,0.0,0.0,0.0,0.0,0.0,0.0,6.1441,6.1441,0.0,6.2974,6.3865,6.4711,6.5705,6.6974,6.7859,6.8244,6.7859,6.8898,7.0167,7.1437,7.1937,7.2738,7.4007,7.4084,7.4276,7.4738,7.513,7.5361,7.5361,7.5784,7.6015,7.6015,7.6015,7.6015,7.6015,7.6015,7.6015,7.6015,7.6015,7.5745,7.5361,7.5361,7.513,7.4745,7.4745,7.4745,7.4745,7.4745,7.4238,7.3507,7.3507,7.3507,7.3507,7.3507,7.3507,7.3507,7.3507,7.3507,7.3507,7.3507,7.3507,7.3584,7.4007,7.4084,7.4199,7.463,7.4745,7.4745,7.4745,7.4745,7.4745,7.4745,7.4745,7.4745,7.4745,7.4745,7.4899,7.5284,7.5014,7.4745,7.4745,7.4745,7.4745,7.4745,7.4745,7.4745,7.4745,7.4353,7.4084,7.4084,7.3738,7.3507,7.3507,7.3084,7.2476,7.1622,7.1168,7.0744,7.0321,6.9475,6.9045,6.9045,6.8622,6.8391,6.8353,6.666,6.5853,0.0,0.0,0.0,0.0,0.0,0.0,0.0,6.0787,6.0864,6.1018,6.1595,6.221,6.2518,6.3243,6.4314,6.5859,6.6404,6.7128,6.8468,6.9552,7.0206,7.0206,7.0744,7.1552,7.2591,7.3322,7.4084,7.4892,7.493,7.5245,7.5976,7.6015,7.6015,7.6015,7.6015,7.6015,7.6015,7.6015,7.6015,7.6015,7.6015,7.6015,7.6015,7.6015,7.6015,7.6015,7.6015,7.6015,7.6015,7.6015,7.6015,7.6015,7.6015,7.5168,7.4007,7.4007,7.4007,7.4007,7.4007,7.4007,7.4007,7.4007,7.4007,7.4007,7.4007,7.4007,7.4123,7.4776,7.493,7.513,7.5822,7.6015,7.6015,7.6015,7.6015,7.6015,7.6015,7.6015,7.6015,7.6015,7.6015,7.6015,7.6015,7.6015,7.6015,7.6015,7.6015,7.6015,7.6015,7.6015,7.6015,7.6015,7.5361,7.493,7.493,7.4353,7.3892,7.3738,7.3738,7.3661,7.3507,7.2822,7.2437,7.2437,7.1129,7.0437,7.0437,6.9545,6.9122,6.9122,6.8968,6.8699,5.965,5.9862,6.029,6.0716,6.0787,6.0787,0.0,6.0787,6.1018,6.1787,6.2018,6.2557,6.4051,6.5013,6.5904,6.6827,6.8244,6.936,6.9513,7.0937,7.1905,7.1905,7.2021,7.2668,7.4284,7.4507,7.4938,7.5784,7.5861,7.5899,7.5976,7.6015,7.6015,7.6015,7.6015,7.6015,7.6015,7.6015,7.6015,7.6015,7.6015,7.6015,7.6015,7.6015,7.6015,7.6015,7.6015,7.6015,7.6015,7.6015,7.6015,7.6015,7.6015,7.5899,7.5707,7.5707,7.5707,7.5707,7.5707,7.5707,7.5707,7.5707,7.5707,7.5707,7.5707,7.5707,7.5745,7.5822,7.5861,7.5861,7.5976,7.6015,7.6015,7.6015,7.6015,7.6015,7.6015,7.6015,7.6015,7.6015,7.6015,7.6015,7.6015,7.6015,7.6015,7.6015,7.6015,7.6015,7.6015,7.6015,7.6015,7.6015,7.5899,7.5861,7.5861,7.5784,7.5399,7.4623,7.4584,7.4238,7.3546,7.3392,7.3353,7.3353,7.3161,7.3084,7.3084,7.2206,7.179,7.1752,7.0975,6.9821,5.9862,5.9946,6.0203,6.0665,6.0787,6.0941,6.1441,6.1556,6.1787,6.2627,6.3589,6.4519,6.5243,6.6436,6.7628,6.8475,6.9629,7.0591,7.1091,7.2206,7.3129,7.3591,7.3668,7.3937,7.4623,7.5168,7.563,7.5976,7.6015,7.6015,7.6015,7.6015,7.6015,7.6015,7.6015,7.6015,7.6015,7.6015,7.6015,7.6015,7.6015,7.6015,7.6015,7.6015,7.6015,7.6015,7.6015,7.6015,7.6015,7.6015,7.6015,7.6015,7.6015,7.6015,7.6015,7.6015,7.6015,7.6015,7.6015,7.6015,7.6015,7.6015,7.6015,7.6015,7.6015,7.6015,7.6015,7.6015,7.6015,7.6015,7.6015,7.6015,7.6015,7.6015,7.6015,7.6015,7.6015,7.6015,7.6015,7.6015,7.6015,7.6015,7.6015,7.6015,7.6015,7.6015,7.6015,7.6015,7.6015,7.6015,7.6015,7.6015,7.6015,7.6015,7.6015,7.6015,7.5822,7.5476,7.5476,7.5322,7.4976,7.4469,7.4199,7.4199,7.3738,7.3507,7.3507,7.3122,7.2976,7.2937,7.2584,7.2045,6.0249,6.0426,6.0669,6.1069,6.132,6.1666,6.2287,6.2441,6.2743,6.3814,6.5013,6.609,6.6821,6.7936,6.9122,7.0206,7.086,7.1552,7.2437,7.3283,7.4046,7.4623,7.4892,7.5046,7.5046,7.563,7.6015,7.6015,7.6015,7.6015,7.6015,7.6015,7.6015,7.6015,7.6015,7.6015,7.6015,7.6015,7.6015,7.6015,7.6015,7.6015,7.6015,7.6015,7.6015,7.6015,7.6015,7.6015,7.6015,7.6015,7.6015,7.6015,7.6015,7.6015,7.6015,7.6015,7.6015,7.6015,7.6015,7.6015,7.6015,7.6015,7.6015,7.6015,7.6015,7.6015,7.6015,7.6015,7.6015,7.6015,7.6015,7.6015,7.6015,7.6015,7.6015,7.6015,7.6015,7.6015,7.6015,7.6015,7.6015,7.6015,7.6015,7.6015,7.6015,7.6015,7.6015,7.6015,7.6015,7.6015,7.6015,7.6015,7.6015,7.6015,7.6015,7.6015,7.6015,7.6015,7.6015,7.6015,7.6015,7.5399,7.5046,7.5046,7.4469,7.4199,7.4199,7.393,7.3815,7.3815,7.3584,7.3507,6.0548,6.12,6.189,6.2004,6.2666,6.3237,6.3275,6.3275,6.3737,6.5474,6.5865,6.6667,6.9129,6.9629,7.0206,7.1867,7.2136,7.2476,7.3353,7.4161,7.4661,7.47,7.5438,7.5976,7.5976,7.5976,7.6015,7.6015,7.6015,7.6015,7.6015,7.6015,7.6015,7.6015,7.6015,7.6015,7.6015,7.6015,7.6015,7.6015,7.6015,7.6015,7.6015,7.6015,7.6015,7.6015,7.6015,7.6015,7.6015,7.6015,7.6015,7.6015,7.6015,7.6015,7.6015,7.6015,7.6015,7.6015,7.6015,7.6015,7.6015,7.6015,7.6015,7.6015,7.6015,7.6015,7.6015,7.6015,7.6015,7.6015,7.6015,7.6015,7.6015,7.6015,7.6015,7.6015,7.6015,7.6015,7.6015,7.6015,7.6015,7.6015,7.6015,7.6015,7.6015,7.6015,7.6015,7.6015,7.6015,7.6015,7.6015,7.6015,7.6015,7.6015,7.6015,7.6015,7.6015,7.6015,7.6015,7.6015,7.6015,7.5976,7.5976,7.5976,7.5938,7.5938,7.5938,7.5084,7.4661,7.4623,7.3853,7.3507,6.1385,6.1919,6.2437,6.2823,6.3083,6.3468,6.4045,6.4166,6.4628,6.6365,6.6856,6.747,6.8855,6.9589,7.0354,7.1472,7.2463,7.336,7.4161,7.5014,7.5553,7.5553,7.5822,7.6015,7.6015,7.6015,7.6015,7.6015,7.6015,7.6015,7.6015,7.6015,7.6015,7.6015,7.6015,7.6015,7.6015,7.6015,7.6015,7.6015,7.6015,7.6015,7.6015,7.6015,7.6015,7.6015,7.6015,7.6015,7.6015,7.6015,7.6015,7.6015,7.6015,7.6015,7.6015,7.6015,7.6015,7.6015,7.6015,7.6015,7.6015,7.6015,7.6015,7.6015,7.6015,7.6015,7.6015,7.6015,7.6015,7.6015,7.6015,7.6015,7.6015,7.6015,7.6015,7.6015,7.6015,7.6015,7.6015,7.6015,7.6015,7.6015,7.6015,7.6015,7.6015,7.6015,7.6015,7.6015,7.6015,7.6015,7.6015,7.6015,7.6015,7.6015,7.6015,7.6015,7.6015,7.6015,7.6015,7.6015,7.6015,7.6015,7.6015,7.6015,7.6015,7.6015,7.6015,7.5707,7.5553,7.5553,7.5284,7.5168,6.2489,6.3025,6.3526,6.3732,6.4006,6.4397,6.4936,6.5282,6.5821,6.7037,6.7676,6.8236,6.887,6.9602,7.0433,7.1397,7.2444,7.3561,7.4681,7.5341,7.5779,7.5962,7.6015,7.6015,7.6015,7.6015,7.6015,7.6015,7.6015,7.6015,7.6015,7.6015,7.6015,7.6015,7.6015,7.6015,7.6015,7.6015,7.6015,7.6015,7.6015,7.6015,7.6015,7.6015,7.6015,7.6015,7.6015,7.6015,7.6015,7.6015,7.6015,7.6015,7.6015,7.6015,7.6015,7.6015,7.6015,7.6015,7.6015,7.6015,7.6015,7.6015,7.6015,7.6015,7.6015,7.6015,7.6015,7.6015,7.6015,7.6015,7.6015,7.6015,7.6015,7.6015,7.6015,7.6015,7.6015,7.6015,7.6015,7.6015,7.6015,7.6015,7.6015,7.6015,7.6015,7.6015,7.6015,7.6015,7.6015,7.6015,7.6015,7.6015,7.6015,7.6015,7.6015,7.6015,7.6015,7.6015,7.6015,7.6015,7.6015,7.6015,7.6015,7.6015,7.6015,7.6015,7.6015,7.6015,7.6015,7.6015,7.6015,7.6015,6.3837,6.4504,6.5077,6.4738,6.5269,6.5878,6.5878,6.6436,6.709,6.7496,6.816,6.8774,6.9164,6.9701,7.0454,7.1594,7.2263,7.324,7.4907,7.5136,7.5379,7.5932,7.6015,7.6015,7.6015,7.6015,7.6015,7.6015,7.6015,7.6015,7.6015,7.6015,7.6015,7.6015,7.6015,7.6015,7.6015,7.6015,7.6015,7.6015,7.6015,7.6015,7.6015,7.6015,7.6015,7.6015,7.6015,7.6015,7.6015,7.6015,7.6015,7.6015,7.6015,7.6015,7.6015,7.6015,7.6015,7.6015,7.6015,7.6015,7.6015,7.6015,7.6015,7.6015,7.6015,7.6015,7.6015,7.6015,7.6015,7.6015,7.6015,7.6015,7.6015,7.6015,7.6015,7.6015,7.6015,7.6015,7.6015,7.6015,7.6015,7.6015,7.6015,7.6053,7.6053,7.6053,7.6092,7.6092,7.6015,7.6015,7.6015,7.6015,7.6015,7.6015,7.6015,7.6015,7.6015,7.6015,7.6015,7.6015,7.6015,7.6015,7.6015,7.6015,7.6015,7.6015,7.6015,7.6015,7.6015,7.6015,7.6015,7.6015,6.4777,6.5212,6.5678,6.5609,6.543,6.5298,6.5298,6.518,6.5434,6.6739,6.6844,6.7112,6.8466,6.9148,7.0011,7.1563,7.265,7.386,7.5518,7.5787,7.5826,7.5962,7.6015,7.6015,7.6015,7.6015,7.6015,7.6015,7.6015,7.6015,7.6015,7.6015,7.6015,7.6015,7.6015,7.6015,7.6015,7.6015,7.6015,7.6015,7.6015,7.6015,7.6015,7.6015,7.6015,7.6015,7.6015,7.6015,7.6015,7.6015,7.6015,7.6015,7.6015,7.6015,7.6015,7.6015,7.6015,7.6015,7.6015,7.6015,7.6015,7.6015,7.6015,7.6015,7.6015,7.6015,7.6015,7.6015,7.6015,7.6015,7.6015,7.6015,7.6015,7.6015,7.6015,7.6015,7.6015,7.6015,7.6015,7.6015,7.6015,7.6015,7.6015,7.6553,7.6984,7.6984,7.7484,7.74,7.6169,7.6015,7.6015,7.6015,7.6015,7.6015,7.6015,7.6015,7.6015,7.6015,7.6015,7.6015,7.6015,7.6015,7.6015,7.6015,7.6015,7.6015,7.6015,7.6015,7.6015,7.6015,7.6015,7.6015,6.5403,6.5945,6.6442,6.6442,6.605,6.5679,6.5679,6.53,6.5105,6.5769,6.6275,6.6779,6.7469,6.8533,6.9758,7.12,7.2395,7.3705,7.5362,7.56,7.5702,7.5954,7.6015,7.6015,7.6015,7.6015,7.6015,7.6015,7.6015,7.6015,7.6015,7.6015,7.6015,7.6015,7.6015,7.6015,7.6015,7.6015,7.6015,7.6015,7.6015,7.6015,7.6015,7.6015,7.6015,7.6015,7.6015,7.6015,7.6015,7.6015,7.6015,7.6015,7.6015,7.6015,7.6015,7.6015,7.6015,7.6015,7.6015,7.6245,7.6515,7.613,7.6015,7.6015,7.6015,7.6015,7.6015,7.6015,7.6015,7.6015,7.6015,7.6015,7.6015,7.6015,7.6015,7.6015,7.6015,7.6015,7.6092,7.6515,7.6861,7.7092,7.7092,7.7484,7.783,7.783,7.8215,7.8176,7.7215,7.7092,7.7092,7.7092,7.7092,7.6938,7.6592,7.6553,7.6399,7.6015,7.6015,7.6015,7.6015,7.6015,7.6015,7.6015,7.6015,7.6015,7.6015,7.6015,7.6015,7.6015,7.6015,7.6015,6.5781,6.6481,6.7096,6.7096,6.6739,6.6388,6.6293,6.5809,6.5219,6.4774,6.5963,6.6924,6.6557,6.7976,6.9627,7.0899,7.1958,7.3193,7.4951,7.5236,7.5421,7.5939,7.6015,7.6015,7.6015,7.6015,7.6015,7.6015,7.6015,7.6015,7.6015,7.6015,7.6015,7.6015,7.6015,7.6015,7.6015,7.6015,7.6015,7.6015,7.6015,7.6015,7.6015,7.6015,7.6015,7.6015,7.6015,7.6015,7.6015,7.6015,7.6015,7.6015,7.613,7.6169,7.6207,7.6284,7.6322,7.6322,7.6322,7.6823,7.733,7.6438,7.6245,7.6322,7.6322,7.6322,7.6322,7.6322,7.6322,7.6322,7.6322,7.6322,7.6322,7.6322,7.6322,7.6322,7.6322,7.6322,7.6553,7.733,7.8023,7.8484,7.8484,7.86,7.8677,7.8677,7.8754,7.8869,7.8869,7.8638,7.8484,7.8484,7.8484,7.8215,7.7522,7.7445,7.7099,7.6245,7.6169,7.613,7.6015,7.6015,7.6015,7.6015,7.6015,7.6015,7.6015,7.6015,7.6015,7.6015,7.6015,7.6015,6.5885,6.6481,6.7096,6.7096,6.6739,6.6268,6.5858,6.4823,6.3981,6.4181,6.4965,6.581,6.6392,6.7691,6.9308,7.1342,7.2187,7.3369,7.5518,7.5833,7.5864,7.6007,7.6015,7.6015,7.6015,7.6015,7.6015,7.6015,7.6015,7.6015,7.6015,7.6015,7.6015,7.6015,7.6015,7.6015,7.6015,7.6015,7.6015,7.6015,7.6015,7.6015,7.6015,7.6015,7.6015,7.6015,7.6015,7.6015,7.6015,7.6015,7.6015,7.6053,7.6784,7.7053,7.7176,7.783,7.8061,7.8061,7.8061,7.8176,7.8176,7.733,7.7522,7.8061,7.8061,7.8061,7.8061,7.8061,7.8061,7.8061,7.8061,7.8061,7.8061,7.8061,7.8061,7.8061,7.8061,7.8061,7.8099,7.8253,7.8407,7.8484,7.8484,7.9092,7.9592,7.9592,8.0208,8.0631,8.0631,7.9408,7.8484,7.8484,7.8484,7.8446,7.8292,7.8292,7.7946,7.7138,7.7053,7.6746,7.6015,7.6015,7.6015,7.6015,7.6015,7.6015,7.6015,7.6015,7.6015,7.6015,7.6015,7.6015,6.5904,6.6481,6.7096,6.7096,6.6739,6.6251,6.5709,6.4568,6.3565,6.3456,6.409,6.4934,6.5742,6.6963,6.8516,7.0455,7.1777,7.3136,7.4692,7.5549,7.6015,7.6015,7.6015,7.6015,7.6015,7.6015,7.6015,7.6015,7.6015,7.6015,7.6015,7.6015,7.6015,7.6015,7.6015,7.6015,7.6015,7.6015,7.6015,7.6015,7.6015,7.6015,7.6015,7.6015,7.6015,7.6015,7.6015,7.6015,7.6053,7.6476,7.6669,7.6746,7.7599,7.7907,7.7984,7.8369,7.8484,7.8484,7.8484,7.8792,7.9092,7.8746,7.8561,7.8484,7.8484,7.8484,7.8484,7.8484,7.8484,7.8484,7.8484,7.8484,7.8484,7.8484,7.8484,7.8484,7.8484,7.8869,7.9169,7.9169,7.9554,7.9862,7.9862,8.0208,8.0477,8.0477,8.0823,8.1093,8.1093,8.0362,7.9862,7.9862,7.9862,7.9669,7.9208,7.9169,7.8823,7.7984,7.7907,7.7561,7.6707,7.6669,7.6476,7.6015,7.6015,7.6015,7.6015,7.6015,7.6015,7.6015,7.6015,7.6015,6.5904,6.6481,6.7096,6.7096,6.6804,6.6365,6.5737,6.466,6.3609,6.2917,6.3503,6.436,6.5141,6.6285,6.7699,6.9515,7.1185,7.2632,7.3765,7.5006,7.5841,7.5969,7.6015,7.6015,7.6015,7.6015,7.6015,7.6015,7.6015,7.6015,7.6015,7.6015,7.6015,7.6015,7.6015,7.6015,7.6015,7.6015,7.6015,7.6015,7.6015,7.6015,7.6015,7.6015,7.6015,7.6015,7.6015,7.6092,7.6322,7.7015,7.7407,7.7638,7.8446,7.8792,7.8792,7.8984,7.9061,7.9061,7.9061,7.9515,8.0092,8.0092,7.9631,7.9061,7.9061,7.9061,7.9061,7.9061,7.9061,7.9061,7.9061,7.9061,7.9061,7.9061,7.9061,7.9061,7.9061,7.9592,8.0092,8.0092,8.0631,8.1093,8.1093,8.1093,8.1093,8.1093,8.1093,8.1093,8.1093,8.1093,8.1093,8.1093,8.1093,8.0823,8.0131,8.0092,7.9708,7.8823,7.8792,7.8407,7.7599,7.7407,7.6984,7.6284,7.6092,7.6015,7.6015,7.6015,7.6015,7.6015,7.6015,7.6015,6.5904,6.6481,6.7096,6.7096,6.707,6.6789,6.5811,6.4954,6.4019,6.3014,6.3503,6.436,6.5141,6.6014,6.7279,6.9444,7.0555,7.1801,7.3637,7.4658,7.5396,7.5932,7.6015,7.6015,7.6015,7.6015,7.6015,7.6015,7.6015,7.6015,7.6015,7.6015,7.6015,7.6015,7.6015,7.6015,7.6015,7.6015,7.6015,7.6015,7.6015,7.6015,7.6015,7.6015,7.6015,7.6015,7.6015,7.6438,7.7176,7.7253,7.7715,7.8484,7.9323,7.9669,7.9777,8.0554,8.0862,8.0862,8.0862,8.09,8.0977,8.0977,8.0939,8.0862,8.0862,8.0862,8.0862,8.0862,8.0862,8.0862,8.0862,8.0862,8.0862,8.0862,8.0862,8.0862,8.0862,8.0939,8.0977,8.0977,8.1054,8.1093,8.1093,8.1093,8.1093,8.1093,8.1093,8.1093,8.1093,8.1093,8.1093,8.1093,8.1093,8.1054,8.0977,8.0977,8.0592,7.9746,7.9669,7.9285,7.8446,7.7676,7.7253,7.7176,7.6399,7.6015,7.6015,7.6015,7.6015,7.6015,7.6015,7.6015,6.5904,6.6134,6.6365,6.6365,6.613,6.5742,6.5037,6.4364,6.3702,6.2941,6.3086,6.3723,6.5031,6.5545,6.6384,6.8242,6.993,7.1249,7.2051,7.3573,7.4828,7.5396,7.5455,7.5592,7.5954,7.6015,7.6015,7.6015,7.6015,7.6015,7.6015,7.6015,7.6015,7.6015,7.6015,7.6015,7.6015,7.6015,7.6015,7.6015,7.6015,7.6015,7.6015,7.6015,7.6015,7.6015,7.6553,7.6984,7.7369,7.84,7.8977,7.9361,8.0246,8.0592,8.0631,8.0977,8.1093,8.1093,8.1093,8.1093,8.1093,8.1093,8.1093,8.1093,8.1093,8.1093,8.1093,8.1093,8.1093,8.1093,8.1093,8.1093,8.1093,8.1093,8.1093,8.1093,8.1093,8.1093,8.1093,8.1093,8.1093,8.1093,8.1093,8.1093,8.1093,8.1093,8.1093,8.1093,8.1093,8.1093,8.1093,8.1093,8.1093,8.1093,8.1093,8.1093,8.0939,8.0592,8.0592,8.0208,7.9323,7.8977,7.8554,7.8023,7.7215,7.6784,7.6784,7.6245,7.6015,7.6015,7.6015,7.6015,6.5904,6.5904,6.5904,6.5904,6.552,6.4995,6.45,6.4005,6.3453,6.2892,6.2793,6.3233,6.4677,6.5141,6.5742,6.71,6.9228,7.0809,7.097,7.2759,7.426,7.4818,7.4876,7.5073,7.5686,7.591,7.6015,7.6015,7.6015,7.6015,7.6015,7.6015,7.6015,7.6015,7.6015,7.6015,7.6015,7.6015,7.6015,7.6015,7.6015,7.6015,7.6015,7.6015,7.613,7.6399,7.7022,7.7592,7.813,7.9323,7.9931,8.0246,8.0862,8.1093,8.1093,8.1093,8.1093,8.1093,8.1093,8.1093,8.1093,8.1093,8.1093,8.1093,8.1093,8.1093,8.1093,8.1093,8.1093,8.1093,8.1093,8.1093,8.1093,8.1093,8.1093,8.1093,8.1093,8.1093,8.1093,8.1093,8.1093,8.1093,8.1093,8.1093,8.1093,8.1093,8.1093,8.1093,8.1093,8.1093,8.1093,8.1093,8.1093,8.1093,8.1093,8.1093,8.1093,8.1093,8.1093,8.0823,8.0208,7.9931,7.9515,7.8907,7.8061,7.7638,7.7638,7.6791,7.6361,7.6361,7.613,7.6015,6.5904,6.5904,6.5904,6.5904,6.552,6.4995,6.45,6.4005,6.3453,6.2892,6.2793,6.305,6.3943,6.4751,6.5582,6.6366,6.8545,7.031,7.0933,7.2373,7.3614,7.4239,7.4304,7.4527,7.5063,7.5662,7.6015,7.6015,7.6015,7.6015,7.6015,7.6015,7.6015,7.6015,7.6015,7.6015,7.6015,7.6015,7.6015,7.6015,7.6015,7.6015,7.6015,7.6015,7.6476,7.7292,7.7292,7.8246,7.9777,7.9777,8.0323,8.1093,8.1093,8.1093,8.1093,8.1093,8.1093,8.1093,8.1093,8.1093,8.1093,8.1093,8.1093,8.1093,8.1093,8.1093,8.1093,8.1093,8.1093,8.1093,8.1093,8.1093,8.1093,8.1093,8.1093,8.1093,8.1093,8.1093,8.1093,8.1093,8.1093,8.1093,8.1093,8.1093,8.1093,8.1093,8.1093,8.1093,8.1093,8.1093,8.1093,8.1093,8.1093,8.1093,8.1093,8.1093,8.1093,8.1093,8.1093,8.1093,8.1093,8.0246,7.9815,7.9777,7.8938,7.8484,7.8484,7.7676,7.7292,7.7253,7.6399,7.6015,6.5904,6.5649,6.5335,6.5335,6.4713,6.4039,6.3903,6.3442,6.3002,6.283,6.2793,6.305,6.3956,6.4751,6.5545,6.6366,6.8531,7.0156,7.0364,7.2144,7.3614,7.4228,7.499,7.5518,7.5694,7.5902,7.6015,7.6015,7.6015,7.6015,7.6015,7.6015,7.6015,7.6015,7.6015,7.6015,7.6015,7.6015,7.6015,7.6015,7.6015,7.6015,7.6015,7.663,7.7061,7.7369,7.8515,7.9323,7.9854,8.0439,8.0862,8.1093,8.1093,8.1093,8.1093,8.1093,8.1093,8.1093,8.1093,8.1093,8.1093,8.1093,8.1093,8.1093,8.1093,8.1093,8.1093,8.1093,8.1093,8.1093,8.1093,8.1093,8.1093,8.1093,8.1093,8.1093,8.1093,8.1093,8.1093,8.1093,8.1093,8.1093,8.1093,8.1093,8.1093,8.1093,8.1093,8.1093,8.1093,8.1093,8.1093,8.1093,8.1093,8.1093,8.1093,8.1093,8.1093,8.1093,8.1093,8.1093,8.1093,8.0823,8.0708,8.0708,7.9823,7.94,7.94,7.8523,7.8138,7.8099,7.7292,7.6899,6.5904,6.5663,6.5335,6.5146,6.4509,6.385,6.3637,6.318,6.2793,6.2793,6.2793,6.305,6.3956,6.4751,6.5545,6.6366,6.8531,7.017,7.0417,7.2132,7.3614,7.4228,7.5101,7.567,7.567,7.5887,7.6015,7.6015,7.6015,7.6015,7.6015,7.6015,7.6015,7.6015,7.6015,7.6015,7.6015,7.6015,7.6015,7.6015,7.6015,7.6169,7.6515,7.7061,7.763,7.8284,7.9361,7.9969,0.0,8.09,8.1093,8.1093,8.1093,8.1093,8.1093,8.1093,8.1093,8.1093,8.1093,8.1093,8.1093,8.1093,8.1093,8.1093,8.1093,8.1093,8.1093,8.1093,8.1093,8.1093,8.1093,8.1093,8.1093,8.1093,8.1093,8.1093,8.1093,8.1093,8.1093,8.1093,8.1093,8.1093,8.1093,8.1093,8.1093,8.1093,8.1093,8.1093,8.1093,8.1093,8.1093,8.1093,8.1093,8.1093,8.1093,8.1093,8.1093,8.1093,8.1093,8.1093,8.1093,8.1093,8.1093,8.1093,8.0554,8.0277,8.0277,7.94,7.883,7.8484,7.8059,7.7857,0.0,6.5885,6.571,6.52,6.4713,6.4197,6.3702,6.3215,0.0,6.2805,6.283,6.3112,6.3956,6.4789,6.561,6.6379,6.8589,7.0417,7.0909,7.2447,7.3747,7.4347,7.4866,7.5154,7.5154,7.5678,7.6015,7.6015,7.6015,7.6015,7.6015,7.6015,7.6015,7.6015,7.6015,7.6015,7.6015,7.6015,7.6015,7.6015,7.6053,7.6515,7.7292,7.7407,7.8323,7.9815,7.9854,8.0362,8.1093,8.1093,8.1093,8.1093,8.1093,8.1093,8.1093,8.1093,8.1093,8.1093,8.1093,8.1093,8.1093,8.1093,8.1093,8.1093,8.1093,8.1093,8.1093,8.1093,8.1093,8.1093,8.1093,8.1093,8.1093,8.1093,8.1093,8.1093,8.1093,8.1093,8.1093,8.1093,8.1093,8.1093,8.1093,8.1093,8.1093,8.1093,8.1093,8.1093,8.1093,8.1093,8.1093,8.1093,8.1093,8.1093,8.1093,8.1093,8.1093,8.1093,8.1093,8.1093,8.1093,8.1093,8.1093,8.1093,8.1093,8.1093,8.1093,8.0285,7.9492,7.8729,7.8811,7.8889,6.5904,0.0,6.5268,6.513,6.4454,6.3755,0.0,6.3509,6.3308,6.2892,6.3109,6.3567,6.4007,6.509,6.6024,6.6457,6.926,7.1286,7.1043,7.3123,7.4933,7.5518,7.5702,7.5803,7.5803,7.5924,7.6015,7.6015,7.6015,7.6015,7.6015,7.6015,7.6015,7.6015,7.6015,7.6015,7.6015,7.6015,7.6015,7.6015,7.6669,7.7099,7.733,7.8631,7.9431,7.9854,8.0516,8.09,8.1093,8.1093,8.1093,8.1093,8.1093,8.1093,8.1093,8.1093,8.1093,8.1093,8.1093,8.1093,8.1093,8.1093,8.1093,8.1093,8.1093,8.1093,8.1093,8.1093,8.1093,8.1093,8.1093,8.1093,8.1093,8.1093,8.1093,8.1093,8.1093,8.1093,8.1093,8.1093,8.1093,8.1093,8.1093,8.1093,8.1093,8.1093,8.1093,8.1093,8.1093,8.1093,8.1093,8.1093,8.1093,8.1093,8.1093,8.1093,8.1093,8.1093,8.1093,8.1093,8.1093,8.1093,8.1093,8.1093,8.1093,8.1093,8.1093,8.09,8.075,8.0711,7.9941,7.9718,6.5904,6.569,6.5417,6.5154,6.4705,6.4178,6.3702,6.3787,6.3819,6.3296,6.3682,6.4391,6.5176,6.6078,6.7032,6.8178,7.0297,7.2067,7.279,7.44,7.5616,7.5954,7.6015,7.6015,7.6015,7.6015,7.6015,7.6015,7.6015,7.6015,7.6015,7.6015,7.6015,7.6015,7.6015,7.6015,7.6015,7.6015,7.6207,7.6592,7.7053,7.7707,7.8477,7.94,8.0015,8.0439,8.09,8.1093,8.1093,8.1093,8.1093,8.1093,8.1093,8.1093,8.1093,8.1093,8.1093,8.1093,8.1093,8.1323,8.1631,8.1631,8.19,8.2247,8.2247,8.2247,8.2093,8.1323,8.1093,8.1093,8.1093,8.1093,8.1093,8.1093,8.1093,8.1093,8.1093,8.1093,8.1093,8.1093,8.1093,8.1093,8.1093,8.1093,8.1093,8.1093,8.1093,8.1093,8.1093,8.1093,8.1093,8.1093,8.1093,8.1093,8.1093,8.1093,8.1093,8.1093,8.1093,8.1093,8.1093,8.1093,8.1093,8.1093,8.1093,8.1093,8.1093,8.1203,8.1311,8.1374,8.0981,8.0945,6.5904,6.5904,6.5795,6.5321,6.5154,6.4875,6.4019,6.4178,6.4389,6.399,6.4497,6.5426,6.6763,6.7309,6.8194,7.0263,7.1443,7.2858,7.4954,7.5686,7.6015,7.6015,7.6015,7.6015,7.6015,7.6015,7.6015,7.6015,7.6015,7.6015,7.6015,7.6015,7.6015,7.6015,7.6015,7.6015,7.6015,7.6015,7.6438,7.7292,7.7407,7.8284,7.9815,7.9931,8.04,8.1093,8.1093,8.1093,8.1093,8.1093,8.1093,8.1093,8.1093,8.1093,8.1093,8.1093,8.1093,8.1131,8.1246,8.1823,8.2516,8.2516,8.2986,8.3601,8.3601,8.3601,8.3293,8.1862,8.1477,8.1477,8.1477,8.1477,8.1439,8.1323,8.1285,8.1246,8.1131,8.1093,8.1093,8.1093,8.1093,8.1093,8.1093,8.1093,8.1093,8.1093,8.1093,8.1093,8.1093,8.1093,8.1093,8.1093,8.1093,8.1093,8.1093,8.1093,8.1093,8.1093,8.1093,8.1093,8.1093,8.1093,8.1124,8.1146,8.1146,8.1176,8.1196,8.1347,8.1464,8.1517,8.1822,8.1984,6.5904,6.5904,6.5891,6.5795,6.5439,6.5075,6.49,6.4924,6.504,6.5238,6.5735,6.652,6.7665,6.8318,6.9082,7.0385,7.2263,7.4111,7.5641,7.5939,7.6015,7.6015,7.6015,7.6015,7.6015,7.6015,7.6015,7.6015,7.6015,7.6015,7.6015,7.6015,7.6015,7.6015,7.6015,7.6015,7.6015,7.6015,7.6438,7.733,7.7984,7.8823,7.9815,8.0554,8.0977,8.1093,8.1093,8.1093,8.1093,8.1093,8.1093,8.1093,8.1093,8.1093,8.1093,8.1093,8.1093,8.1208,8.1862,8.267,8.3409,8.3409,8.3486,8.3601,8.3601,8.3601,8.3563,8.3293,8.3216,8.3216,8.3216,8.3216,8.3024,8.2285,8.2131,8.1939,8.1246,8.1093,8.1093,8.1093,8.1093,8.1093,8.1093,8.1093,8.1093,8.1093,8.1093,8.1093,8.1093,8.1093,8.1093,8.1093,8.1093,8.1093,8.1093,8.1093,8.1093,8.1093,8.1093,8.1093,8.1093,8.1093,8.1174,8.1367,8.1335,8.1425,8.1618,8.1658,8.1725,8.1894,8.1812,8.1914,6.5904,6.5904,6.5904,6.5904,6.5703,6.5561,6.5764,6.6001,6.6276,6.6615,6.7216,6.7967,6.8818,6.9679,7.0815,7.2529,7.4052,7.528,7.5916,7.6015,7.6015,7.6015,7.6015,7.6015,7.6015,7.6015,7.6015,7.6015,7.6015,7.6015,7.6015,7.6015,7.6015,7.6015,7.6015,7.6015,7.6015,7.6476,7.713,7.7946,7.8784,7.9669,8.0516,8.0939,8.1093,8.1093,8.1093,8.1093,8.1093,8.1093,8.1093,8.1093,8.1093,8.1093,8.1131,8.1593,8.2054,8.2485,8.2862,8.3555,8.4286,8.4286,8.4593,8.4939,8.4939,8.4939,8.4939,8.4939,8.4294,8.3601,8.3601,8.3601,8.3486,8.3101,8.2631,8.2208,8.1823,8.14,8.1093,8.1093,8.1093,8.1093,8.1093,8.1093,8.1093,8.1093,8.1093,8.1093,8.1093,8.1093,8.1093,8.1093,8.1093,8.1093,8.1093,8.1093,8.1093,8.1093,8.1093,8.1093,8.1093,8.1186,8.1292,8.1407,8.1527,8.1618,8.1684,8.1825,8.1899,8.1992,8.2001,8.2121,6.5904,6.5904,6.5942,6.6134,6.6173,6.6256,6.6505,6.7009,6.7556,6.7998,6.8723,6.9506,7.0151,7.1306,7.2737,7.4425,7.5438,7.6015,7.6015,7.6015,7.6015,7.6015,7.6015,7.6015,7.6015,7.6015,7.6015,7.6015,7.6015,7.6015,7.6015,7.6015,7.6015,7.6015,7.6015,7.6015,7.6015,7.7061,7.7907,7.8523,7.9361,8.0246,8.1093,8.1093,8.1093,8.1093,8.1093,8.1093,8.1093,8.1093,8.1093,8.1093,8.1093,8.1208,8.1477,8.2285,8.317,8.3909,8.3909,8.4478,8.5162,8.5162,8.5585,8.6094,8.6094,8.6094,8.6094,8.6094,8.517,8.4178,8.4178,8.4178,8.414,8.3939,8.3401,8.2862,8.2631,8.1939,8.1362,8.1362,8.1246,8.1093,8.1093,8.1093,8.1093,8.1093,8.1093,8.1093,8.1093,8.1093,8.1093,8.1093,8.1093,8.1093,8.1093,8.1093,8.1093,8.1093,8.1093,8.1093,8.1093,8.1311,8.1403,8.1475,8.1687,8.1773,8.185,8.199,8.2062,8.2064,8.2222,8.2304,6.5904,6.5904,6.6096,6.6827,6.7019,6.7013,6.7025,6.7686,6.8538,6.9364,7.0203,7.1025,7.186,7.3378,7.4517,7.4661,7.5438,7.6015,7.6015,7.6015,7.6015,7.6015,7.6015,7.6015,7.6015,7.6015,7.6015,7.6015,7.6015,7.6015,7.6015,7.6015,7.6015,7.6015,7.6015,7.6015,7.6015,7.7599,7.8446,7.8523,7.9361,8.0246,8.1093,8.1093,8.1093,8.1093,8.1093,8.1093,8.1093,8.1093,8.1093,8.1093,8.1093,8.1554,8.2324,8.3178,8.4055,8.4816,8.4816,8.5363,8.6017,8.6017,8.6055,8.6094,8.6094,8.6094,8.6094,8.6094,8.6017,8.594,8.594,8.594,8.5747,8.497,8.4739,8.4478,8.3678,8.2832,8.2208,8.2208,8.1593,8.1093,8.1093,8.1093,8.1093,8.1093,8.1093,8.1093,8.1093,8.1093,8.1093,8.1093,8.1093,8.1093,8.1093,8.1093,8.1093,8.1093,8.1093,8.1093,8.1093,8.1311,8.1501,8.1656,8.1875,8.2064,8.2264,8.2265,8.2265,8.2265,8.2304,8.2304,6.5904,6.5904,6.6096,6.6904,6.7513,6.8052,6.859,6.8975,6.959,7.0975,7.1514,7.2129,7.3514,7.4284,7.4892,7.5438,7.5784,7.6015,7.6015,7.6015,7.6015,7.6015,7.6015,7.6015,7.6015,7.6015,7.6015,7.6015,7.6015,7.6015,7.6015,7.6015,7.6015,7.6015,7.6015,7.6245,7.6791,7.7946,7.8754,7.9323,8.0208,8.0785,8.1093,8.1093,8.1093,8.1093,8.1093,8.1093,8.1093,8.1093,8.1093,8.1131,8.1631,8.2708,8.3978,8.4286,8.4939,8.567,8.567,8.5863,8.6094,8.6094,8.6094,8.6094,8.6094,8.6094,8.6094,8.6094,8.6094,8.6094,8.6094,8.6094,8.6017,8.5701,8.5239,8.4816,8.4478,8.3708,8.3101,8.3101,8.2439,8.1862,8.1862,8.1439,8.1093,8.1093,8.1093,8.1093,8.1093,8.1093,8.1093,8.1093,8.1093,8.1093,8.1093,8.1093,8.1093,8.1093,8.1093,8.1093,8.1093,8.1391,8.1636,8.1684,8.2003,8.2221,8.2304,8.2304,8.2304,8.2304,8.2304,8.2304,6.5904,6.6096,6.6481,6.7282,6.8167,6.9122,7.0244,7.0475,7.0821,7.1944,7.2636,7.3437,7.4861,7.513,7.5322,7.5899,7.6015,7.6015,7.6015,7.6015,7.6015,7.6015,7.6015,7.6015,7.6015,7.6015,7.6015,7.6015,7.6015,7.6015,7.6015,7.6015,7.6015,7.6015,7.6015,7.6399,7.7292,7.8099,7.8938,7.9815,8.0669,8.1093,8.1093,8.1093,8.1093,8.1093,8.1093,8.1093,8.1093,8.1093,8.1246,8.1593,8.2708,8.3862,8.4931,8.5201,8.5632,8.6094,8.6094,8.6094,8.6094,8.6094,8.6094,8.6094,8.6094,8.6094,8.6094,8.6094,8.6094,8.6094,8.6094,8.6094,8.6094,8.6094,8.567,8.5286,8.5286,8.4593,8.4016,8.4016,8.3324,8.2716,8.2716,8.2016,8.1477,8.1477,8.1246,8.1093,8.1093,8.1093,8.1093,8.1093,8.1093,8.1093,8.1093,8.1093,8.1093,8.1093,8.1176,8.1191,8.11,8.1501,8.1684,8.1684,8.2113,8.2304,8.2304,8.2223,8.2223,8.2304,8.2223,8.2219,6.5904,6.6481,6.7321,6.8199,6.9084,7.0167,7.1828,7.2213,7.2213,7.2213,7.3553,7.4976,7.5822,7.6015,7.6015,7.6015,7.6015,7.6015,7.6015,7.6015,7.6015,7.6015,7.6015,7.6015,7.6015,7.6015,7.6015,7.6015,7.6015,7.6015,7.6015,7.6015,7.6015,7.6015,7.6015,7.6399,7.7292,7.8099,7.8938,7.9815,8.0708,8.1093,8.1093,8.1093,8.1093,8.1093,8.1093,8.1093,8.1093,8.1093,8.1593,8.2516,8.4247,8.4893,8.5008,8.5824,8.6094,8.6094,8.6094,8.6094,8.6094,8.6094,8.6094,8.6094,8.6094,8.6094,8.6094,8.6094,8.6094,8.6094,8.6094,8.6094,8.6094,8.6094,8.6094,8.6094,8.6094,8.547,8.4893,8.4893,8.4209,8.3601,8.3601,8.2909,8.2324,8.2324,8.1631,8.1093,8.1093,8.1093,8.1093,8.1093,8.1093,8.1093,8.1093,8.1093,8.11,8.11,8.1304,8.1305,8.1108,8.1501,8.1688,8.1684,8.2113,8.2304,8.2304,8.2113,8.2114,8.2304,8.2071,8.199,6.6596,6.6904,6.7481,6.8936,6.9937,7.0821,7.1944,7.2213,7.2514,7.3707,7.4861,7.5707,7.5938,7.6015,7.6015,7.6015,7.6015,7.6015,7.6015,7.6015,7.6015,7.6015,7.6015,7.6015,7.6015,7.6015,7.6015,7.6015,7.6015,7.6015,7.6015,7.6015,7.6015,7.6015,7.6015,7.6669,7.8138,7.8369,7.9254,8.0708,8.0977,8.1093,8.1093,8.1093,8.1093,8.1093,8.1093,8.1093,8.1131,8.1708,8.2824,8.417,8.47,8.5239,8.5778,8.6017,8.6094,8.6094,8.6094,8.6094,8.6094,8.6094,8.6094,8.6094,8.6094,8.6094,8.6094,8.6094,8.6094,8.6094,8.6094,8.6094,8.6094,8.6094,8.6094,8.6094,8.6094,8.5901,8.5747,8.5747,8.5093,8.4516,8.4516,8.3785,8.3216,8.3216,8.2477,8.1747,8.117,8.1093,8.1093,8.1093,8.1093,8.1093,8.1093,8.1235,8.1298,8.1298,8.1517,8.1458,8.1124,8.1632,8.1852,8.1688,8.2113,8.2304,8.2304,8.2113,8.2046,8.2068,8.1881,8.1805,6.7398,6.7859,6.8398,6.9436,7.0552,7.1745,7.2937,7.3206,7.3591,7.4938,7.563,7.6015,7.6015,7.6015,7.6015,7.6015,7.6015,7.6015,7.6015,7.6015,7.6015,7.6015,7.6015,7.6015,7.6015,7.6015,7.6015,7.6015,7.6015,7.6015,7.6015,7.6015,7.6015,7.6015,7.6322,7.7138,7.8484,7.8823,7.9708,8.1093,8.1093,8.1093,8.1093,8.1093,8.1093,8.1093,8.1093,8.1285,8.1631,8.2477,8.3632,8.4931,8.5239,8.567,8.6094,8.6094,8.6094,8.6094,8.6094,8.6094,8.6094,8.6094,8.6094,8.6094,8.6094,8.6094,8.6094,8.6094,8.6094,8.6094,8.6094,8.6094,8.6094,8.6094,8.6094,8.6094,8.6094,8.6094,8.6094,8.6094,8.5709,8.5393,8.5393,8.467,8.4132,8.4132,8.3362,8.2516,8.167,8.1593,8.1439,8.1131,8.1093,8.1093,8.1093,8.12,8.1285,8.1285,8.1539,8.1509,8.1124,8.1695,8.1897,8.1688,8.2113,8.2221,8.2061,8.1958,8.1878,8.1875,8.1656,8.1586,6.8276,6.9084,6.9706,6.9783,7.1052,7.2745,7.4437,7.4815,7.5053,7.5822,7.6015,7.6015,7.6015,7.6015,7.6015,7.6015,7.6015,7.6015,7.6015,7.6015,7.6015,7.6015,7.6015,7.6015,7.6015,7.6015,7.6015,7.6015,7.6015,7.6015,7.6015,7.6015,7.6015,7.6015,7.6861,7.7676,7.8484,7.9361,8.0246,8.1093,8.1093,8.1093,8.1093,8.1093,8.1093,8.1093,8.117,8.167,8.2477,8.337,8.4209,8.5085,8.5824,8.6094,8.6094,8.6094,8.6094,8.6094,8.6094,8.6094,8.6094,8.6094,8.6094,8.6094,8.6094,8.6094,8.6094,8.6094,8.6094,8.6094,8.6094,8.6094,8.6094,8.6094,8.6094,8.6094,8.6094,8.6094,8.6094,8.6094,8.6094,8.6094,8.6094,8.547,8.497,8.4893,8.4209,8.3409,8.2516,8.2401,8.2131,8.14,8.1323,8.1323,8.1323,8.1354,8.1354,8.1392,8.1745,8.1781,8.1453,8.1831,8.1909,8.1688,8.2145,8.2231,8.1856,8.1878,8.1898,8.191,8.1713,8.1559,6.9161,6.9552,6.986,7.0475,7.1937,7.3661,7.5322,7.5707,7.5784,7.5976,7.6015,7.6015,7.6015,7.6015,7.6015,7.6015,7.6015,7.6015,7.6015,7.6015,7.6015,7.6015,7.6015,7.6015,7.6015,7.6015,7.6015,7.6015,7.6015,7.6015,7.6015,7.6015,7.6015,7.6015,7.6861,7.7676,7.8484,7.9361,8.0246,8.1093,8.1093,8.1093,8.1093,8.1093,8.1093,8.1131,8.1785,8.2516,8.3409,8.4247,8.5093,8.5863,8.6017,8.6094,8.6094,8.6094,8.6094,8.6094,8.6094,8.6094,8.6094,8.6094,8.6094,8.6094,8.6094,8.6094,8.6094,8.6094,8.6094,8.6094,8.6094,8.6094,8.6094,8.6094,8.6094,8.6094,8.6094,8.6094,8.6094,8.6094,8.6094,8.6094,8.6094,8.5978,8.5632,8.5008,8.4747,8.4324,8.3447,8.3332,8.3255,8.3101,8.3062,8.3062,8.3062,8.3217,8.3376,8.3539,8.3602,8.3796,8.4079,8.2875,8.2062,8.1692,8.2618,8.3126,8.3189,8.3341,8.3509,8.3653,8.3309,8.2763,7.0052,7.0283,7.0591,7.1822,7.2815,7.393,7.563,7.6015,7.6015,7.6015,7.6015,7.6015,7.6015,7.6015,7.6015,7.6015,7.6015,7.6015,7.6015,7.6015,7.6015,7.6015,7.6015,7.6015,7.6015,7.6015,7.6015,7.6015,7.6015,7.6015,7.6015,7.6015,7.6207,7.6592,7.7445,7.8292,7.9092,7.9977,8.0669,8.1093,8.1093,8.1093,8.1093,8.1093,8.1323,8.1708,8.2131,8.3016,8.4247,8.4709,8.5354,8.6094,8.6094,8.6094,8.6094,8.6094,8.6094,8.6094,8.6094,8.6094,8.6094,8.6094,8.6094,8.6094,8.6094,8.6094,8.6094,8.6094,8.6094,8.6094,8.6094,8.6094,8.6094,8.6094,8.6094,8.6094,8.6094,8.6094,8.6094,8.6094,8.6094,8.6094,8.6094,8.6094,8.5978,8.5547,8.547,8.517,8.4324,8.4209,8.4055,8.364,8.3601,8.3601,8.3601,8.3709,8.3791,8.3891,8.3989,8.4126,8.4272,8.361,8.3106,8.289,8.3445,8.3685,8.361,8.3801,8.3918,8.3897,8.3685,8.337,7.0706,7.0898,7.1321,7.3046,7.3507,7.393,7.563,7.6015,7.6015,7.6015,7.6015,7.6015,7.6015,7.6015,7.6015,7.6015,7.6015,7.6015,7.6015,7.6015,7.6015,7.6015,7.6015,7.6015,7.6015,7.6015,7.6015,7.6015,7.6015,7.6015,7.6015,7.6015,7.6399,7.7292,7.8099,7.89,7.9777,8.0669,8.1093,8.1093,8.1093,8.1093,8.1093,8.1246,8.167,8.2324,8.2439,8.3439,8.4893,8.5055,8.5508,8.6094,8.6094,8.6094,8.6094,8.6094,8.6094,8.6094,8.6094,8.6094,8.6094,8.6094,8.6094,8.6094,8.6094,8.6094,8.6094,8.6094,8.6094,8.6094,8.6094,8.6094,8.6094,8.6094,8.6094,8.6094,8.6094,8.6094,8.6094,8.6094,8.6094,8.6094,8.6094,8.6094,8.6094,8.6094,8.6094,8.5863,8.5201,8.5132,8.4824,8.4101,8.4024,8.4024,8.4024,8.4024,8.4056,8.4088,8.42,8.4255,8.417,8.4382,8.4558,8.4613,8.4449,8.4217,8.3924,8.4171,8.4207,8.4096,8.4056,8.3947,7.086,7.0898,7.1321,7.3046,7.3507,7.393,7.563,7.6015,7.6015,7.6015,7.6015,7.6015,7.6015,7.6015,7.6015,7.6015,7.6015,7.6015,7.6015,7.6015,7.6015,7.6015,7.6015,7.6015,7.6015,7.6015,7.6015,7.6015,7.6015,7.6015,7.6015,7.6015,7.6399,7.7292,7.8099,7.89,7.9777,8.0669,8.1093,8.1093,8.1093,8.1093,8.1131,8.1823,8.2208,8.2324,8.3101,8.3978,8.4931,8.5662,8.6017,8.6094,8.6094,8.6094,8.6094,8.6094,8.6094,8.6094,8.6094,8.6094,8.6094,8.6094,8.6094,8.6094,8.6094,8.6094,8.6094,8.6094,8.6094,8.6094,8.6094,8.6094,8.6094,8.6094,8.6094,8.6094,8.6094,8.6094,8.6094,8.6094,8.6094,8.6094,8.6094,8.6094,8.6094,8.6094,8.6094,8.6055,8.5931,8.594,8.5901,8.5786,8.5786,8.5786,8.5786,8.5786,8.5869,8.6088,8.5921,8.5959,8.636,8.6016,8.5955,8.6186,8.5444,8.5142,8.5238,8.5632,8.5906,8.6094,8.5884,8.5401,7.0898,7.0898,7.1321,7.3046,7.3507,7.393,7.563,7.6015,7.6015,7.6015,7.6015,7.6015,7.6015,7.6015,7.6015,7.6015,7.6015,7.6015,7.6015,7.6015,7.6015,7.6015,7.6015,7.6015,7.6015,7.6015,7.6015,7.6015,7.6015,7.6015,7.6015,7.6015,7.6592,7.7946,7.833,7.9138,8.0516,8.09,8.1093,8.1093,8.1093,8.1323,8.1785,8.2131,8.2554,8.3101,8.3939,8.4786,8.5585,8.5931,8.6094,8.6094,8.6094,8.6094,8.6094,8.6094,8.6094,8.6094,8.6094,8.6094,8.6094,8.6094,8.6094,8.6094,8.6094,8.6094,8.6094,8.6094,8.6094,8.6094,8.6094,8.6094,8.6094,8.6094,8.6094,8.6094,8.6094,8.6094,8.6094,8.6094,8.6094,8.6094,8.6094,8.6094,8.6094,8.6094,8.6094,8.6094,8.6094,8.6094,8.6094,8.6094,8.6094,8.6094,8.6094,8.6094,8.6137,8.6276,8.616,8.6185,8.6404,8.6215,8.6145,8.6283,8.5897,8.5745,8.5823,8.6,8.6153,8.6283,8.6145,8.5901,7.0898,7.0898,7.1283,7.2783,7.3353,7.3892,7.5361,7.5822,7.6015,7.6015,7.6015,7.6015,7.6015,7.6015,7.6015,7.6015,7.6015,7.6015,7.6015,7.6015,7.6015,7.6015,7.6015,7.6015,7.6015,7.6015,7.6015,7.6015,7.6015,7.6015,7.6015,7.6207,7.7015,7.8446,7.8715,7.9554,8.1093,8.1093,8.1093,8.1093,8.1093,8.1516,8.2324,8.2516,8.3101,8.3986,8.4632,8.5354,8.6094,8.6094,8.6094,8.6094,8.6094,8.6094,8.6094,8.6094,8.6094,8.6094,8.6094,8.6094,8.6094,8.6094,8.6094,8.6094,8.6094,8.6094,8.6094,8.6094,8.6094,8.6094,8.6094,8.6094,8.6094,8.6094,8.6094,8.6094,8.6094,8.6094,8.6094,8.6094,8.6094,8.6094,8.6094,8.6094,8.6094,8.6094,8.6094,8.6094,8.6094,8.6094,8.6094,8.6094,8.6094,8.6094,8.6094,8.6094,8.6094,8.6094,8.6094,8.6094,8.6094,8.6094,8.6094,8.6094,8.6094,8.6094,8.6094,8.6094,8.6094,8.6094,8.6094,8.6094,7.0898,7.0898,7.1129,7.2059,7.2899,7.3738,7.4584,7.5399,7.6015,7.6015,7.6015,7.6015,7.6015,7.6015,7.6015,7.6015,7.6015,7.6015,7.6015,7.6015,7.6015,7.6015,7.6015,7.6015,7.6015,7.6015,7.6015,7.6015,7.6015,7.6015,7.6015,7.6784,7.7638,7.8484,7.9285,8.0169,8.1093,8.1093,8.1093,8.1093,8.1093,8.1516,8.2324,8.3178,8.4016,8.4824,8.4893,8.5354,8.6094,8.6094,8.6094,8.6094,8.6094,8.6094,8.6094,8.6094,8.6094,8.6094,8.6094,8.6094,8.6094,8.6094,8.6094,8.6094,8.6094,8.6094,8.6094,8.6094,8.6094,8.6094,8.6094,8.6094,8.6094,8.6094,8.6094,8.6094,8.6094,8.6094,8.6094,8.6094,8.6094,8.6094,8.6094,8.6094,8.6094,8.6094,8.6094,8.6094,8.6094,8.6094,8.6094,8.6094,8.6094,8.6094,8.6094,8.6094,8.6094,8.6094,8.6094,8.6094,8.6094,8.6094,8.6094,8.6094,8.6094,8.6094,8.6094,8.6094,8.6094,8.6094,8.6094,8.6094,7.0898,7.0898,7.1091,7.1982,7.2444,7.3014,7.4392,7.493,7.5322,7.5861,7.6015,7.6015,7.6015,7.6015,7.6015,7.6015,7.6015,7.6015,7.6015,7.6015,7.6015,7.6015,7.6015,7.6015,7.6015,7.6015,7.6015,7.6015,7.6015,7.6015,7.6015,7.6823,7.7676,7.8484,7.9361,8.0208,8.1093,8.1093,8.1093,8.1093,8.1093,8.1823,8.3139,8.3447,8.4362,8.567,8.567,8.5816,8.6094,8.6094,8.6094,8.6094,8.6094,8.6094,8.6094,8.6094,8.6094,8.6094,8.6094,8.6094,8.6094,8.6094,8.6094,8.6094,8.6094,8.6094,8.6094,8.6094,8.6094,8.6094,8.6094,8.6094,8.6094,8.6094,8.6094,8.6094,8.6094,8.6094,8.6094,8.6094,8.6094,8.6094,8.6094,8.6094,8.6094,8.6094,8.6094,8.6094,8.6094,8.6094,8.6094,8.6094,8.6094,8.6168,8.6346,8.6208,8.6168,8.6353,8.6208,8.6094,8.6094,8.6094,8.6094,8.6094,8.6094,8.6094,8.6094,8.6094,8.6192,8.636,8.6184,8.6259,7.0898,7.0898,7.1052,7.1629,7.1982,7.2552,7.3969,7.4507,7.493,7.5822,7.6015,7.6015,7.6015,7.6015,7.6015,7.6015,7.6015,7.6015,7.6015,7.6015,7.6015,7.6015,7.6015,7.6015,7.6015,7.6015,7.6015,7.6015,7.6015,7.6015,7.6015,7.7092,7.8215,7.9331,7.9939,8.0516,8.1093,8.1093,8.1093,8.1093,8.1362,8.2247,8.3601,8.3909,8.4786,8.6094,8.6094,8.6094,8.6094,8.6094,8.6094,8.6094,8.6094,8.6094,8.6094,8.6094,8.6094,8.6094,8.6094,8.6094,8.6094,8.6094,8.6094,8.6094,8.6094,8.6094,8.6094,8.6094,8.6094,8.6094,8.6094,8.6094,8.6094,8.6094,8.6094,8.6094,8.6094,8.6094,8.6094,8.6094,8.6094,8.6094,8.6094,8.6094,8.6094,8.6094,8.6094,8.6094,8.6094,8.6094,8.6094,8.6094,8.6094,8.6168,8.636,8.6215,8.6176,8.6367,8.6208,8.6094,8.6094,8.6094,8.6094,8.6094,8.6094,8.612,8.6223,8.612,8.6231,8.6513,8.631,8.6466,0.0,0.0,0.0,7.0898,7.1552,7.2399,7.3276,7.4084,7.4892,7.5784,7.5976,7.6015,7.6015,7.6015,7.6015,7.6015,7.6015,7.6015,7.6015,7.6015,7.6015,7.6015,7.6015,7.6015,7.6015,7.6015,7.6015,7.6015,7.6015,7.6015,7.6015,7.7599,7.9292,8.1054,8.1093,8.1093,8.1093,8.1093,8.1093,8.1093,8.19,8.2747,8.364,8.4516,8.5363,8.6094,8.6094,8.6094,8.6094,8.6094,8.6094,8.6094,8.6094,8.6094,8.6094,8.6094,8.6094,8.6094,8.6094,8.6094,8.6094,8.6094,8.6094,8.6094,8.6094,8.6094,8.6094,8.6094,8.6094,8.6094,8.6094,8.6094,8.6094,8.6094,8.6094,8.6094,8.6094,8.6094,8.6094,8.6094,8.6094,8.6094,8.6094,8.6094,8.6094,8.6094,8.6094,8.6094,8.6094,8.6094,8.6094,8.6094,8.6094,8.6094,8.611,8.6094,8.6094,8.611,8.6094,8.6094,8.6094,8.6094,8.6094,8.6094,8.6094,8.6223,8.6519,8.6231,8.6253,8.6511,8.6517,8.6738,7.0898,0.0,0.0,0.0,0.0,0.0,7.236,7.3206,7.4084,7.4892,7.5553,7.6015,7.6015,7.6015,7.6015,7.6015,7.6015,7.6015,7.6015,7.6015,7.6015,7.6015,7.6015,7.6015,7.6015,7.6015,7.6015,7.6015,7.6015,7.6015,7.6015,7.7599,7.9292,8.1054,8.1093,8.1093,8.1093,8.1093,8.1093,8.1093,8.19,8.2747,8.364,8.4516,8.5363,8.6094,8.6094,8.6094,8.6094,8.6094,8.6094,8.6094,8.6094,8.6094,8.6094,8.6094,8.6094,8.6094,8.6094,8.6094,8.6094,8.6094,8.6094,8.6094,8.6094,8.6094,8.6094,8.6094,8.6094,8.6094,8.6094,8.6094,8.6094,8.6094,8.6094,8.6094,8.6094,8.6094,8.6094,8.6094,8.6094,8.6094,8.6094,8.6094,8.6094,8.6094,8.6094,8.6094,8.6094,8.6094,8.6094,8.6094,8.6094,8.6176,8.6387,8.6192,8.6184,8.6394,8.6223,8.6094,8.6094,8.6094,8.6094,8.6094,8.6094,8.6223,8.6519,8.6423,8.6589,8.6952,8.7135,8.7161,0.0,0.0,0.0,7.0898,0.0,0.0,7.2021,7.2591,7.3283,7.4469,7.5091,7.5553,7.5938,7.6015,7.6015,7.6015,7.6015,7.6015,7.6015,7.6015,7.6015,7.6015,7.6015,7.6015,7.6015,7.6015,7.6015,7.6015,7.6015,7.6322,7.7015,7.7984,7.9292,8.1054,8.1093,8.1093,8.1093,8.1093,8.1093,8.1093,8.2285,8.3101,8.364,8.4863,8.5662,8.6094,8.6094,8.6094,8.6094,8.6094,8.6094,8.6094,8.6094,8.6094,8.6094,8.6094,8.6094,8.6094,8.6094,8.6094,8.6094,8.6094,8.6094,8.6094,8.6094,8.6094,8.6094,8.6094,8.6094,8.6094,8.6094,8.6094,8.6094,8.6094,8.6094,8.6094,8.6094,8.6094,8.6094,8.6094,8.6094,8.6094,8.6094,8.6094,8.6094,8.6094,8.6094,8.6094,8.6094,8.6094,8.6094,8.6094,8.6094,8.6153,8.6317,8.62,8.616,8.6317,8.6192,8.6094,8.6094,8.6094,8.6094,8.6094,8.6231,8.6417,8.6756,8.6572,8.6705,8.7106,8.7374,8.7418,0.0,0.0,0.0,0.0,7.0898,0.0,7.1867,7.2136,7.2636,7.413,7.4584,7.493,7.5707,7.5938,7.6015,7.6015,7.6015,7.6015,7.6015,7.6015,7.6015,7.6015,7.6015,7.6015,7.6015,7.6015,7.6015,7.6015,7.6015,7.6746,7.8407,7.8484,7.9292,8.1054,8.1093,8.1093,8.1093,8.1093,8.1093,8.1131,8.2793,8.3601,8.3678,8.5324,8.6094,8.6094,8.6094,8.6094,8.6094,8.6094,8.6094,8.6094,8.6094,8.6094,8.6094,8.6094,8.6094,8.6094,8.6094,8.6094,8.6094,8.6094,8.6094,8.6094,8.6094,8.6094,8.6094,8.6094,8.6094,8.6094,8.6094,8.6094,8.6094,8.6094,8.6094,8.6094,8.6094,8.6094,8.6094,8.6094,8.6094,8.6094,8.6094,8.6094,8.6094,8.6094,8.6094,8.6094,8.6094,8.6094,8.6094,8.6094,8.6094,8.6094,8.6094,8.6094,8.6094,8.6094,8.6094,8.6094,8.6094,8.6094,8.6094,8.6094,8.6376,8.6724,8.7104,8.6774,8.68,8.7163,8.7376,8.75,0.0,0.0,0.0,7.1091,7.0898,0.0,7.1091,7.1713,7.229,7.2636,7.3745,7.4738,7.4938,7.5515,7.6015,7.6015,7.6015,7.6015,7.6015,7.6015,7.6015,7.6015,7.6015,7.6015,7.6015,7.6015,7.6015,7.6015,7.6015,7.6746,7.8407,7.8484,7.9292,8.1054,8.1093,8.1093,8.1093,8.1093,8.1093,8.1131,8.2793,8.3601,8.3678,8.5324,8.6094,8.6094,8.6094,8.6094,8.6094,8.6094,8.6094,8.6094,8.6094,8.6094,8.6094,8.6094,8.6094,8.6094,8.6094,8.6094,8.6094,8.6094,8.6094,8.6094,8.6094,8.6094,8.6094,8.6094,8.6094,8.6094,8.6094,8.6094,8.6094,8.6094,8.6094,8.6094,8.6094,8.6094,8.6094,8.6094,8.6094,8.6094,8.6094,8.6094,8.6094,8.6094,8.6094,8.6094,8.6094,8.6094,8.6094,8.6094,8.6094,8.6094,8.6094,8.6094,8.6094,8.6094,8.6094,8.6094,8.6094,8.6094,8.6094,8.6094,8.6532,8.688,8.7104,8.7222,8.7366,8.7419,8.746,8.75,7.3117,7.2514,7.2098,7.1668,7.1206,0.0,0.0,7.1245,7.1668,7.2098,7.3206,7.4199,7.4623,7.5399,7.6015,7.6015,7.6015,7.6015,7.6015,7.6015,7.6015,7.6015,7.6015,7.6015,7.6015,7.6015,7.6015,7.6015,7.6015,7.6746,7.8407,7.8484,7.9292,8.1054,8.1093,8.1093,8.1093,8.1093,8.1285,8.1708,8.2986,8.3832,8.4286,8.5517,8.6094,8.6094,8.6094,8.6094,8.6094,8.6094,8.6094,8.6094,8.6094,8.6094,8.6094,8.6094,8.6094,8.6094,8.6094,8.6094,8.6094,8.6094,8.6094,8.6094,8.6094,8.6094,8.6094,8.6094,8.6094,8.6094,8.6094,8.6094,8.6094,8.6094,8.6094,8.6094,8.6094,8.6094,8.6159,8.6283,8.6288,8.6261,8.6126,8.6094,8.6094,8.6094,8.6094,8.6094,8.6094,8.6239,8.6246,8.6118,8.6208,8.6246,8.611,8.6208,8.6238,8.6102,8.6321,8.6397,8.6296,8.6384,8.6514,8.6586,8.6826,8.7073,8.7284,8.7419,8.75,8.75,8.75,8.75,7.4017,7.3206,7.2629,7.2482,7.1783,7.1168,0.0,0.0,0.0,7.2021,7.2899,7.3738,7.4546,7.5399,7.5822,7.5361,7.5668,7.5822,7.5322,7.5707,7.6015,7.6015,7.6015,7.6015,7.6015,7.6015,7.6015,7.6015,7.6015,7.6746,7.8407,7.8484,7.9292,8.1054,8.1093,8.1093,8.1093,8.1093,8.1516,8.2324,8.3178,8.4055,8.4931,8.5747,8.6094,8.6094,8.6094,8.6094,8.6094,8.6094,8.6094,8.6094,8.6094,8.6094,8.6094,8.6094,8.6094,8.6094,8.6094,8.6094,8.6094,8.6094,8.6094,8.6094,8.6094,8.6094,8.6094,8.6094,8.6094,8.6094,8.6094,8.6094,8.6094,8.6094,8.6094,8.6094,8.6094,8.6159,8.6238,8.6462,8.6529,8.6468,8.6208,8.6176,8.6176,8.6176,8.6176,8.6176,8.6176,8.638,8.641,8.6215,8.6317,8.6367,8.62,8.6324,8.6331,8.611,8.6448,8.6638,8.6486,8.6686,8.6873,8.7102,8.7104,8.7229,8.75,8.75,8.75,8.75,8.75,8.75,7.4893,7.4469,7.4245,7.3546,7.2706,7.2059,7.2059,0.0,7.1168,7.2021,0.0,7.3738,7.4546,0.0,0.0,7.3021,7.4514,7.5207,7.2944,7.4591,7.6015,7.6015,7.6015,7.6015,7.6015,7.6015,7.6015,7.6015,7.6015,7.6746,7.8407,7.8484,7.9292,8.1054,8.1093,8.1093,8.1093,8.1093,8.1516,8.2324,8.3178,8.4055,8.4931,8.5747,8.6094,8.6094,8.6094,8.6094,8.6094,8.6094,8.6094,8.6094,8.6094,8.6094,8.6094,8.6094,8.6094,8.6094,8.6094,8.6094,8.6094,8.6094,8.6094,8.6094,8.6094,8.6094,8.6094,8.6094,8.6094,8.6094,8.6094,8.6094,8.6094,8.6094,8.6094,8.6094,8.6094,8.6305,8.6468,8.6468,8.662,8.67,8.648,8.6462,8.6462,8.6462,8.6462,8.6462,8.6462,8.6494,8.65,8.6462,8.6283,8.6223,8.6436,8.6268,8.6143,8.6094,8.6145,8.6259,8.6506,8.6686,8.6873,8.7102,8.7104,8.7229,8.75,8.75,8.75,8.75,8.75,8.75,7.5617,7.5174,7.4738,7.4295,7.3678,7.3085,7.2986,7.2668,7.2507,7.2899,0.0,0.0,0.0,0.0,0.0,0.0,7.5284,7.563,7.4553,7.5322,7.6015,7.6015,7.6015,7.6015,7.6015,7.6015,7.6015,7.6015,7.6015,7.6515,7.7753,7.8253,7.9054,8.0323,8.0823,8.1093,8.1093,8.1093,8.1747,8.3062,8.3447,8.4286,8.5624,8.594,8.6094,8.6094,8.6094,8.6094,8.6094,8.6094,8.6094,8.6094,8.6094,8.6094,8.6094,8.6094,8.6094,8.6094,8.6094,8.6094,8.6094,8.6094,8.6094,8.6094,8.6094,8.6094,8.6094,8.6094,8.6094,8.6094,8.6094,8.6239,8.6331,8.6331,8.6331,8.6331,8.6331,8.6416,8.6535,8.663,8.6857,8.6959,8.6844,8.6635,8.6541,8.6679,8.656,8.6547,8.6641,8.6787,8.6782,8.6681,8.6661,8.6671,8.6666,8.6661,8.6622,8.6526,8.6602,8.679,8.7089,8.7145,8.7264,8.7329,8.7329,8.7376,8.75,8.75,8.75,8.75,8.75,8.75,7.6135,7.5734,7.5299,7.5106,7.4565,7.4028,7.384,7.3661,7.3546,7.3776,7.4276,0.0,0.0,0.0,7.5784,0.0,0.0,7.5745,7.5053,7.5553,7.6015,7.6015,7.6015,7.6015,7.6015,7.6015,7.6015,7.6015,7.6015,7.6361,7.7253,7.8061,7.8907,7.9777,8.0669,8.1093,8.1093,8.1093,8.1939,8.3601,8.3601,8.4478,8.6094,8.6094,8.6094,8.6094,8.6094,8.6094,8.6094,8.6094,8.6094,8.6094,8.6094,8.6094,8.6094,8.6094,8.6094,8.611,8.6184,8.6231,8.6208,8.6126,8.6094,8.6094,8.6094,8.6094,8.6118,8.62,8.6145,8.6143,8.6259,8.6403,8.6505,8.6549,8.6572,8.6572,8.6572,8.6572,8.6659,8.6822,8.7,8.7114,8.7217,8.6912,8.6715,8.6841,8.6769,8.6719,8.6844,8.7008,8.7031,8.6916,8.6974,8.6986,8.6909,8.6974,8.6965,8.6825,8.6991,8.7176,8.7376,8.746,8.75,8.75,8.75,8.75,8.75,8.75,8.75,8.75,8.75,8.75,7.6386,7.6278,7.6216,7.5992,7.5329,7.4683,7.4668,7.4046,7.3738,7.4507,7.4661,7.4969,7.5784,0.0,0.0,0.0,0.0,0.0,0.0,7.4437,7.6015,7.6015,7.6015,7.6015,7.6015,7.6015,7.6015,7.6015,7.6015,7.6361,7.7253,7.8061,7.8907,7.9777,8.0669,8.1093,8.1093,8.1093,8.1939,8.3601,8.3601,8.4478,8.6094,8.6094,8.6094,8.6094,8.6094,8.6094,8.6094,8.6094,8.6094,8.6094,8.6094,8.6094,8.6094,8.6094,8.6094,8.6151,8.6383,8.65,8.6449,8.6184,8.6094,8.6094,8.6094,8.6094,8.6137,8.6403,8.6288,8.6208,8.6671,8.6653,8.6559,8.6752,8.6804,8.6804,8.6804,8.6804,8.6868,8.7036,8.7102,8.7175,8.7459,8.7275,8.7096,8.7098,8.7096,8.7096,8.7098,8.7102,8.7102,8.71,8.6936,8.6905,8.705,8.6933,8.6825,8.6817,8.6991,8.7106,8.711,8.7373,8.75,8.75,8.75,8.75,8.75,8.75,8.75,8.75,8.75,8.75,7.6556,7.6618,7.6639,7.6273,7.6062,7.5906,7.5628,7.5361,7.5245,7.5515,7.5553,7.5668,7.5938,0.0,0.0,0.0,0.0,0.0,0.0,7.5476,7.6015,7.6015,7.6015,7.6015,7.6015,7.6015,7.6015,7.6015,7.6015,7.613,7.6438,7.7753,7.8638,7.8938,8.0323,8.1093,8.1093,8.1093,8.1939,8.3601,8.3601,8.4478,8.6094,8.6094,8.6094,8.6094,8.6094,8.6094,8.6094,8.6094,8.6094,8.6094,8.6094,8.6094,8.6094,8.6094,8.6192,8.6394,8.6475,8.6519,8.65,8.6376,8.6373,8.6383,8.6532,8.6555,8.6572,8.6671,8.663,8.6599,8.6774,8.6868,8.689,8.6989,8.7,8.7,8.7,8.7,8.7013,8.7098,8.7232,8.7377,8.7461,8.7419,8.7373,8.7373,8.7223,8.7168,8.733,8.7373,8.7373,8.7373,8.728,8.7276,8.7372,8.7318,8.7267,8.7267,8.7326,8.7373,8.7373,8.7459,8.75,8.75,8.75,8.75,8.75,8.6914,8.664,8.664,8.6054,8.6094,7.6732,7.6788,7.6839,7.6506,7.6484,7.6513,7.625,7.6201,7.6201,7.6201,7.6201,7.6201,0.0,0.0,0.0,0.0,0.0,0.0,0.0,7.6015,7.6015,7.6015,7.6015,7.6015,7.6015,7.6015,7.6015,7.6015,7.6015,7.6015,7.6015,7.7599,7.8484,7.8484,8.0169,8.1093,8.1093,8.1093,8.1939,8.3601,8.3601,8.4478,8.6094,8.6094,8.6094,8.6094,8.6094,8.6094,8.6094,8.6094,8.6094,8.6094,8.6094,8.6145,8.6223,8.6151,8.6283,8.6519,8.6519,8.6519,8.6519,8.6519,8.6436,8.6396,8.6643,8.662,8.6505,8.6376,8.6523,8.6669,8.6617,8.6843,8.7114,8.7225,8.7232,8.7232,8.7232,8.717,8.7116,8.7226,8.7285,8.7376,8.7461,8.75,8.75,8.75,8.7333,8.7285,8.7461,8.75,8.75,8.75,8.75,8.75,8.75,8.75,8.75,8.75,8.75,8.75,8.75,8.75,8.7344,8.7031,8.7344,8.7187,8.6562,8.6328,8.6054,8.5703,8.4844,8.4726]}]]